Date StartTime U_cm/s V_cm/s W_cm/s Ustd_cm/s Vstd_cm/s Wstd_cm/s Uvar_(cm/s)^2 Vvar_(cm/s)^2 Wvar_(cm/s)^2 KE_(m/s)^2 TurbulentKE_(m/s)^2 HorizWindSpeed_cm/s FrictionSpeec_cm/s DragCoef SpeedOfSound_m/s SonicTemperature_C Pressure_mb 
05/07/2014  00:00:00      -75.344       17.004      -10.298       28.692       30.972       24.167      823.244      959.241      584.060        0.422        0.118       77.239       16.166        0.044      338.332       10.911      855.897
05/07/2014  00:01:00      -75.567       34.259       -4.104       23.586       25.424       23.893      556.307      646.381      570.871        0.434        0.089       82.970       17.201        0.043      338.184       10.663      855.912
05/07/2014  00:02:00     -120.813       -7.448       -7.569       43.724       34.164       24.110     1911.787     1167.170      581.280        0.918        0.183      121.042       21.779        0.032      338.034       10.411      855.922
05/07/2014  00:03:00      -85.600      -24.042      -16.655       33.668       31.828       22.602     1133.564     1013.028      510.864        0.542        0.133       88.912       13.137        0.022      337.938       10.250      855.940
05/07/2014  00:04:00     -145.092       41.338      -26.413       67.125       55.163       29.257     4505.800     3042.950      855.967        1.593        0.420      150.866       26.205        0.030      338.062       10.458      855.954
05/07/2014  00:05:00     -112.554       35.661       -0.216       44.840       57.134       30.277     2010.669     3264.266      916.726        1.006        0.310      118.068       22.108        0.035      338.174       10.646      855.967
05/07/2014  00:06:00      -94.167       28.895       -0.938       60.731       48.558       35.515     3688.253     2357.877     1261.298        0.850        0.365       98.500       29.770        0.091      338.159       10.621      855.982
05/07/2014  00:07:00     -133.723       -3.226      -16.824       67.053       46.780       42.122     4496.054     2188.322     1774.240        1.332        0.423      133.762       42.890        0.103      338.098       10.518      856.000
05/07/2014  00:08:00      -95.335        7.758      -14.087       48.542       43.838       29.790     2356.356     1921.739      887.427        0.726        0.258       95.651       18.647        0.038      338.049       10.437      855.992
05/07/2014  00:09:00      -13.894      -27.920        8.720       61.974       44.035       46.226     3840.806     1939.125     2136.866        0.448        0.396       31.186       30.905        0.982      338.094       10.511      856.004
05/07/2014  00:10:00      -84.852        6.223      -11.986       46.286       61.116       29.027     2142.425     3735.214      842.554        0.705        0.336       85.080       17.411        0.042      338.085       10.497      856.006
05/07/2014  00:11:00     -132.968       33.462      -23.237       61.546       88.398       36.172     3787.961     7814.271     1308.386        1.612        0.646      137.114       34.094        0.062      338.125       10.563      856.024
05/07/2014  00:12:00     -168.188      163.812      -40.841       53.795       67.028       36.172     2893.853     4492.727     1308.410        3.274        0.435      234.780       25.134        0.011      338.111       10.538      856.041
05/07/2014  00:13:00      -64.908      119.007      -15.747       41.844       45.410       31.200     1750.908     2062.109      973.439        1.170        0.239      135.557       26.072        0.037      338.166       10.632      856.050
05/07/2014  00:14:00     -111.993       39.922      -11.590       51.914       56.218       34.004     2695.051     3160.441     1156.275        1.064        0.351      118.896       33.371        0.079      338.210       10.706      856.045
05/07/2014  00:15:00      -78.478       43.531       -6.621       42.251       50.270       28.970     1785.163     2527.032      839.270        0.662        0.258       89.742       21.170        0.056      338.135       10.580      856.032
05/07/2014  00:16:00     -222.732       85.216      -34.289       80.832       80.788       40.442     6533.823     6526.762     1635.524        3.637        0.735      238.477       38.020        0.025      338.113       10.541      856.031
05/07/2014  00:17:00     -133.905       94.770      -12.791       59.433       72.652       39.216     3532.235     5278.385     1537.866        1.871        0.517      164.048       34.387        0.044      338.037       10.415      856.028
05/07/2014  00:18:00     -101.234      100.233       -6.882       53.656       84.375       50.428     2878.943     7119.058     2542.938        1.644        0.627      142.461       48.850        0.118      338.045       10.430      856.031
05/07/2014  00:19:00     -185.030       53.173      -23.749       69.854       70.941       37.284     4879.567     5032.666     1390.102        2.446        0.565      192.519       35.778        0.035      337.974       10.309      856.029
05/07/2014  00:20:00      -94.752       86.161      -11.795       52.429       62.342       40.210     2748.779     3886.574     1616.880        1.239        0.413      128.070       39.756        0.096      337.938       10.251      856.024
05/07/2014  00:21:00     -154.097        5.109      -33.146       49.815       56.762       40.675     2481.500     3221.901     1654.476        1.611        0.368      154.182       27.415        0.032      338.066       10.465      856.011
05/07/2014  00:22:00     -241.937       91.812      -44.776       82.535      114.656       51.182     6811.986    13146.052     2619.582        4.577        1.129      258.772       52.298        0.041      338.008       10.365      856.015
05/07/2014  00:23:00     -171.295       37.803       -5.109       96.316       71.792       48.781     9276.759     5154.122     2379.632        2.380        0.841      175.417       44.584        0.065      338.011       10.372      856.011
05/07/2014  00:24:00     -171.137       80.578      -16.314      105.472       66.997       40.509    11124.308     4488.591     1640.960        2.665        0.863      189.158       42.090        0.050      338.076       10.478      856.022
05/07/2014  00:25:00     -175.189       -4.185      -23.403       44.860       47.231       30.201     2012.420     2230.799      912.109        1.820        0.258      175.239       18.448        0.011      337.986       10.330      856.018
05/07/2014  00:26:00     -108.873       18.729      -17.975       67.941       47.203       34.442     4616.013     2228.138     1186.272        1.028        0.402      110.472       33.734        0.093      338.013       10.375      856.011
05/07/2014  00:27:00     -136.273      -41.584       -9.935       45.184       51.999       29.809     2041.590     2703.878      888.573        1.302        0.282      142.477        7.503        0.003      337.880       10.152      856.025
05/07/2014  00:28:00      -73.121      -24.830      -10.162       53.553       52.954       41.722     2867.927     2804.108     1740.741        0.674        0.371       77.222       27.449        0.126      337.832       10.073      856.028
05/07/2014  00:29:00     -111.006       10.877       -8.884       80.442       71.662       46.779     6470.859     5135.488     2188.298        1.315        0.690      111.537       41.804        0.140      337.938       10.249      856.035
05/07/2014  00:30:00     -131.792       -1.797      -18.209       79.454       74.355       45.087     6312.967     5528.608     2032.851        1.579        0.694      131.805       39.135        0.088      337.890       10.169      856.033
05/07/2014  00:31:00     -119.659       40.102      -16.298       60.477       84.490       55.991     3657.452     7138.589     3134.983        1.506        0.697      126.200       36.690        0.085      337.943       10.258      856.031
05/07/2014  00:32:00     -143.431       -4.614      -21.113       89.239       76.749       40.585     7963.687     5890.444     1647.109        1.827        0.775      143.505       44.685        0.097      337.961       10.287      856.033
05/07/2014  00:33:00     -136.818       41.790      -29.892       60.672       61.115       35.237     3681.141     3735.007     1241.651        1.501        0.433      143.058       23.135        0.026      337.971       10.306      856.041
05/07/2014  00:34:00     -143.396       59.737      -17.788       63.881       73.106       46.261     4080.722     5344.430     2140.096        1.800        0.578      155.342       40.035        0.066      338.036       10.414      856.054
05/07/2014  00:35:00     -190.792       25.568      -11.494      115.837       78.080       54.267    13418.272     6096.436     2944.904        2.982        1.123      192.498       55.093        0.082      338.046       10.430      856.062
05/07/2014  00:36:00     -179.794       67.838      -24.503       79.181       89.743       49.280     6269.682     8053.746     2428.549        2.714        0.838      192.166       42.449        0.049      338.104       10.529      856.062
05/07/2014  00:37:00     -137.410       21.891      -15.163       77.373       57.552       40.966     5986.570     3312.189     1678.209        1.528        0.549      139.143       43.440        0.097      338.017       10.381      856.066
05/07/2014  00:38:00     -171.836       18.410      -22.751       69.561       95.687       44.454     4838.728     9156.018     1976.154        2.317        0.799      172.819       43.713        0.064      338.016       10.380      856.057
05/07/2014  00:39:00     -153.917       37.941      -35.671       71.611       98.616       41.352     5128.192     9725.046     1709.969        2.148        0.828      158.524       52.624        0.110      337.984       10.326      856.055
05/07/2014  00:40:00     -158.855       49.872      -24.618       87.121       52.410       49.689     7590.082     2746.780     2468.991        2.056        0.640      166.499       51.471        0.096      337.977       10.315      856.060
05/07/2014  00:41:00     -122.685      -43.381       -3.597       89.795       49.519       37.283     8063.059     2452.130     1390.017        1.442        0.595      130.129       40.724        0.098      337.923       10.224      856.039
05/07/2014  00:42:00     -108.664       -0.380       -8.769       54.423       51.707       31.809     2961.851     2673.601     1011.812        0.926        0.332      108.665       18.132        0.028      337.956       10.280      856.049
05/07/2014  00:43:00      -63.985      -11.054       11.237       50.790       40.028       31.263     2579.668     1602.240      977.353        0.475        0.258       64.933       26.224        0.163      337.987       10.332      856.047
05/07/2014  00:44:00     -112.307      -23.697       -4.826       77.385       72.549       48.087     5988.515     5263.288     2312.319        1.338        0.678      114.779       16.937        0.022      337.938       10.250      856.037
05/07/2014  00:45:00     -211.645       -5.947      -28.157       71.687       76.229       39.342     5138.960     5810.844     1547.777        2.906        0.625      211.729       37.024        0.031      337.868       10.128      856.043
05/07/2014  00:46:00     -217.935      -61.360      -10.528      103.142       85.422       42.281    10638.329     7296.924     1787.682        3.554        0.986      226.408       37.468        0.027      337.860       10.116      856.024
05/07/2014  00:47:00     -173.954      -31.389       -9.675      118.214       73.662       43.552    13974.513     5426.068     1896.756        2.631        1.065      176.764       53.179        0.091      337.930       10.234      856.019
05/07/2014  00:48:00     -189.180      -86.153       -0.018       91.854       68.402       43.397     8437.223     4678.766     1883.272        2.910        0.750      207.873       47.333        0.052      337.859       10.115      856.010
05/07/2014  00:49:00     -172.021      -23.722       -9.567       95.998       65.194       39.778     9215.543     4250.275     1582.284        2.264        0.752      173.649       38.559        0.049      337.939       10.250      856.001
05/07/2014  00:50:00     -190.314      -98.010       -2.947       93.738       85.496       52.638     8786.732     7309.642     2770.741        3.235        0.943      214.069       46.435        0.047      337.874       10.139      856.003
05/07/2014  00:51:00     -167.459      -58.964       14.394       87.997       81.389       48.417     7743.397     6624.110     2344.211        2.422        0.836      177.536       50.879        0.082      337.883       10.155      856.000
05/07/2014  00:52:00     -136.700      -70.393        0.630       75.213       58.345       41.999     5656.974     3404.089     1763.884        1.723        0.541      153.760       33.999        0.049      337.930       10.236      856.002
05/07/2014  00:53:00     -163.817      -41.670       -8.426      108.604       50.101       33.675    11794.821     2510.067     1134.034        2.204        0.772      169.034       31.002        0.034      337.882       10.153      855.990
05/07/2014  00:54:00     -203.525      -41.384      -18.851       52.080       68.263       38.280     2712.304     4659.780     1465.346        2.616        0.442      207.690       24.876        0.014      337.867       10.128      855.998
05/07/2014  00:55:00     -238.838      -70.255      -18.450       66.297       42.650       28.900     4395.322     1819.065      835.205        3.468        0.352      248.956        9.829        0.002      337.799       10.012      856.004
05/07/2014  00:56:00      -91.371      -45.527       14.852       85.479       49.821       35.965     7306.659     2482.168     1293.510        1.086        0.554      102.085       45.070        0.195      337.811       10.037      856.000
05/07/2014  00:57:00     -261.178      -19.946      -16.457      115.407       72.010       41.914    13318.854     5185.464     1756.749        4.457        1.013      261.939       50.959        0.038      337.823       10.053      856.006
05/07/2014  00:58:00     -203.955      -69.048       -5.885       91.780       76.303       40.468     8423.615     5822.156     1637.656        3.114        0.794      215.325       46.132        0.046      337.853       10.105      856.016
05/07/2014  00:59:00     -239.662      -17.037      -21.769       91.486       64.899       41.435     8369.712     4211.835     1716.886        3.625        0.715      240.267       47.967        0.040      337.824       10.055      856.028
05/07/2014  01:00:00     -198.032      -14.217       -3.431      127.992       91.711       43.650    16381.969     8410.958     1905.344        3.306        1.335      198.542       49.091        0.061      337.892       10.170      856.035
05/07/2014  01:01:00     -388.441       -3.385      -35.635      148.486      108.296       52.487    22048.018    11728.121     2754.902        9.434        1.827      388.456       64.756        0.028      337.950       10.265      856.034
05/07/2014  01:02:00     -178.363      -23.640      -17.549       79.375       59.452       49.445     6300.413     3534.531     2444.851        2.248        0.614      179.923       43.375        0.058      337.907       10.195      856.040
05/07/2014  01:03:00     -178.328      -43.224      -29.027       82.496       95.158       46.560     6805.525     9054.971     2167.805        2.627        0.901      183.491       40.817        0.049      337.928       10.231      856.046
05/07/2014  01:04:00     -166.232      -52.590       -4.123      126.166       64.601       44.014    15917.793     4173.310     1937.223        2.622        1.101      174.352       50.146        0.083      337.848       10.096      856.039
05/07/2014  01:05:00     -238.919      -23.034      -15.440      110.459       63.303       41.656    12201.143     4007.253     1735.240        3.789        0.897      240.027       39.276        0.027      337.836       10.077      856.044
05/07/2014  01:06:00     -134.637      -42.535       -3.492       77.660       63.542       38.494     6031.112     4037.649     1481.812        1.575        0.578      141.196       33.420        0.056      337.861       10.122      856.052
05/07/2014  01:07:00      -65.663        1.803       -1.012       51.683       59.448       28.332     2671.088     3534.112      802.722        0.566        0.350       65.688       25.575        0.152      337.905       10.193      856.038
05/07/2014  01:08:00      -92.994      -58.756       -7.590       74.179       45.981       32.159     5502.595     2114.220     1034.220        1.040        0.433      110.001       30.846        0.079      337.823       10.057      856.035
05/07/2014  01:09:00     -185.867      -21.100      -16.463       60.919       54.328       33.403     3711.145     2951.566     1115.781        2.152        0.389      187.061       29.681        0.025      337.789        9.999      856.033
05/07/2014  01:10:00     -159.803      -51.515       -2.356       82.240       69.069       32.638     6763.431     4770.476     1065.231        2.040        0.630      167.901       36.732        0.048      337.845       10.093      856.028
05/07/2014  01:11:00     -219.905      -34.356      -16.313       84.749       79.610       41.964     7182.408     6337.725     1760.993        3.254        0.764      222.573       33.311        0.022      337.785        9.990      856.015
05/07/2014  01:12:00     -155.290      -59.681       -5.144       68.005       48.985       30.447     4624.706     2399.528      927.041        1.783        0.398      166.363       30.614        0.034      337.763        9.955      856.017
05/07/2014  01:13:00     -192.115      -14.615      -28.945       78.936       50.921       41.663     6230.873     2592.916     1735.811        2.426        0.528      192.670       40.469        0.044      337.776        9.977      856.010
05/07/2014  01:14:00     -283.306      -37.762      -34.820       94.512       85.990       47.437     8932.580     7394.353     2250.250        5.074        0.929      285.812       41.895        0.021      337.823       10.053      855.989
05/07/2014  01:15:00     -171.896      -93.972       -8.155      114.437       79.575       52.507    13095.838     6332.102     2757.030        3.031        1.109      195.905       36.025        0.034      337.755        9.941      855.982
05/07/2014  01:16:00     -186.378      -30.610      -11.890       75.766      102.074       46.782     5740.438    10419.111     2188.594        2.708        0.917      188.874       35.022        0.034      337.776        9.977      856.001
05/07/2014  01:17:00     -132.004      -40.031       -6.182       82.897       91.762       40.992     6871.995     8420.352     1680.341        1.802        0.849      137.941       29.733        0.046      337.848       10.097      856.003
05/07/2014  01:18:00     -123.308      -18.855      -20.683       69.790       68.570       30.647     4870.635     4701.804      939.217        1.325        0.526      124.741       26.731        0.046      337.831       10.069      856.002
05/07/2014  01:19:00     -222.876      115.773      -39.284      111.292       82.225       48.263    12385.937     6760.927     2329.287        4.304        1.074      251.151       54.807        0.048      337.885       10.161      856.018
05/07/2014  01:20:00     -208.231      111.235      -40.627       94.359      100.515       54.088     8903.603    10103.252     2925.544        3.965        1.097      236.079       66.631        0.080      337.786        9.991      856.008
05/07/2014  01:21:00     -177.356       83.239      -19.613       97.543      109.742       52.966     9514.717    12043.228     2805.352        3.156        1.218      195.918       56.217        0.082      337.823       10.056      856.002
05/07/2014  01:22:00     -171.641       50.527      -18.559      135.754       75.833       54.312    18429.053     5750.578     2949.793        2.974        1.356      178.924       57.931        0.105      337.819       10.049      855.987
05/07/2014  01:23:00     -209.484       19.901      -29.655       93.385       75.080       43.551     8720.714     5637.018     1896.706        3.070        0.813      210.427       40.183        0.036      337.806       10.026      855.983
05/07/2014  01:24:00     -201.331        7.771      -12.759       97.720      104.931       57.045     9549.159    11010.618     3254.078        3.228        1.191      201.481       60.632        0.091      337.754        9.938      855.969
05/07/2014  01:25:00     -164.848       64.512      -10.513      114.974       87.941       67.242    13219.024     7733.551     4521.514        2.846        1.274      177.021       56.148        0.101      337.839       10.083      855.961
05/07/2014  01:26:00     -141.845       95.509      -14.917      100.994       86.274       58.671    10199.859     7443.154     3442.231        2.527        1.054      171.003       59.214        0.120      337.854       10.107      855.943
05/07/2014  01:27:00      -93.950       34.788       -7.441       75.530       65.448       46.975     5704.741     4283.428     2206.646        1.114        0.610      100.184       34.768        0.120      337.823       10.057      855.939
05/07/2014  01:28:00     -206.329       79.328      -15.971      126.747      127.478       64.439    16064.707    16250.600     4152.347        4.279        1.823      221.053       44.550        0.041      337.825       10.059      855.930
05/07/2014  01:29:00     -213.511       95.576      -36.708       87.469       71.483       47.622     7650.776     5109.834     2267.829        3.555        0.751      233.927       45.708        0.038      337.824       10.056      855.918
05/07/2014  01:30:00     -203.896      114.248      -14.766      110.656       90.179       65.847    12244.851     8132.193     4335.871        3.977        1.236      233.722       50.560        0.047      337.831       10.067      855.900
05/07/2014  01:31:00     -266.298       48.080      -20.450      121.067       86.644       51.877    14657.243     7507.138     2691.179        4.925        1.243      270.604       55.329        0.042      337.865       10.124      855.879
05/07/2014  01:32:00     -240.043       87.080      -16.459      109.674       71.918       56.730    12028.372     5172.198     3218.303        4.294        1.021      255.350       51.760        0.041      337.884       10.157      855.866
05/07/2014  01:33:00     -233.403       43.548      -46.224       66.654      118.685       47.726     4442.727    14086.124     2277.776        3.965        1.040      237.430       38.842        0.027      337.845       10.091      855.841
05/07/2014  01:34:00     -190.161       31.281      -15.849      105.712      129.592       61.838    11174.992    16793.964     3823.995        3.459        1.590      192.717       57.889        0.090      337.899       10.182      855.832
05/07/2014  01:35:00     -210.962       96.626      -17.603       98.953       84.385       50.964     9791.699     7120.754     2597.324        3.683        0.975      232.038       46.085        0.039      337.872       10.137      855.822
05/07/2014  01:36:00     -239.083      113.778      -33.797      100.118      146.593       64.980    10023.515    21489.390     4222.395        5.348        1.787      264.776       59.629        0.051      337.890       10.166      855.799
05/07/2014  01:37:00     -223.777      139.914      -35.360      142.034       96.668       67.516    20173.715     9344.715     4558.397        5.248        1.704      263.917       70.390        0.071      337.831       10.069      855.797
05/07/2014  01:38:00     -157.753      119.392      -11.957      122.281       81.027       59.257    14952.582     6565.378     3511.446        3.215        1.251      197.839       64.542        0.106      337.850       10.099      855.788
05/07/2014  01:39:00     -129.355      182.058      -27.255       71.364      108.853       52.211     5092.836    11848.915     2725.959        3.514        0.983      223.333       42.598        0.036      337.905       10.191      855.760
05/07/2014  01:40:00     -186.649      134.214      -31.719      113.936       96.411       52.758    12981.478     9295.113     2783.397        3.945        1.253      229.894       50.614        0.048      337.915       10.207      855.739
05/07/2014  01:41:00     -173.547      203.141      -23.449       98.716      126.125       73.263     9744.756    15907.552     5367.401        5.147        1.551      267.179       63.652        0.057      337.986       10.327      855.735
05/07/2014  01:42:00     -198.103      231.106      -22.147      129.632      144.862       68.020    16804.436    20984.916     4626.721        6.777        2.121      304.393       62.190        0.042      337.920       10.215      855.718
05/07/2014  01:43:00     -235.329      213.654      -41.676       94.040      128.694       73.243     8843.531    16562.117     5364.578        6.676        1.539      317.849       66.469        0.044      337.938       10.245      855.700
05/07/2014  01:44:00     -158.940      212.634      -30.113       89.507      116.700       68.423     8011.491    13618.923     4681.729        4.884        1.316      265.472       59.801        0.051      337.928       10.229      855.676
05/07/2014  01:45:00     -142.521      141.846       -9.184      101.733      148.452       55.520    10349.586    22037.970     3082.490        3.799        1.774      201.078       52.682        0.069      337.928       10.231      855.668
05/07/2014  01:46:00     -176.023      170.720      -23.218       91.737      104.412       58.308     8415.742    10901.776     3399.856        4.169        1.136      245.213       46.040        0.035      337.921       10.219      855.653
05/07/2014  01:47:00     -246.974      289.201      -47.644      141.574      132.217       80.213    20043.074    17481.311     6434.152        9.542        2.198      380.307       73.675        0.038      337.953       10.270      855.657
05/07/2014  01:48:00     -205.288      196.584      -42.321      108.758      151.066       68.093    11828.349    22820.845     4636.623        6.092        1.964      284.233       72.708        0.065      337.916       10.209      855.643
05/07/2014  01:49:00     -150.090       93.071      -16.492       70.762       96.732       49.700     5007.315     9357.037     2470.091        2.414        0.842      176.605       34.179        0.037      337.958       10.282      855.635
05/07/2014  01:50:00     -166.165       89.585      -26.500       99.565      131.815       61.878     9913.112    17375.100     3828.868        3.372        1.556      188.776       59.632        0.100      337.956       10.279      855.633
05/07/2014  01:51:00     -193.272       -7.416      -34.458      110.852      162.609       75.850    12288.140    26441.744     5753.211        4.153        2.224      193.414       41.269        0.046      337.925       10.225      855.612
05/07/2014  01:52:00     -172.719       54.324      -19.653      103.661       89.110       46.799    10745.613     7940.522     2190.128        2.702        1.044      181.061       40.763        0.051      337.964       10.291      855.629
05/07/2014  01:53:00     -196.648      105.233      -44.602       79.671      111.613       66.959     6347.390    12457.367     4483.514        3.751        1.164      223.035       53.897        0.058      337.971       10.303      855.627
05/07/2014  01:54:00     -192.773      167.422      -34.264      140.635      131.126       61.242    19778.149    17194.067     3750.532        5.354        2.036      255.327       64.600        0.064      337.933       10.239      855.615
05/07/2014  01:55:00     -155.705      154.395      -20.577      114.013      149.603       69.647    12998.884    22380.998     4850.715        4.436        2.012      219.276       71.449        0.106      337.883       10.155      855.611
05/07/2014  01:56:00     -240.136      186.473      -36.158      146.268      104.679       71.036    21394.225    10957.590     5046.091        6.556        1.870      304.036       75.040        0.061      337.907       10.194      855.614
05/07/2014  01:57:00     -213.283      232.426      -43.343      104.139      164.313       64.709    10844.867    26998.665     4187.205        7.170        2.102      315.454       65.717        0.043      337.888       10.163      855.604
05/07/2014  01:58:00     -199.727      209.497      -37.179      106.437      124.274       67.370    11328.934    15443.903     4538.710        5.823        1.566      289.448       68.590        0.056      337.914       10.206      855.608
05/07/2014  01:59:00     -182.248      160.434      -26.036       97.691      107.252       68.201     9543.451    11502.989     4651.388        4.266        1.285      242.804       60.621        0.062      337.888       10.162      855.601
05/07/2014  02:00:00     -174.540      183.681      -25.978       87.592      118.987       58.853     7672.346    14158.023     3463.705        4.508        1.265      253.383       53.803        0.045      337.913       10.205      855.608
05/07/2014  02:01:00     -228.823      243.991      -54.652       98.817      111.983       58.669     9764.876    12540.245     3442.088        7.031        1.287      334.502       55.507        0.028      337.885       10.156      855.613
05/07/2014  02:02:00     -207.390      173.928      -42.305       96.239       95.782       64.438     9261.979     9174.233     4152.248        4.882        1.129      270.668       41.509        0.024      337.848       10.096      855.608
05/07/2014  02:03:00     -157.435       48.726      -10.164       91.545      178.491       48.112     8380.398    31858.896     2314.723        3.490        2.128      164.803       29.752        0.033      337.869       10.132      855.595
05/07/2014  02:04:00      -99.554       70.853        1.916       62.867       71.477       45.264     3952.302     5109.003     2048.798        1.302        0.556      122.193       29.758        0.059      337.898       10.182      855.592
05/07/2014  02:05:00     -216.710      139.338      -30.538       89.326       72.862       50.830     7979.111     5308.876     2583.735        4.159        0.794      257.640       42.631        0.027      337.836       10.076      855.625
05/07/2014  02:06:00     -212.413      197.554      -43.302       93.536      114.862       47.853     8748.981    13193.224     2289.864        5.512        1.212      290.080       54.471        0.035      337.824       10.054      855.625
05/07/2014  02:07:00     -246.894      135.754      -39.246      117.065       99.921       62.874    13704.221     9984.126     3953.173        5.428        1.382      281.755       56.677        0.040      337.808       10.029      855.633
05/07/2014  02:08:00     -189.505      118.867      -51.698       91.551      112.927       54.765     8381.533    12752.477     2999.180        3.842        1.207      223.699       29.773        0.018      337.832       10.069      855.617
05/07/2014  02:09:00     -141.256      144.688      -16.051      127.534      107.080       57.028    16265.022    11466.195     3252.224        3.606        1.549      202.207       52.627        0.068      337.779        9.981      855.630
05/07/2014  02:10:00     -198.588      155.099      -38.078       84.679      131.172       53.890     7170.515    17206.136     2904.112        4.611        1.364      251.978       61.801        0.060      337.761        9.951      855.629
05/07/2014  02:11:00     -142.071      160.315      -18.640       91.846      111.763       62.222     8435.628    12491.078     3871.566        3.551        1.240      214.208       56.282        0.069      337.806       10.027      855.613
05/07/2014  02:12:00     -148.508       52.636       -8.440       62.874       93.006       50.209     3953.132     8650.121     2520.987        2.001        0.756      157.560       33.873        0.046      337.881       10.153      855.597
05/07/2014  02:13:00     -135.033      148.521      -13.182      104.039      143.697       64.890    10824.120    20648.891     4210.682        3.807        1.784      200.729       70.884        0.125      337.766        9.960      855.585
05/07/2014  02:14:00     -112.890      120.032      -24.531       80.723      114.176       53.166     6516.161    13036.114     2826.661        2.506        1.119      164.778       37.837        0.053      337.788        9.997      855.575
05/07/2014  02:15:00     -141.561      150.522      -23.636       78.020       81.516       49.853     6087.078     6644.907     2485.338        2.923        0.761      206.631       44.338        0.046      337.797       10.012      855.564
05/07/2014  02:16:00     -154.418      230.430      -29.040       76.150      109.225       67.706     5798.810    11930.149     4584.121        5.005        1.116      277.385       54.584        0.039      337.762        9.951      855.576
05/07/2014  02:17:00     -126.188      185.132      -19.137       78.725      111.010       57.261     6197.615    12323.219     3278.878        3.618        1.090      224.047       63.543        0.080      337.848       10.097      855.569
05/07/2014  02:18:00     -234.184      184.959      -37.591      109.244       96.491       64.043    11934.195     9310.452     4101.474        5.790        1.267      298.415       54.289        0.033      337.791       10.001      855.574
05/07/2014  02:19:00     -218.395      224.359      -49.080       91.917      117.200       59.863     8448.794    13735.803     3583.534        6.310        1.288      313.103       55.903        0.032      337.783        9.986      855.579
05/07/2014  02:20:00     -135.867      188.748      -39.006       74.694      111.821       45.061     5579.149    12503.853     2030.535        3.786        1.006      232.563       45.041        0.038      337.776        9.977      855.583
05/07/2014  02:21:00     -193.318      231.345      -29.108       89.598      165.494       69.576     8027.839    27388.369     4840.781        6.599        2.013      301.484       74.082        0.060      337.743        9.921      855.592
05/07/2014  02:22:00     -160.158      174.904      -31.795       83.303      103.535       50.847     6939.419    10719.555     2585.411        3.874        1.012      237.154       42.061        0.031      337.778        9.978      855.605
05/07/2014  02:23:00     -136.866      227.895      -33.050       57.281       78.832       43.851     3281.140     6214.450     1922.899        4.159        0.571      265.835       27.925        0.011      337.739        9.913      855.621
05/07/2014  02:24:00     -128.880      158.751      -25.318       79.255      112.644       50.156     6281.339    12688.745     2515.637        3.197        1.074      204.480       53.523        0.069      337.724        9.890      855.621
05/07/2014  02:25:00     -157.812      165.318      -32.665       93.505       83.208       51.166     8743.271     6923.642     2617.925        3.579        0.914      228.549       45.002        0.039      337.770        9.967      855.620
05/07/2014  02:26:00     -123.195      181.516      -22.217       66.329       75.745       50.668     4399.555     5737.231     2567.264        3.066        0.635      219.374       48.083        0.048      337.732        9.903      855.605
05/07/2014  02:27:00     -116.984      208.978      -21.868       65.129       88.668       56.362     4241.809     7862.054     3176.635        3.655        0.764      239.493       45.783        0.037      337.733        9.904      855.613
05/07/2014  02:28:00     -204.260      171.390      -42.304       95.692      102.033       47.755     9156.867    10410.741     2280.538        4.736        1.092      266.639       38.391        0.021      337.728        9.895      855.614
05/07/2014  02:29:00     -147.479      182.681      -15.478       98.209      141.903       54.314     9644.935    20136.599     2950.000        4.404        1.637      234.782       47.074        0.040      337.714        9.872      855.607
05/07/2014  02:30:00     -153.996      125.659      -23.934       85.150       75.968       48.318     7250.570     5771.133     2334.644        2.771        0.768      198.759       52.000        0.068      337.732        9.903      855.594
05/07/2014  02:31:00     -145.422      143.573      -19.621       53.381       71.705       41.121     2849.490     5141.630     1690.972        2.591        0.484      204.354       33.046        0.026      337.685        9.823      855.593
05/07/2014  02:32:00     -130.473      181.851      -20.481       82.044      110.375       55.787     6731.300    12182.748     3112.198        3.626        1.101      223.815       62.775        0.079      337.677        9.812      855.591
05/07/2014  02:33:00     -201.523       73.705      -43.487      111.695       81.305       54.661    12475.853     6610.461     2987.793        3.500        1.104      214.578       60.559        0.080      337.688        9.831      855.603
05/07/2014  02:34:00     -191.661      103.863      -41.474       99.698       90.699       54.391     9939.767     8226.315     2958.375        3.518        1.056      217.994       47.826        0.048      337.705        9.858      855.610
05/07/2014  02:35:00     -250.626      118.277      -46.174      121.053      150.667       56.016    14653.911    22700.521     3137.811        5.971        2.025      277.133       51.364        0.034      337.742        9.919      855.625
05/07/2014  02:36:00     -154.484       59.707      -11.185       90.791      161.033       51.352     8242.962    25931.674     2636.980        3.218        1.841      165.621       43.900        0.070      337.756        9.943      855.637
05/07/2014  02:37:00     -126.762      101.811      -12.569       93.857       67.975       59.831     8809.178     4620.572     3579.748        2.180        0.850      162.586       43.544        0.072      337.779        9.982      855.648
05/07/2014  02:38:00      -95.571       48.048      -19.883       72.014       85.789       37.538     5186.000     7359.763     1409.101        1.289        0.698      106.969       24.031        0.050      337.854       10.109      855.641
05/07/2014  02:39:00     -167.907       85.554      -19.482       95.393       92.379       53.973     9099.756     8533.921     2913.052        2.822        1.027      188.447       43.027        0.052      337.802       10.021      855.650
05/07/2014  02:40:00      -80.937       32.106        4.059       65.438       84.572       47.111     4282.153     7152.458     2219.418        1.062        0.683       87.073       35.854        0.170      337.791       10.003      855.646
05/07/2014  02:41:00     -148.361       69.777      -37.661       62.429      104.933       37.014     3897.344    11010.956     1370.053        2.228        0.814      163.950       26.235        0.026      337.765        9.957      855.662
05/07/2014  02:42:00      -61.905       75.565       -5.481       45.176       54.654       35.724     2040.904     2987.033     1276.200        0.794        0.315       97.685       26.378        0.073      337.750        9.933      855.666
05/07/2014  02:43:00      -57.867       15.255       -9.420       88.472      117.177       48.737     7827.243    13730.545     2375.277        1.380        1.197       59.844       37.742        0.398      337.823       10.059      855.685
05/07/2014  02:44:00     -129.954      -25.019      -10.388       79.291       56.009       42.317     6287.000     3137.038     1790.723        1.442        0.561      132.340       29.504        0.050      337.710        9.867      855.693
05/07/2014  02:45:00     -141.802      -48.360       -2.001       88.893       39.837       33.053     7901.902     1586.993     1092.507        1.651        0.529      149.821       35.177        0.055      337.663        9.789      855.687
05/07/2014  02:46:00     -142.895      -64.048       -2.204       79.262       94.372       47.867     6282.431     8906.102     2291.288        2.100        0.874      156.592       40.326        0.066      337.674        9.807      855.689
05/07/2014  02:47:00     -140.332      -43.139       -7.326       82.918       68.398       38.440     6875.428     4678.249     1477.651        1.732        0.652      146.813       33.181        0.051      337.635        9.741      855.682
05/07/2014  02:48:00     -163.675      -49.399      -10.207       77.605       53.701       38.309     6022.468     2883.799     1467.557        1.985        0.519      170.967       33.748        0.039      337.632        9.736      855.694
05/07/2014  02:49:00     -116.725      -59.464        7.838       80.473       78.434       39.815     6475.864     6151.816     1585.248        1.571        0.711      130.999       42.020        0.103      337.618        9.713      855.693
05/07/2014  02:50:00     -180.228      -81.353      -21.365       80.671       66.359       38.875     6507.809     4403.575     1511.228        2.599        0.621      197.738       43.823        0.049      337.589        9.663      855.696
05/07/2014  02:51:00     -211.482       -1.118      -19.100       88.390       68.226       40.604     7812.853     4654.792     1648.645        2.960        0.706      211.485       37.856        0.032      337.574        9.637      855.689
05/07/2014  02:52:00      -79.890      -10.010        8.426       71.135       77.844       38.296     5060.153     6059.740     1466.597        0.957        0.629       80.514       23.197        0.083      337.731        9.904      855.687
05/07/2014  02:53:00     -125.649        3.150        2.011      113.329       57.477       34.557    12843.407     3303.601     1194.179        1.657        0.867      125.689       36.646        0.085      337.575        9.639      855.695
05/07/2014  02:54:00     -271.242      -28.841      -12.895       82.719       72.650       52.672     6842.365     5278.020     2774.289        4.473        0.745      272.771       42.022        0.024      337.592        9.666      855.687
05/07/2014  02:55:00     -315.398      -14.361      -23.860      115.360       73.538       58.886    13307.997     5407.791     3467.515        6.121        1.109      315.725       60.791        0.037      337.522        9.549      855.687
05/07/2014  02:56:00     -175.110      -74.523       -1.180       91.715       78.724       41.243     8411.732     6197.530     1700.981        2.626        0.816      190.308       45.277        0.057      337.535        9.571      855.688
05/07/2014  02:57:00     -207.879      -48.589      -12.067       76.231       76.834       35.351     5811.135     5903.508     1249.670        2.934        0.648      213.482       35.380        0.027      337.495        9.502      855.679
05/07/2014  02:58:00     -237.441      -32.793       -4.691       98.920       86.506       53.192     9785.249     7483.244     2829.361        3.878        1.005      239.695       55.512        0.054      337.486        9.489      855.689
05/07/2014  02:59:00     -215.635      -55.071      -20.714       99.930       74.846       47.405     9986.051     5601.870     2247.279        3.389        0.892      222.556       42.307        0.036      337.505        9.520      855.698
05/07/2014  03:00:00     -171.622      -98.324      -15.337       87.628       79.080       48.936     7678.631     6253.683     2394.683        2.784        0.816      197.793       50.044        0.064      337.467        9.457      855.691
05/07/2014  03:01:00     -196.143      -73.092      -10.894      128.264       58.090       45.495    16451.778     3374.446     2069.770        3.291        1.095      209.319       40.107        0.037      337.437        9.408      855.685
05/07/2014  03:02:00     -161.131      -40.977      -10.893       70.786       66.636       39.109     5010.628     4440.291     1529.513        1.937        0.549      166.260       34.096        0.042      337.539        9.580      855.693
05/07/2014  03:03:00     -147.146      -56.506      -20.704       77.954       50.583       38.363     6076.783     2558.680     1471.755        1.769        0.505      157.622       36.111        0.052      337.487        9.493      855.697
05/07/2014  03:04:00     -180.643      -28.742       -9.300      144.020       96.158       56.552    20741.711     9246.270     3198.172        3.336        1.659      182.915       70.443        0.148      337.520        9.545      855.693
05/07/2014  03:05:00     -123.482      -86.509       12.975      112.201       57.796       53.953    12589.045     3340.327     2910.906        2.087        0.942      150.770       63.415        0.177      337.387        9.325      855.690
05/07/2014  03:06:00     -201.950     -101.725      -14.746       87.387       66.794       43.164     7636.460     4461.478     1863.096        3.265        0.698      226.123       38.905        0.030      337.385        9.321      855.699
05/07/2014  03:07:00     -164.528     -100.018       -3.916       78.958       62.562       47.207     6234.352     3913.950     2228.489        2.473        0.619      192.544       33.104        0.030      337.346        9.256      855.709
05/07/2014  03:08:00      -81.315      -13.719        8.436       83.557       53.346       52.014     6981.853     2845.769     2705.438        0.970        0.627       82.464       51.141        0.385      337.378        9.311      855.714
05/07/2014  03:09:00     -148.442       -3.108       -7.534      107.964       57.058       40.538    11656.126     3255.605     1643.325        1.932        0.828      148.475       54.655        0.136      337.384        9.320      855.712
05/07/2014  03:10:00     -173.104      -62.112       -9.469       80.301       70.818       42.970     6448.283     5015.160     1846.408        2.361        0.665      183.910       45.931        0.062      337.367        9.290      855.721
05/07/2014  03:11:00     -153.349      -37.652       -5.537       68.066       72.972       32.497     4633.014     5324.891     1056.065        1.799        0.551      157.903       30.177        0.037      337.326        9.225      855.723
05/07/2014  03:12:00     -214.522      -22.162      -12.539      110.878      100.412       54.801    12293.988    10082.516     3003.125        3.602        1.269      215.663       65.050        0.091      337.391        9.330      855.719
05/07/2014  03:13:00     -141.165      -56.779       -5.318       67.244       45.146       27.456     4521.796     2038.120      753.835        1.525        0.366      152.156       30.942        0.041      337.337        9.242      855.727
05/07/2014  03:14:00     -207.070      -66.192       -7.479       77.709       81.935       40.394     6038.719     6713.280     1631.655        3.085        0.719      217.393       36.524        0.028      337.303        9.183      855.730
05/07/2014  03:15:00     -219.069      -89.842      -16.123      105.214       85.032       48.095    11069.911     7230.426     2313.177        3.846        1.031      236.775       51.029        0.046      337.260        9.111      855.726
05/07/2014  03:16:00     -147.880      -62.641       -9.173      103.554       62.828       48.882    10723.530     3947.357     2389.428        2.146        0.853      160.600       46.133        0.083      337.264        9.119      855.735
05/07/2014  03:17:00     -206.132      -16.335      -22.132       75.132       88.862       37.520     5644.751     7896.386     1407.753        2.909        0.747      206.778       40.711        0.039      337.284        9.154      855.757
05/07/2014  03:18:00     -215.856      -36.348      -18.556       82.919       59.910       45.950     6875.604     3589.214     2111.434        3.042        0.629      218.895       42.979        0.039      337.300        9.178      855.752
05/07/2014  03:19:00     -261.794      -61.435      -17.318      109.143       80.339       54.425    11912.181     6454.347     2962.105        4.697        1.066      268.906       57.450        0.046      337.253        9.101      855.750
05/07/2014  03:20:00     -236.688     -115.820       -6.442       94.552       53.211       41.475     8940.032     2831.455     1720.184        4.148        0.675      263.506       32.168        0.015      337.193        8.998      855.752
05/07/2014  03:21:00     -153.437      -78.267       -0.231       84.851       71.833       38.987     7199.753     5160.008     1520.002        2.177        0.694      172.246       41.998        0.059      337.224        9.053      855.758
05/07/2014  03:22:00     -205.064      -59.839      -22.688      125.360       65.794       36.885    15715.184     4328.910     1360.509        3.377        1.070      213.617       51.242        0.058      337.255        9.102      855.759
05/07/2014  03:23:00     -186.961        5.159      -18.801       56.238       48.059       32.771     3162.745     2309.657     1073.959        2.094        0.327      187.033       25.198        0.018      337.306        9.190      855.777
05/07/2014  03:24:00     -131.060      -30.715       -8.435       59.330       47.551       28.264     3520.024     2261.074      798.842        1.238        0.329      134.611       25.883        0.037      337.263        9.120      855.781
05/07/2014  03:25:00     -161.079      -30.042      -20.845       61.250       53.622       32.699     3751.581     2875.327     1069.231        1.749        0.385      163.856       33.148        0.041      337.259        9.111      855.786
05/07/2014  03:26:00     -163.586      -44.422      -11.450       49.909       43.006       32.404     2490.904     1849.479     1050.026        1.713        0.270      169.510       18.331        0.012      337.185        8.989      855.802
05/07/2014  03:27:00     -138.643       -8.242      -12.107       75.062       48.974       30.047     5634.276     2398.417      902.852        1.418        0.447      138.888       35.004        0.064      337.341        9.249      855.793
05/07/2014  03:28:00     -124.361      -54.355       -5.211       56.064       47.114       26.730     3143.200     2219.698      714.488        1.226        0.304      135.721       29.997        0.049      337.227        9.058      855.787
05/07/2014  03:29:00     -112.349      -39.111        0.136       52.013       62.380       25.942     2705.364     3891.268      672.963        1.071        0.363      118.962       29.093        0.060      337.262        9.117      855.786
05/07/2014  03:30:00     -153.091      -17.427      -12.829       80.827       60.365       38.991     6533.012     3643.951     1520.310        1.780        0.585      154.080       45.269        0.086      337.273        9.135      855.791
05/07/2014  03:31:00     -202.105       42.728      -23.421       59.898       71.999       32.157     3587.729     5183.787     1034.103        2.651        0.490      206.573       31.084        0.023      337.421        9.381      855.796
05/07/2014  03:32:00     -153.501        6.293      -10.402       40.663       47.417       24.261     1653.513     2248.379      588.609        1.410        0.225      153.630       18.273        0.014      337.345        9.257      855.798
05/07/2014  03:33:00     -105.177     -114.676        6.565       68.828       58.768       37.792     4737.292     3453.719     1428.243        1.694        0.481      155.604       31.027        0.040      337.244        9.088      855.808
05/07/2014  03:34:00     -142.491      -46.016      -20.998       48.480       59.432       30.799     2350.293     3532.132      948.573        1.485        0.342      149.737       18.948        0.016      337.218        9.043      855.830
05/07/2014  03:35:00     -138.154      -48.748       -5.417       46.431       58.635       30.576     2155.865     3438.028      934.876        1.401        0.326      146.502       28.997        0.039      337.169        8.962      855.850
05/07/2014  03:36:00     -174.648       -4.608       -6.273       59.651       53.583       33.952     3558.219     2871.126     1152.731        1.907        0.379      174.709       34.031        0.038      337.234        9.072      855.864
05/07/2014  03:37:00     -195.186        2.150      -19.416       45.232       36.635       28.864     2045.950     1342.101      833.117        2.135        0.211      195.197       26.904        0.019      337.260        9.111      855.872
05/07/2014  03:38:00     -139.092      -30.822       -7.507       52.607       64.937       29.885     2767.464     4216.843      893.107        1.411        0.394      142.466       17.284        0.015      337.094        8.835      855.873
05/07/2014  03:39:00     -122.650      -50.278       -8.465       39.775       33.016       20.290     1582.026     1090.073      411.702        1.036        0.154      132.555       16.666        0.016      337.143        8.917      855.877
05/07/2014  03:40:00     -121.577      -36.039       -4.863       41.725       29.747       18.528     1740.973      884.893      343.284        0.954        0.148      126.805       21.190        0.028      337.137        8.907      855.875
05/07/2014  03:41:00     -109.934      -28.008       -9.439       28.058       29.631       25.288      787.242      877.967      639.488        0.763        0.115      113.446       19.000        0.028      337.165        8.957      855.882
05/07/2014  03:42:00      -56.768      -32.286       -7.565       49.305       19.176       16.793     2430.995      367.732      281.989        0.370        0.154       65.307       21.098        0.104      337.178        8.977      855.888
05/07/2014  03:43:00      -83.674      -29.404       -5.535       38.845       24.831       24.566     1508.970      616.587      603.477        0.531        0.136       88.690       23.488        0.070      337.158        8.942      855.897
05/07/2014  03:44:00      -77.177      -50.115        1.018       45.833       41.230       25.312     2100.682     1699.921      640.679        0.645        0.222       92.021       22.463        0.060      337.187        8.993      855.907
05/07/2014  03:45:00     -189.168      -33.808      -10.203      125.404       47.954       40.369    15726.075     2299.549     1629.657        2.834        0.983      192.166       51.515        0.072      337.104        8.851      855.904
05/07/2014  03:46:00     -239.558      -64.504      -14.984       86.490       81.731       43.106     7480.569     6680.005     1858.108        3.889        0.801      248.091       46.471        0.035      337.072        8.795      855.900
05/07/2014  03:47:00     -239.626        1.161      -14.727       77.134       57.715       43.649     5949.593     3331.047     1905.273        3.441        0.559      239.629       47.111        0.039      337.021        8.709      855.908
05/07/2014  03:48:00     -185.131      -35.725       -2.082       90.526       53.666       33.880     8194.929     2880.083     1147.840        2.389        0.611      188.547       40.144        0.045      336.994        8.666      855.919
05/07/2014  03:49:00     -143.093      -52.867        8.444       95.392       65.876       33.676     9099.558     4339.681     1134.090        1.895        0.729      152.547       44.850        0.086      337.000        8.675      855.934
05/07/2014  03:50:00     -102.467      -49.668        7.146       72.575       68.171       31.499     5267.078     4647.320      992.182        1.196        0.545      113.871       31.057        0.074      337.024        8.717      855.940
05/07/2014  03:51:00     -100.058      -57.406        7.099       79.638       55.643       32.891     6342.239     3096.147     1081.816        1.194        0.526      115.356       43.897        0.145      337.011        8.697      855.948
05/07/2014  03:52:00     -126.706      -67.659       -2.065       41.723       33.501       25.386     1740.827     1122.331      644.447        1.207        0.175      143.639       22.747        0.025      337.048        8.758      855.961
05/07/2014  03:53:00     -111.497      -32.981       -1.810       25.345       25.463       18.197      642.389      648.385      331.148        0.757        0.081      116.273       14.420        0.015      337.034        8.733      855.967
05/07/2014  03:54:00      -23.247      -54.475        4.982       32.736       41.338       20.554     1071.631     1708.797      422.479        0.337        0.160       59.228       24.892        0.177      337.061        8.779      855.959
05/07/2014  03:55:00      -74.506      -41.729       -4.335       31.381       29.438       17.085      984.760      866.593      291.890        0.473        0.107       85.396       13.194        0.024      337.107        8.858      855.950
05/07/2014  03:56:00      -79.791      -47.863       -4.745       23.628       17.301       14.524      558.284      299.335      210.946        0.487        0.053       93.046       10.632        0.013      337.143        8.918      855.940
05/07/2014  03:57:00      -80.010      -39.586        2.187       35.423       22.972       17.618     1254.797      527.697      310.397        0.503        0.105       89.267       19.885        0.050      337.138        8.909      855.933
05/07/2014  03:58:00      -85.140        4.953       -3.479       35.734       31.649       19.819     1276.892     1001.631      392.808        0.498        0.134       85.284       22.048        0.067      337.079        8.809      855.931
05/07/2014  03:59:00      -52.718       31.733       -1.319       27.407       16.319       12.665      751.123      266.307      160.397        0.248        0.059       61.532       12.379        0.040      337.126        8.890      855.916
05/07/2014  04:00:00      -69.063       40.933       -6.825       20.537       13.443       14.055      421.750      180.705      197.540        0.365        0.040       80.283       11.305        0.020      337.165        8.954      855.906
05/07/2014  04:01:00      -82.537       15.363       -6.102       19.427       16.172       10.618      377.416      261.536      112.747        0.392        0.038       83.954        5.622        0.004      337.225        9.057      855.902
05/07/2014  04:02:00      -75.741       15.022       -7.197       12.502        9.118        8.754      156.311       83.129       76.641        0.317        0.016       77.216        4.805        0.004      337.275        9.139      855.896
05/07/2014  04:03:00      -48.751       -1.390       -8.702       12.780       11.413        7.337      163.318      130.249       53.832        0.140        0.017       48.771        6.943        0.020      337.345        9.256      855.895
05/07/2014  04:04:00      -25.419       -1.801       -1.654       11.288        6.790        6.663      127.411       46.103       44.398        0.043        0.011       25.483        4.219        0.027      337.371        9.299      855.888
05/07/2014  04:05:00      -57.155       29.973      -13.205       13.436        9.537        8.380      180.529       90.947       70.226        0.234        0.017       64.537        8.528        0.017      337.311        9.199      855.884
05/07/2014  04:06:00      -44.012       24.301       -6.070       13.060       12.002        8.791      170.572      144.048       77.278        0.148        0.020       50.275        7.830        0.024      337.256        9.109      855.873
05/07/2014  04:07:00      -57.890       30.893      -12.166       11.465       10.234        9.104      131.441      104.740       82.881        0.239        0.016       65.618        6.046        0.008      337.236        9.076      855.876
05/07/2014  04:08:00      -62.602       29.404       -6.855       34.270       26.213       18.105     1174.450      687.113      327.790        0.351        0.109       69.163       22.495        0.106      337.207        9.028      855.875
05/07/2014  04:09:00     -100.027       76.432      -24.687       21.668       22.684       14.788      469.508      514.582      218.682        0.883        0.060      125.886       13.158        0.011      337.187        8.993      855.879
05/07/2014  04:10:00      -65.660       72.530      -19.393       12.766       14.189       12.260      162.961      201.320      150.315        0.523        0.026       97.835        8.949        0.008      337.268        9.129      855.884
05/07/2014  04:11:00       -4.678       39.645       -5.514       19.398       29.277       14.104      376.282      857.126      198.933        0.153        0.072       39.920       15.284        0.147      337.221        9.051      855.887
05/07/2014  04:12:00       -1.092       97.459       -5.679       20.151       32.006       18.789      406.062     1024.370      353.034        0.566        0.089       97.465       17.220        0.031      337.183        8.985      855.885
05/07/2014  04:13:00      -47.336       99.753      -10.638       30.099       33.495       18.966      905.976     1121.895      359.711        0.735        0.119      110.415       15.466        0.020      337.342        9.252      855.891
05/07/2014  04:14:00      -56.095       82.132      -10.441       40.690       27.072       23.315     1655.667      732.916      543.606        0.647        0.147       99.460       19.398        0.038      337.229        9.062      855.904
05/07/2014  04:15:00     -102.411       68.980      -19.956       32.158       38.419       18.705     1034.166     1475.984      349.869        0.925        0.143      123.476       18.044        0.021      337.214        9.037      855.904
05/07/2014  04:16:00     -109.279       81.143      -25.799       21.517       35.004       19.202      462.987     1225.278      368.712        1.062        0.103      136.110       11.048        0.007      337.253        9.103      855.897
05/07/2014  04:17:00      -81.475       53.882      -13.415       23.098       35.424       15.272      533.499     1254.845      233.233        0.587        0.101       97.681       17.784        0.033      337.214        9.038      855.903
05/07/2014  04:18:00      -65.410       28.218      -10.398       23.540       23.367       13.438      554.124      546.017      180.574        0.323        0.064       71.237        9.187        0.017      337.154        8.936      855.892
05/07/2014  04:19:00     -108.834      106.477      -29.213       33.401       58.193       22.536     1115.599     3386.392      507.862        1.452        0.250      152.257       26.112        0.029      337.093        8.834      855.888
05/07/2014  04:20:00      -72.275       94.158      -23.446       28.963       33.058       17.161      838.859     1092.863      294.486        0.843        0.111      118.699       16.636        0.020      337.078        8.808      855.881
05/07/2014  04:21:00      -64.652       50.098      -18.896       24.210       28.785       17.678      586.112      828.567      312.514        0.439        0.086       81.791       16.906        0.043      337.078        8.809      855.870
05/07/2014  04:22:00      -40.415       64.854      -13.467       24.902       24.682       17.314      620.092      609.209      299.760        0.377        0.076       76.416       15.065        0.039      337.118        8.876      855.861
05/07/2014  04:23:00      -25.688       86.472       -8.234       44.352       25.401       15.582     1967.076      645.189      242.787        0.553        0.143       90.207       13.827        0.023      337.116        8.872      855.853
05/07/2014  04:24:00      -64.773       58.801       -9.833       18.879       28.888       18.928      356.401      834.499      358.286        0.465        0.077       87.482       13.459        0.024      337.018        8.708      855.860
05/07/2014  04:25:00      -64.884       78.390      -23.675       25.592       18.302       15.173      654.973      334.967      230.227        0.607        0.061      101.759       14.663        0.021      337.001        8.678      855.871
05/07/2014  04:26:00      -60.805       68.548      -18.621       20.194       24.483       13.612      407.786      599.428      185.291        0.497        0.060       91.630       10.616        0.013      337.034        8.733      855.867
05/07/2014  04:27:00      -59.734       67.873      -12.409       41.593       35.513       15.373     1729.941     1261.201      236.317        0.578        0.161       90.415       12.672        0.020      337.032        8.731      855.870
05/07/2014  04:28:00      -73.886       23.535       -4.053       38.707       28.820       20.003     1498.211      830.613      400.122        0.438        0.136       77.544       23.213        0.090      337.061        8.779      855.873
05/07/2014  04:29:00      -59.267       -8.312        8.365       21.827       18.472       19.148      476.436      341.225      366.637        0.242        0.059       59.847       15.129        0.064      337.048        8.757      855.874
05/07/2014  04:30:00      -33.246       -7.323       -8.081       21.811       14.739        8.674      475.725      217.241       75.246        0.100        0.038       34.043        6.005        0.031      336.993        8.666      855.877
05/07/2014  04:31:00      -37.669       48.045      -13.645       24.361       32.436       14.710      593.443     1052.117      216.390        0.289        0.093       61.051       15.301        0.063      337.123        8.883      855.873
05/07/2014  04:32:00      -17.141       64.985       -5.059       22.956       25.301       13.027      526.978      640.156      169.697        0.294        0.067       67.207        9.597        0.020      337.031        8.730      855.869
05/07/2014  04:33:00      -19.544      101.969       -8.560       14.624       34.914       16.977      213.870     1218.986      288.211        0.629        0.086      103.825       19.858        0.037      337.079        8.809      855.866
05/07/2014  04:34:00      -28.905       86.732      -11.273       21.980       40.688       13.926      483.110     1655.526      193.933        0.541        0.117       91.422        9.601        0.011      337.164        8.954      855.860
05/07/2014  04:35:00       15.007      108.182      -13.820       38.806       36.594       21.197     1505.921     1339.145      449.323        0.771        0.165      109.217       20.978        0.037      336.920        8.545      855.855
05/07/2014  04:36:00       29.533       95.719       -8.848       28.411       39.225       25.427      807.180     1538.586      646.527        0.655        0.150      100.171       23.831        0.057      336.756        8.273      855.850
05/07/2014  04:37:00       25.817      176.088      -27.304       37.323       58.382       28.417     1393.011     3408.500      807.543        1.901        0.280      177.971       27.416        0.024      336.643        8.083      855.848
05/07/2014  04:38:00        6.462      132.053      -12.410       48.096       57.222       29.248     2313.250     3274.309      855.430        1.204        0.322      132.211       32.492        0.060      336.555        7.937      855.844
05/07/2014  04:39:00      -38.258      191.181      -23.756       38.428       53.063       28.007     1476.698     2815.683      784.399        2.183        0.254      194.971       24.039        0.015      336.670        8.129      855.850
05/07/2014  04:40:00      -74.269       96.507      -15.267       62.763       58.352       32.487     3939.153     3404.934     1055.385        1.173        0.420      121.776       35.125        0.083      336.726        8.221      855.850
05/07/2014  04:41:00      -92.573      120.562      -26.923       37.419       60.922       31.005     1400.153     3711.496      961.318        1.495        0.304      152.003       18.594        0.015      336.705        8.186      855.838
05/07/2014  04:42:00      -92.656       54.466      -29.316       36.054       37.710       24.413     1299.910     1422.064      596.007        0.786        0.166      107.479       19.595        0.033      336.720        8.212      855.827
05/07/2014  04:43:00      -46.942       40.655      -11.796       33.012       34.196       24.518     1089.768     1169.354      601.136        0.343        0.143       62.100       12.960        0.044      336.764        8.284      855.819
05/07/2014  04:44:00      -17.707       38.345       17.590       24.255       27.879       17.754      588.306      777.224      315.213        0.189        0.084       42.236       17.053        0.163      336.722        8.215      855.818
05/07/2014  04:45:00      -15.236      -27.284       -0.516       48.675       18.389       12.227     2369.282      338.139      149.511        0.192        0.143       31.250        7.644        0.060      336.718        8.208      855.820
05/07/2014  04:46:00      -21.719      -31.220        2.304       42.663       21.029       16.762     1820.097      442.219      280.952        0.200        0.127       38.031       15.486        0.166      336.763        8.285      855.823
05/07/2014  04:47:00      -25.465      -30.304        4.064       35.104       25.542       16.083     1232.290      652.410      258.661        0.186        0.107       39.583       12.033        0.092      336.796        8.338      855.816
05/07/2014  04:48:00        7.537      -19.906       14.082       28.575       20.801       12.822      816.517      432.667      164.404        0.103        0.071       21.286       11.655        0.300      336.711        8.198      855.818
05/07/2014  04:49:00     -126.061      -28.286       -9.157       21.446       22.445       20.180      459.913      503.756      407.247        0.907        0.069      129.195       12.678        0.010      336.645        8.086      855.822
05/07/2014  04:50:00      -46.935      -25.574       -0.471       39.796       17.320       18.019     1583.707      299.984      324.702        0.253        0.110       53.450       16.116        0.091      336.658        8.110      855.834
05/07/2014  04:51:00      -25.351      -14.380       10.474       29.214       15.354       16.060      853.468      235.759      257.912        0.115        0.067       29.145       17.796        0.373      336.670        8.129      855.835
05/07/2014  04:52:00      -43.813       -3.230       -3.019       21.739       24.788       11.576      472.577      614.444      134.011        0.158        0.061       43.932        5.580        0.016      336.644        8.085      855.839
05/07/2014  04:53:00      -49.293       -4.349       -0.238       22.215       18.368       12.231      493.497      337.370      149.604        0.171        0.049       49.485        9.513        0.037      336.602        8.015      855.838
05/07/2014  04:54:00      -64.949        9.084       -2.022       28.372       16.523       16.773      804.975      272.998      281.344        0.283        0.068       65.581       17.114        0.068      336.500        7.845      855.838
05/07/2014  04:55:00      -51.182       -3.073      -15.922       20.103       11.845       12.157      404.114      140.301      147.797        0.179        0.035       51.275       12.081        0.056      336.644        8.083      855.841
05/07/2014  04:56:00      -12.564       -5.654      -15.204       20.540       19.913       15.044      421.883      396.539      226.307        0.073        0.052       13.777        7.692        0.312      336.605        8.020      855.849
05/07/2014  04:57:00        6.317       49.211       -4.456       32.998       28.576       16.947     1088.895      816.568      287.204        0.234        0.110       49.615       14.021        0.080      336.603        8.017      855.865
05/07/2014  04:58:00       -8.790       22.896       13.889       41.122       18.723       14.802     1690.996      350.540      219.110        0.153        0.113       24.525       17.258        0.495      336.534        7.901      855.864
05/07/2014  04:59:00       13.799       71.264      -10.302       36.336       31.626       24.186     1320.280     1000.185      584.977        0.414        0.145       72.587       25.318        0.122      336.532        7.897      855.859
05/07/2014  05:00:00       12.889       64.761       -3.043       23.269       36.606       17.438      541.425     1339.977      304.079        0.328        0.109       66.031       14.438        0.048      336.480        7.809      855.854
05/07/2014  05:01:00        4.793       72.419       -8.967       33.290       19.464       12.595     1108.193      378.862      158.636        0.350        0.082       72.577       10.600        0.021      336.502        7.848      855.852
05/07/2014  05:02:00        1.627      119.345      -20.318       48.418       54.867       20.820     2344.332     3010.403      433.484        1.022        0.289      119.356       11.825        0.010      336.463        7.782      855.857
05/07/2014  05:03:00       -2.668      195.117      -27.660       39.729       55.867       25.586     1578.400     3121.068      654.657        2.210        0.268      195.135       26.646        0.019      336.435        7.732      855.855
05/07/2014  05:04:00      -14.483      216.733      -25.470       33.815       52.698       22.756     1143.465     2777.114      517.823        2.613        0.222      217.217       13.731        0.004      336.465        7.782      855.863
05/07/2014  05:05:00       -4.492      191.998      -27.445       44.349       50.877       23.802     1966.865     2588.461      566.553        2.138        0.256      192.050       22.099        0.013      336.428        7.721      855.858
05/07/2014  05:06:00      -18.891      193.097      -23.876       55.120       56.746       38.428     3038.174     3220.134     1476.727        2.297        0.387      194.019       34.064        0.031      336.368        7.619      855.862
05/07/2014  05:07:00      -20.014      179.681      -18.869       29.221       54.382       23.295      853.867     2957.431      542.642        1.870        0.218      180.793       21.795        0.015      336.397        7.670      855.869
05/07/2014  05:08:00       -2.825      195.720      -14.897       56.430       87.857       43.555     3184.388     7718.896     1897.036        2.567        0.640      195.740       47.455        0.059      336.336        7.566      855.863
05/07/2014  05:09:00      -51.576      152.487      -16.094       38.831       90.289       26.023     1507.867     8152.098      677.204        1.825        0.517      160.973       30.809        0.037      336.382        7.645      855.868
05/07/2014  05:10:00      -66.991      136.272      -23.169       49.268       62.411       32.317     2427.288     3895.120     1044.377        1.548        0.368      151.848       35.518        0.055      336.360        7.608      855.878
05/07/2014  05:11:00      -63.023       84.251       -6.368       67.194       48.236       26.632     4515.022     2326.679      709.245        0.933        0.378      105.215       17.455        0.028      336.368        7.621      855.878
05/07/2014  05:12:00      -37.785       48.550       -7.158       34.613       31.180       18.795     1198.030      972.188      353.243        0.318        0.126       61.521       13.893        0.051      336.377        7.638      855.874
05/07/2014  05:13:00      -90.671      100.879      -24.025       50.425       43.154       30.882     2542.683     1862.242      953.678        1.217        0.268      135.638       32.500        0.057      336.324        7.549      855.877
05/07/2014  05:14:00     -143.159       69.973      -21.709       42.344       48.712       28.173     1792.977     2372.863      793.703        1.541        0.248      159.345       19.286        0.015      336.312        7.530      855.879
05/07/2014  05:15:00      -78.263       29.795       -5.418       40.203       45.677       22.088     1616.273     2086.350      487.898        0.562        0.210       83.743       15.753        0.035      336.357        7.604      855.870
05/07/2014  05:16:00      -93.128       85.605      -20.028       34.647       46.897       25.685     1200.398     2199.342      659.738        1.023        0.203      126.495       24.616        0.038      336.308        7.523      855.886
05/07/2014  05:17:00     -129.589       67.884      -26.467       38.744       48.536       27.146     1501.130     2355.719      736.882        1.335        0.230      146.292       16.505        0.013      336.335        7.566      855.912
05/07/2014  05:18:00      -37.874       24.988       -1.347       28.658       42.115       19.589      821.292     1773.651      383.720        0.252        0.149       45.374       17.015        0.141      336.340        7.575      855.914
05/07/2014  05:19:00      -87.166       83.281      -20.126       41.391       35.622       22.622     1713.220     1268.903      511.749        0.922        0.175      120.555       21.265        0.031      336.299        7.508      855.925
05/07/2014  05:20:00     -126.286       95.529      -10.984       76.689       56.085       45.567     5881.265     3145.567     2076.328        1.815        0.555      158.347       37.321        0.056      336.334        7.565      855.942
05/07/2014  05:21:00      -87.797      102.494      -13.556       69.317       66.377       42.998     4804.833     4405.933     1848.837        1.473        0.553      134.957       50.728        0.141      336.337        7.570      855.941
05/07/2014  05:22:00      -97.279      112.522      -17.248       39.965       54.928       29.884     1597.222     3017.044      893.050        1.396        0.275      148.742       28.333        0.036      336.310        7.524      855.939
05/07/2014  05:23:00     -118.407      110.511      -28.058       47.525       70.835       31.871     2258.609     5017.643     1015.770        1.765        0.415      161.966       30.295        0.035      336.358        7.604      855.949
05/07/2014  05:24:00      -50.478       97.011      -10.934       41.245       59.631       31.293     1701.183     3555.866      979.257        0.916        0.312      109.358       32.422        0.088      336.348        7.590      855.957
05/07/2014  05:25:00     -100.709      143.716      -23.629       73.652       99.914       43.621     5424.556     9982.794     1902.797        2.433        0.866      175.490       47.899        0.074      336.440        7.740      855.965
05/07/2014  05:26:00     -115.755      216.481      -26.595       75.242       95.198       46.174     5661.300     9062.703     2132.014        3.891        0.843      245.486       35.723        0.021      336.495        7.830      855.977
05/07/2014  05:27:00     -140.632      167.046      -42.213       66.378       60.722       32.825     4406.071     3687.157     1077.509        2.932        0.459      218.362       31.423        0.021      336.508        7.854      855.997
05/07/2014  05:28:00      -98.512       84.100      -12.357       53.356       63.304       29.378     2846.909     4007.454      863.080        1.232        0.386      129.528       24.181        0.035      336.500        7.844      855.996
05/07/2014  05:29:00      -83.302       15.348       -8.199       37.328       54.135       27.555     1393.386     2930.643      759.287        0.616        0.254       84.704       19.146        0.051      336.444        7.750      855.990
05/07/2014  05:30:00     -124.984       33.387      -24.769       31.685       45.591       29.325     1003.933     2078.570      859.949        1.065        0.197      129.367       20.142        0.024      336.480        7.811      855.994
05/07/2014  05:31:00     -169.061       55.964      -30.910       68.247       59.079       37.037     4657.717     3490.315     1371.718        2.109        0.476      178.083       35.186        0.039      336.407        7.686      856.008
05/07/2014  05:32:00     -133.134       49.168      -19.160       79.046       53.835       42.831     6248.222     2898.178     1834.473        1.574        0.549      141.923       27.096        0.036      336.333        7.561      856.016
05/07/2014  05:33:00      -89.566       58.428      -20.284       50.181       39.844       21.702     2518.094     1587.565      470.969        0.821        0.229      106.939       20.625        0.037      336.326        7.551      856.011
05/07/2014  05:34:00      -74.123      -13.538       -7.428       36.801       24.991       20.976     1354.318      624.530      439.991        0.408        0.121       75.349       18.563        0.061      336.252        7.429      856.018
05/07/2014  05:35:00      -46.772       13.086       -8.655       27.544       67.037       24.225      758.691     4493.955      586.836        0.414        0.292       48.569       30.169        0.386      336.297        7.504      856.009
05/07/2014  05:36:00      -83.503       73.480      -26.516       27.673       46.476       26.080      765.805     2160.031      680.152        0.834        0.180      111.230       22.290        0.040      336.276        7.469      856.009
05/07/2014  05:37:00      -76.105       63.863      -18.484       36.165       44.064       23.802     1307.881     1941.628      566.556        0.701        0.191       99.350       16.351        0.027      336.168        7.288      856.009
05/07/2014  05:38:00      -74.961       66.432      -15.549       33.002       44.053       22.803     1089.129     1940.656      519.962        0.691        0.177      100.162       21.947        0.048      336.163        7.281      856.003
05/07/2014  05:39:00      -89.288       89.193      -22.561       32.048       44.349       25.280     1027.095     1966.796      639.091        1.003        0.182      126.205       22.193        0.031      336.172        7.296      856.004
05/07/2014  05:40:00     -108.855       56.157      -21.340       31.635       39.796       23.171     1000.762     1583.686      536.909        0.929        0.156      122.486       17.289        0.020      336.149        7.257      855.994
05/07/2014  05:41:00      -53.918       64.480      -13.571       29.699       37.098       19.254      882.040     1376.292      370.733        0.494        0.131       84.052       15.592        0.034      336.110        7.193      856.004
05/07/2014  05:42:00      -64.415      100.411      -16.213       44.786       51.423       25.801     2005.829     2644.302      665.716        0.990        0.266      119.297       27.701        0.054      336.189        7.323      856.009
05/07/2014  05:43:00      -24.700       53.467        7.565       60.376       36.322       31.809     3645.237     1319.267     1011.832        0.475        0.299       58.897       38.184        0.420      336.171        7.293      856.012
05/07/2014  05:44:00      -85.896      105.197      -25.246       42.437       67.011       31.783     1800.930     4490.489     1010.166        1.319        0.365      135.811       36.365        0.072      336.172        7.296      855.997
05/07/2014  05:45:00      -71.194       98.655      -17.072       52.605       50.424       33.186     2767.324     2542.558     1101.282        1.075        0.321      121.661       37.475        0.095      336.122        7.212      855.998
05/07/2014  05:46:00      -58.924      177.387      -16.223       45.882       72.204       35.701     2105.132     5213.394     1274.547        2.190        0.430      186.918       32.131        0.030      336.170        7.289      855.990
05/07/2014  05:47:00      -33.242      114.746       -1.303       34.762       50.142       25.537     1208.403     2514.251      652.122        0.932        0.219      119.464       25.921        0.047      336.171        7.293      855.979
05/07/2014  05:48:00      -23.244      112.576      -16.965       38.850       58.828       23.204     1509.351     3460.733      538.415        0.950        0.275      114.951       24.465        0.045      336.209        7.357      855.957
05/07/2014  05:49:00     -139.748       70.572      -24.317       63.651       67.798       35.095     4051.438     4596.566     1231.648        1.749        0.494      156.557       32.775        0.044      336.159        7.273      855.945
05/07/2014  05:50:00      -82.855       34.922      -15.199       42.373       51.123       26.502     1795.486     2613.578      702.358        0.671        0.256       89.914       19.081        0.045      336.158        7.271      855.950
05/07/2014  05:51:00      -50.225       64.817      -23.347       52.319       68.397       30.824     2737.243     4678.184      950.138        0.782        0.418       81.998       23.266        0.081      336.154        7.265      855.966
05/07/2014  05:52:00      -88.261       66.389      -20.619       68.017       64.326       36.162     4626.329     4137.885     1307.703        1.135        0.504      110.442       26.281        0.057      336.131        7.227      855.986
05/07/2014  05:53:00     -149.608      118.008      -15.200       74.118       95.541       43.014     5493.543     9128.046     1850.164        2.650        0.824      190.547       36.267        0.036      336.137        7.234      856.009
05/07/2014  05:54:00      -67.811      115.134      -16.127       59.171       75.983       41.651     3501.211     5773.434     1734.781        1.456        0.550      133.620       24.996        0.035      336.127        7.220      856.022
05/07/2014  05:55:00     -145.310      -31.288      -13.876       63.561       45.256       32.762     4039.951     2048.147     1073.363        1.472        0.358      148.641       30.625        0.042      336.125        7.217      856.037
05/07/2014  05:56:00     -148.552       -1.010       -5.501       55.551       66.247       39.401     3085.881     4388.622     1552.410        1.556        0.451      148.555       20.762        0.020      336.124        7.213      856.060
05/07/2014  05:57:00      -93.131      -42.424       -8.185       36.134       47.426       25.921     1305.652     2249.210      671.891        0.738        0.211      102.338       20.649        0.041      336.095        7.166      856.082
05/07/2014  05:58:00       -5.582       70.740        2.898       41.328       90.660       28.678     1707.992     8219.171      822.419        0.789        0.537       70.960       25.236        0.126      336.135        7.233      856.091
05/07/2014  05:59:00      -16.315      -48.252        6.287       45.396       49.018       32.449     2060.781     2402.732     1052.958        0.407        0.276       50.936       32.762        0.414      335.978        6.972      856.096
05/07/2014  06:00:00      -59.353      -53.320        3.089       43.609       26.874       22.240     1901.766      722.204      494.627        0.475        0.156       79.786       24.167        0.092      335.829        6.723      856.120
05/07/2014  06:01:00     -118.516      -68.868       -7.948       62.906       37.174       23.546     3957.168     1381.916      554.407        1.237        0.295      137.072       20.111        0.022      335.741        6.578      856.132
05/07/2014  06:02:00      -54.218      -50.674       20.658       84.105       41.342       39.420     7073.710     1709.131     1553.906        0.813        0.517       74.212       40.745        0.301      335.616        6.369      856.143
05/07/2014  06:03:00      -80.116      -79.950       -1.497       83.196       58.831       40.275     6921.508     3461.057     1622.052        1.241        0.600      113.184       32.813        0.084      335.598        6.337      856.153
05/07/2014  06:04:00      -95.398      -35.522        0.239       72.712       60.201       36.290     5287.077     3624.204     1316.981        1.029        0.511      101.797       38.450        0.143      335.619        6.374      856.152
05/07/2014  06:05:00     -123.894      -67.542        8.140       93.372       71.179       45.559     8718.335     5066.469     2075.578        1.792        0.793      141.109       55.050        0.152      335.639        6.406      856.160
05/07/2014  06:06:00     -114.568      -92.378       -5.129       67.156       44.309       35.305     4509.925     1963.272     1246.426        1.470        0.386      147.172       33.132        0.051      335.701        6.510      856.161
05/07/2014  06:07:00      -75.341      -58.754       14.460       76.196       70.326       42.001     5805.806     4945.759     1764.070        1.092        0.626       95.542       41.586        0.189      335.715        6.535      856.162
05/07/2014  06:08:00      -91.447      -54.809        2.599       78.133       71.347       34.610     6104.759     5090.443     1197.884        1.188        0.620      106.614       27.865        0.068      335.777        6.636      856.171
05/07/2014  06:09:00     -152.647      -66.578      -12.845       57.088       52.972       35.724     3259.049     2806.041     1276.186        1.762        0.367      166.535       31.621        0.036      335.869        6.788      856.179
05/07/2014  06:10:00     -108.305      -50.069        7.196       98.685       58.056       43.929     9738.660     3370.483     1929.799        1.466        0.752      119.319       47.486        0.158      335.845        6.749      856.178
05/07/2014  06:11:00      -80.734      -54.687       12.771       84.850       50.257       36.140     7199.548     2525.738     1306.132        1.035        0.552       97.512       47.871        0.241      335.876        6.801      856.183
05/07/2014  06:12:00     -126.880      -24.722        6.407       84.027       61.284       36.284     7060.464     3755.763     1316.536        1.444        0.607      129.266       38.805        0.090      335.926        6.883      856.197
05/07/2014  06:13:00     -129.629      -56.979       -2.661       79.234       58.232       36.421     6278.102     3390.965     1326.475        1.552        0.550      141.599       39.693        0.079      335.883        6.814      856.210
05/07/2014  06:14:00      -73.714      -18.222        5.479       53.394       44.856       23.047     2850.878     2012.078      531.155        0.559        0.270       75.933       26.862        0.125      335.906        6.851      856.211
05/07/2014  06:15:00      -70.721       26.427        8.177       74.376       45.903       32.632     5531.846     2107.103     1064.869        0.723        0.435       75.497       37.285        0.244      335.941        6.910      856.214
05/07/2014  06:16:00     -136.687      -36.214       -3.181       62.165       78.658       34.893     3864.435     6187.133     1217.508        1.563        0.563      141.403       31.427        0.049      335.972        6.960      856.232
05/07/2014  06:17:00     -167.317       -7.710       -8.577       74.597       46.502       25.165     5564.775     2162.430      633.258        1.824        0.418      167.494       23.417        0.020      335.956        6.932      856.239
05/07/2014  06:18:00     -170.980       16.362       -8.238       54.650       45.681       22.402     2986.649     2086.791      501.870        1.757        0.279      171.761       17.445        0.010      335.926        6.883      856.248
05/07/2014  06:19:00     -131.500      -39.364       -7.962       66.506       56.188       29.002     4423.013     3157.036      841.129        1.366        0.421      137.265       29.348        0.046      335.957        6.937      856.249
05/07/2014  06:20:00     -217.941      -53.872       -8.038       56.491       56.831       37.245     3191.202     3229.745     1387.176        2.914        0.390      224.501       29.684        0.017      335.995        6.996      856.247
05/07/2014  06:21:00     -165.274      -80.435       -9.103       70.727       48.905       31.792     5002.360     2391.660     1010.732        2.113        0.420      183.808       28.857        0.025      335.973        6.962      856.244
05/07/2014  06:22:00     -163.600      -67.450      -16.175       56.182       59.740       27.525     3156.363     3568.881      757.610        1.953        0.374      176.959       22.243        0.016      336.012        7.026      856.249
05/07/2014  06:23:00     -232.904      -75.600      -10.679       68.535       82.682       43.312     4697.043     6836.310     1875.938        3.674        0.670      244.867       32.786        0.018      335.951        6.923      856.256
05/07/2014  06:24:00     -163.193      -53.365       -2.299       73.875       65.346       37.170     5457.581     4270.092     1381.589        2.029        0.555      171.697       29.459        0.029      335.932        6.892      856.272
05/07/2014  06:25:00     -128.106      -30.301       -6.255       56.709       69.350       35.387     3215.921     4809.482     1252.274        1.332        0.464      131.641       32.567        0.061      335.990        6.992      856.281
05/07/2014  06:26:00      -93.253      -33.400        4.766       93.411       56.972       37.296     8725.597     3245.771     1390.974        1.160        0.668       99.054       46.960        0.225      336.009        7.021      856.300
05/07/2014  06:27:00     -108.383      -38.909       -4.318       64.942       64.453       33.833     4217.423     4154.169     1144.684        1.140        0.476      115.156       24.865        0.047      335.978        6.973      856.320
05/07/2014  06:28:00      -44.059       -6.641        5.102       47.780       43.785       28.301     2282.913     1917.139      800.932        0.351        0.250       44.557       22.419        0.253      336.033        7.062      856.344
05/07/2014  06:29:00     -102.419        1.222       -9.616       62.511       43.646       27.524     3907.618     1904.953      757.582        0.858        0.329      102.426       29.262        0.082      336.074        7.132      856.355
05/07/2014  06:30:00     -123.353      -41.608      -15.934       52.868       62.494       39.819     2795.035     3905.500     1585.569        1.274        0.414      130.181       31.110        0.057      336.038        7.069      856.365
05/07/2014  06:31:00     -110.824       -6.860        0.162       46.806       54.998       25.499     2190.793     3024.748      650.190        0.910        0.293      111.036       20.510        0.034      335.995        6.999      856.375
05/07/2014  06:32:00     -107.902        5.753       -1.376       42.253       38.534       26.761     1785.344     1484.861      716.167        0.783        0.199      108.055       24.650        0.052      335.998        7.002      856.391
05/07/2014  06:33:00      -83.653       11.796       -7.250       24.638       26.257       18.888      607.035      689.435      356.762        0.442        0.083       84.481        8.460        0.010      336.007        7.020      856.408
05/07/2014  06:34:00       -9.877      -22.401       -4.290       21.096       17.315        8.309      445.022      299.820       69.048        0.072        0.041       24.482        6.874        0.079      336.101        7.176      856.419
05/07/2014  06:35:00      -42.134      -35.312        0.682       34.397       33.797       20.326     1183.151     1142.237      413.166        0.288        0.137       54.974       16.003        0.085      336.097        7.168      856.443
05/07/2014  06:36:00      -57.295      -42.583       -6.073       31.316       35.855       20.251      980.698     1285.565      410.088        0.390        0.134       71.386       12.434        0.030      336.137        7.235      856.450
05/07/2014  06:37:00      -59.450      -68.486       -2.163       31.536       44.382       25.174      994.545     1969.763      633.750        0.591        0.180       90.690       12.023        0.018      336.110        7.191      856.455
05/07/2014  06:38:00      -42.720      -61.820       -1.286       45.704       27.648       17.336     2088.901      764.428      300.541        0.440        0.158       75.144       11.525        0.024      336.153        7.264      856.467
05/07/2014  06:39:00     -141.669      -43.518       -2.382       52.475       31.631       22.897     2753.677     1000.544      524.258        1.312        0.214      148.202       24.120        0.026      336.059        7.105      856.486
05/07/2014  06:40:00     -100.391      -51.743       -0.973       33.605       28.554       22.390     1129.278      815.304      501.332        0.760        0.122      112.941       16.080        0.020      336.028        7.054      856.499
05/07/2014  06:41:00     -107.146      -25.583       -8.144       27.530       22.515       15.615      757.888      506.947      243.820        0.685        0.075      110.158       15.971        0.021      336.064        7.111      856.513
05/07/2014  06:42:00      -82.520      -62.509        7.415       68.593       49.980       28.123     4705.058     2497.958      790.918        0.938        0.400      103.523       27.981        0.073      336.090        7.157      856.535
05/07/2014  06:43:00     -113.365      -40.510        0.865       46.421       35.366       25.873     2154.948     1250.732      669.400        0.928        0.204      120.386       25.826        0.046      336.078        7.135      856.551
05/07/2014  06:44:00      -73.045      -47.141       -8.717       40.097       26.601       19.937     1607.792      707.629      397.499        0.517        0.136       86.936       17.183        0.039      336.076        7.136      856.561
05/07/2014  06:45:00      -63.358      -27.971       -1.834       55.143       25.752       17.680     3040.722      663.157      312.584        0.441        0.201       69.257       20.013        0.084      336.135        7.233      856.571
05/07/2014  06:46:00      -84.311      -48.605        0.300       50.716       30.840       26.671     2572.064      951.113      711.350        0.685        0.212       97.318       29.311        0.091      336.108        7.189      856.589
05/07/2014  06:47:00      -77.686      -56.672        0.497       33.415       27.492       20.262     1116.549      755.804      410.554        0.576        0.114       96.160       11.116        0.013      336.104        7.183      856.598
05/07/2014  06:48:00     -104.246      -60.071        0.448       48.273       23.465       20.716     2330.309      550.588      429.139        0.889        0.166      120.315       18.042        0.022      336.153        7.264      856.592
05/07/2014  06:49:00      -89.143      -51.528        1.518       56.871       39.404       28.034     3234.321     1552.680      785.884        0.809        0.279      102.964       17.753        0.030      336.165        7.283      856.605
05/07/2014  06:50:00      -92.790      -57.615       12.051       46.059       41.606       25.508     2121.473     1731.085      650.645        0.829        0.225      109.222       23.428        0.046      336.206        7.353      856.622
05/07/2014  06:51:00      -80.057      -76.715       10.169       70.698       59.363       33.670     4998.257     3524.020     1133.665        1.102        0.483      110.880       35.650        0.103      336.231        7.393      856.626
05/07/2014  06:52:00      -95.548      -94.049        5.134       73.045       49.390       36.769     5335.569     2439.371     1351.955        1.356        0.456      134.069       38.166        0.081      336.212        7.360      856.632
05/07/2014  06:53:00      -55.212      -56.725       14.791       54.330       36.959       30.621     2951.711     1365.988      937.651        0.587        0.263       79.158       29.673        0.141      336.297        7.504      856.643
05/07/2014  06:54:00     -124.234      -56.221       -4.391       62.697       28.862       26.244     3930.939      833.033      688.738        1.203        0.273      136.363       24.066        0.031      336.262        7.446      856.650
05/07/2014  06:55:00     -137.846      -38.962       -4.838       40.289       46.848       27.202     1623.172     2194.756      739.925        1.255        0.228      143.247       22.045        0.024      336.246        7.420      856.649
05/07/2014  06:56:00     -119.275      -64.287        1.718       66.244       43.655       27.760     4388.252     1905.723      770.600        1.271        0.353      135.496       27.754        0.042      336.259        7.441      856.661
05/07/2014  06:57:00      -91.216      -86.572        0.892       57.114       39.316       22.747     3262.051     1545.736      517.406        1.057        0.266      125.758       24.483        0.038      336.278        7.473      856.668
05/07/2014  06:58:00      -82.488      -79.291       -3.114       47.073       34.220       19.480     2215.865     1171.009      379.482        0.843        0.188      114.417       21.210        0.034      336.262        7.445      856.671
05/07/2014  06:59:00      -78.253      -62.667       15.081       58.661       34.924       25.433     3441.109     1219.667      646.855        0.779        0.265      100.253       28.892        0.083      336.312        7.529      856.683
05/07/2014  07:00:00      -75.172      -62.496        5.367       73.356       51.470       32.242     5381.110     2649.199     1039.534        0.933        0.453       97.758       35.553        0.132      336.369        7.625      856.697
05/07/2014  07:01:00     -127.939      -51.078       -0.470       86.942       47.066       30.301     7558.876     2215.197      918.129        1.483        0.535      137.758       36.740        0.071      336.267        7.452      856.708
05/07/2014  07:02:00      -59.362      -36.242       -3.371       65.227       34.828       28.898     4254.594     1212.962      835.107        0.557        0.315       69.551       35.687        0.263      336.329        7.557      856.722
05/07/2014  07:03:00      -57.849      -31.246       14.557       66.095       40.036       31.556     4368.576     1602.901      995.762        0.575        0.348       65.748       28.054        0.182      336.372        7.629      856.719
05/07/2014  07:04:00     -133.621      -55.599        3.233       77.848       71.904       41.292     6060.307     5170.177     1705.049        1.694        0.647      144.727       32.516        0.050      336.315        7.534      856.728
05/07/2014  07:05:00     -138.427      -21.689      -15.029       40.365       55.605       32.946     1629.303     3091.961     1085.453        1.283        0.290      140.116       23.410        0.028      336.306        7.520      856.727
05/07/2014  07:06:00     -134.406      -48.937       -4.083       67.942       48.407       30.141     4616.088     2343.237      908.482        1.417        0.393      143.038       34.675        0.059      336.332        7.563      856.745
05/07/2014  07:07:00     -144.814       39.756      -18.869       51.723       48.587       35.514     2675.244     2360.734     1261.267        1.460        0.315      150.172       32.175        0.046      336.243        7.413      856.768
05/07/2014  07:08:00      -83.195       26.876      -15.944       26.471       16.945       18.437      700.696      287.135      339.941        0.461        0.066       87.428       16.746        0.037      336.317        7.537      856.785
05/07/2014  07:09:00     -112.623       14.746       -9.506       53.547       33.196       23.019     2867.232     1101.988      529.881        0.874        0.225      113.584       23.989        0.045      336.360        7.608      856.781
05/07/2014  07:10:00     -144.417      -77.426       -5.101       61.551       49.938       26.634     3788.475     2493.801      709.353        1.693        0.350      163.863       29.848        0.033      336.314        7.531      856.783
05/07/2014  07:11:00     -135.006      -45.862        0.004       46.920       43.100       27.000     2201.485     1857.598      729.026        1.256        0.239      142.583       21.685        0.023      336.371        7.627      856.775
05/07/2014  07:12:00     -120.446      -12.176       -6.009       43.580       43.162       23.641     1899.207     1862.927      558.898        0.951        0.216      121.060       24.371        0.041      336.400        7.676      856.780
05/07/2014  07:13:00      -53.609      -25.900        1.025       41.429       30.470       22.076     1716.394      928.410      487.364        0.334        0.157       59.538       17.963        0.091      336.438        7.739      856.779
05/07/2014  07:14:00      -24.966       25.819       -2.631       36.876       26.219       20.941     1359.813      687.455      438.521        0.189        0.124       35.916       19.177        0.285      336.627        8.055      856.770
05/07/2014  07:15:00      -68.043        5.150       -3.394       31.132       36.887       20.710      969.231     1360.641      428.919        0.371        0.138       68.238       16.590        0.059      336.527        7.889      856.770
05/07/2014  07:16:00     -106.832       24.358      -13.325       39.200       27.914       18.487     1536.606      779.175      341.766        0.742        0.133      109.573       22.371        0.042      336.425        7.717      856.760
05/07/2014  07:17:00     -119.954        0.758      -13.303       35.911       39.088       21.609     1289.589     1527.864      466.935        0.892        0.164      119.957       18.077        0.023      336.399        7.674      856.748
05/07/2014  07:18:00      -94.657      -25.858       -1.161       57.929       46.383       25.014     3355.723     2151.341      625.704        0.788        0.307       98.125       29.907        0.093      336.477        7.805      856.735
05/07/2014  07:19:00     -141.743       -7.347      -17.149       24.119       46.128       22.854      581.736     2127.803      522.317        1.183        0.162      141.933       17.907        0.016      336.412        7.694      856.723
05/07/2014  07:20:00      -35.727       11.084        2.073       26.722       31.554       27.708      714.082      995.676      767.724        0.194        0.124       37.407       21.733        0.338      336.730        8.228      856.718
05/07/2014  07:21:00      -65.423        4.243      -12.424       35.900       20.950       18.435     1288.806      438.914      339.856        0.326        0.103       65.560       14.525        0.049      336.508        7.855      856.722
05/07/2014  07:22:00      -36.881      -13.209        1.193       19.591       14.993       13.371      383.789      224.800      178.796        0.116        0.039       39.175       12.241        0.098      336.535        7.902      856.732
05/07/2014  07:23:00       -3.219      -19.435        5.003        7.073        9.459       15.512       50.023       89.468      240.607        0.040        0.019       19.700        8.113        0.170      336.697        8.174      856.749
05/07/2014  07:24:00      -21.124        9.905       22.788       22.180       20.695       15.270      491.947      428.301      233.184        0.111        0.058       23.331       15.247        0.427      337.104        8.853      856.766
05/07/2014  07:25:00      -28.238        1.919       22.551       20.723       20.734       14.670      429.448      429.901      215.216        0.119        0.054       28.303       14.399        0.259      336.986        8.657      856.769
05/07/2014  07:26:00      -28.554       -6.387       18.936       23.455       10.886       15.821      550.160      118.496      250.309        0.107        0.046       29.260       11.571        0.156      337.160        8.948      856.778
05/07/2014  07:27:00        9.424       17.391       30.914       27.811       28.552       14.845      773.476      815.210      220.377        0.158        0.090       19.780       19.447        0.967      337.047        8.758      856.776
05/07/2014  07:28:00       11.134       39.981       24.530       29.463       27.608       26.056      868.065      762.220      678.908        0.232        0.115       41.503       14.605        0.124      337.060        8.779      856.771
05/07/2014  07:29:00       25.159       27.223       34.338       34.575       37.111       26.915     1195.402     1377.258      724.397        0.292        0.165       37.068       21.266        0.329      337.203        9.019      856.771
05/07/2014  07:30:00       25.247       38.566       52.304       34.972       30.657       24.452     1223.044      939.867      597.898        0.381        0.138       46.095       21.833        0.224      337.097        8.841      856.771
05/07/2014  07:31:00       51.254       21.273       24.027       39.052       29.042       36.679     1525.087      843.435     1345.326        0.368        0.186       55.494       31.651        0.325      336.894        8.503      856.776
05/07/2014  07:32:00       83.286       51.168       35.469       48.023       50.031       39.072     2306.216     2503.075     1526.608        0.857        0.317       97.748       32.174        0.108      336.758        8.277      856.780
05/07/2014  07:33:00      122.062       65.282       20.645       36.291       27.900       32.528     1317.023      778.390     1058.054        1.137        0.158      138.422       16.306        0.014      336.579        7.976      856.795
05/07/2014  07:34:00       68.278       47.312       30.704       34.825       27.110       34.294     1212.763      734.932     1176.066        0.548        0.156       83.069       16.272        0.038      336.659        8.110      856.795
05/07/2014  07:35:00       67.476       71.287       42.782       23.387       23.833       32.084      546.950      567.996     1029.380        0.680        0.107       98.157       19.071        0.038      336.652        8.098      856.784
05/07/2014  07:36:00       24.282       25.887       38.299       33.895       28.689       19.403     1148.892      823.081      376.495        0.254        0.117       35.493       14.892        0.176      337.075        8.804      856.791
05/07/2014  07:37:00       12.977       41.666       28.028       26.778       25.163       21.029      717.079      633.172      442.226        0.224        0.090       43.640       11.090        0.065      336.909        8.527      856.785
05/07/2014  07:38:00       30.345       44.743       56.138       31.324       23.783       14.248      981.214      565.655      203.010        0.391        0.087       54.063        5.732        0.011      337.134        8.903      856.782
05/07/2014  07:39:00       -0.662        6.150       31.011       11.878       22.040       11.828      141.078      485.780      139.897        0.088        0.038        6.186        8.972        2.104      337.490        9.500      856.774
05/07/2014  07:40:00        6.336      -41.168       21.692       31.095       49.606       27.464      966.926     2460.792      754.265        0.319        0.209       41.653       22.312        0.287      337.514        9.541      856.771
05/07/2014  07:41:00       25.128      -41.318       15.699       33.776       58.938       31.896     1140.801     3473.684     1017.345        0.411        0.282       48.359       20.702        0.183      337.302        9.183      856.764
05/07/2014  07:42:00        3.958        8.842       27.406       31.277       33.022       22.714      978.225     1090.446      515.908        0.171        0.129        9.688       10.741        1.229      337.538        9.580      856.766
05/07/2014  07:43:00       -1.229       -7.319       24.488       26.422       20.758       16.351      698.143      430.883      267.369        0.103        0.070        7.422       11.174        2.267      337.694        9.843      856.758
05/07/2014  07:44:00       27.380       13.935       54.990       42.788       76.861       52.956     1830.800     5907.647     2804.300        0.725        0.527       30.722       56.835        3.422      337.360        9.281      856.749
05/07/2014  07:45:00       78.681       56.328       54.475       24.460       36.040       42.415      598.272     1298.877     1799.006        0.801        0.185       96.765       28.369        0.086      336.863        8.450      856.734
05/07/2014  07:46:00       89.315       52.489       16.776       33.663       27.690       30.070     1133.179      766.752      904.234        0.691        0.140      103.597       13.490        0.017      336.972        8.631      856.717
05/07/2014  07:47:00       43.003        6.727       33.266       49.399       32.016       24.760     2440.248     1025.043      613.048        0.354        0.204       43.526       13.740        0.100      337.476        9.477      856.704
05/07/2014  07:48:00       28.581       50.007        6.096       23.056       22.008       24.206      531.558      484.347      585.930        0.248        0.080       57.598       14.983        0.068      337.285        9.156      856.701
05/07/2014  07:49:00        6.560       49.302        4.833       25.403       42.233       25.065      645.291     1783.622      628.278        0.278        0.153       49.737       22.574        0.206      337.272        9.136      856.699
05/07/2014  07:50:00       33.573        7.467       32.023       32.330       45.230       35.917     1045.252     2045.781     1290.008        0.329        0.219       34.393       33.734        0.962      337.493        9.504      856.696
05/07/2014  07:51:00       23.671       49.021       74.914       36.671       44.670       44.477     1344.780     1995.387     1978.205        0.695        0.266       54.437       39.049        0.515      337.475        9.473      856.690
05/07/2014  07:52:00       45.594       44.897       20.712       65.480       45.259       45.400     4287.609     2048.348     2061.173        0.646        0.420       63.989       35.609        0.310      337.406        9.358      856.690
05/07/2014  07:53:00       42.089       85.408       74.724       65.783       47.420       42.973     4327.359     2248.653     1846.678        1.153        0.421       95.216       35.621        0.140      337.559        9.614      856.674
05/07/2014  07:54:00      103.364       94.586       25.924       81.245       46.980       74.919     6600.770     2207.087     5612.840        1.736        0.721      140.110       63.538        0.206      337.357        9.276      856.681
05/07/2014  07:55:00      134.619       84.645       -8.641       55.563       44.095       35.456     3087.226     1944.356     1257.111        1.582        0.314      159.019       21.694        0.019      337.315        9.205      856.699
05/07/2014  07:56:00      116.825       51.251       26.645       57.612       35.609       39.933     3319.159     1267.974     1594.627        1.158        0.309      127.573       17.116        0.018      337.404        9.355      856.699
05/07/2014  07:57:00       76.050       42.623       17.884       89.707       60.518       47.627     8047.264     3662.459     2268.349        1.095        0.699       87.180       30.104        0.119      337.545        9.591      856.722
05/07/2014  07:58:00       13.258       65.910       -2.158       51.299       48.447       30.704     2631.570     2347.118      942.761        0.522        0.296       67.230       29.073        0.187      337.491        9.500      856.733
05/07/2014  07:59:00      -89.008      106.219      -18.085       32.796       54.979       28.573     1075.588     3022.682      816.424        1.222        0.246      138.581       29.974        0.047      337.053        8.767      856.735
05/07/2014  08:00:00      -73.564      100.683      -18.567       43.063       39.447       24.929     1854.388     1556.061      621.459        0.996        0.202      124.694       21.851        0.031      337.098        8.842      856.745
05/07/2014  08:01:00      -61.953      149.848      -11.463       57.500       72.333       33.547     3306.269     5232.131     1125.409        1.804        0.483      162.150       36.339        0.050      337.253        9.102      856.744
05/07/2014  08:02:00     -122.014      112.914      -23.986       50.345       42.395       34.467     2534.665     1797.345     1187.999        1.687        0.276      166.244       28.005        0.028      336.995        8.669      856.739
05/07/2014  08:03:00     -105.157       57.443      -12.690       46.392       54.647       28.618     2152.247     2986.269      819.003        1.024        0.298      119.824       26.988        0.051      337.073        8.800      856.740
05/07/2014  08:04:00     -115.552       36.418       -9.600       48.836       35.030       30.017     2384.924     1227.092      901.039        0.964        0.226      121.155       17.325        0.020      337.151        8.931      856.742
05/07/2014  08:05:00       22.178       46.300       11.169       38.263       44.999       33.533     1464.027     2024.904     1124.432        0.369        0.231       51.338       33.341        0.422      337.786        9.996      856.747
05/07/2014  08:06:00       76.902       98.751       -7.535       32.879       51.228       38.685     1081.024     2624.259     1496.561        1.046        0.260      125.163       37.028        0.088      337.191        8.997      856.757
05/07/2014  08:07:00      -37.279        3.565       11.022       69.216       33.169       19.329     4790.833     1100.186      373.628        0.389        0.313       37.449       18.426        0.242      337.277        9.144      856.749
05/07/2014  08:08:00      -15.213      190.440       -8.677       61.679      114.947       50.703     3804.355    13212.836     2570.801        2.808        0.979      191.046       54.332        0.081      337.294        9.168      856.742
05/07/2014  08:09:00      112.685      124.289       -0.777       64.845       67.931       44.565     4204.812     4614.661     1986.021        1.947        0.540      167.767       41.949        0.063      337.219        9.043      856.745
05/07/2014  08:10:00       67.533       45.423       33.736       84.035       41.990       40.824     7061.845     1763.199     1666.632        0.912        0.525       81.388       34.252        0.177      337.648        9.763      856.742
05/07/2014  08:11:00        9.269       45.134        3.953       60.141       58.432       34.019     3616.957     3414.248     1157.267        0.516        0.409       46.076       27.625        0.359      337.768        9.965      856.765
05/07/2014  08:12:00      147.893       97.594       14.629       79.586       67.153       41.891     6333.941     4509.586     1754.856        2.210        0.630      177.192       38.041        0.046      337.651        9.768      856.772
05/07/2014  08:13:00        4.564      190.943      -18.993       56.091      114.833       43.961     3146.159    13186.613     1932.558        2.755        0.913      190.998       53.786        0.079      337.607        9.694      856.771
05/07/2014  08:14:00       -1.366      197.332       -6.221       76.617       70.869       55.803     5870.219     5022.419     3113.950        2.649        0.700      197.336       48.174        0.060      337.661        9.784      856.773
05/07/2014  08:15:00       20.809      252.977      -25.238       56.557       70.299       50.371     3198.729     4941.898     2537.206        3.787        0.534      253.831       41.288        0.026      337.441        9.414      856.774
05/07/2014  08:16:00       62.330      136.899        9.204       70.567       81.983       61.190     4979.732     6721.215     3744.229        1.908        0.772      150.421       60.856        0.164      337.641        9.751      856.766
05/07/2014  08:17:00       19.604      213.983      -12.304       63.918      115.767       69.119     4085.516    13402.099     4777.445        3.429        1.113      214.879       74.018        0.119      337.470        9.463      856.768
05/07/2014  08:18:00      -16.095      208.276      -17.410       69.719       75.405       44.403     4860.698     5685.894     1971.627        2.823        0.626      208.897       49.825        0.057      337.354        9.268      856.756
05/07/2014  08:19:00      -16.445      189.834       -5.693       51.941       68.538       47.426     2697.825     4697.486     2249.218        2.299        0.482      190.545       40.797        0.046      337.787        9.994      856.762
05/07/2014  08:20:00       57.285       83.493       -0.560       72.092       66.166       46.204     5197.298     4377.933     2134.846        1.098        0.586      101.255       28.485        0.079      337.931       10.239      856.764
05/07/2014  08:21:00       68.113      147.385       -6.237       67.483       68.214       54.971     4553.892     4653.151     3021.834        1.931        0.611      162.363       45.681        0.079      337.699        9.848      856.780
05/07/2014  08:22:00       10.022       75.922       16.235       62.270       72.957       37.870     3877.544     5322.776     1434.175        0.838        0.532       76.580       32.767        0.183      337.972       10.309      856.785
05/07/2014  08:23:00       30.680      110.707        7.047       70.520       72.958       56.843     4973.138     5322.939     3231.142        1.338        0.676      114.879       55.778        0.236      337.680        9.818      856.793
05/07/2014  08:24:00      -88.464      140.771       -9.826       73.829       73.704       36.459     5450.665     5432.332     1329.241        1.997        0.611      166.260       30.312        0.033      337.630        9.731      856.804
05/07/2014  08:25:00      -55.756      133.832       -1.490       59.987       87.838       42.760     3598.437     7715.492     1828.414        1.708        0.657      144.982       42.827        0.087      337.904       10.195      856.810
05/07/2014  08:26:00      -64.069       66.973       -7.837       74.152       63.323       37.905     5498.581     4009.857     1436.825        0.980        0.547       92.684       44.170        0.227      337.825       10.060      856.794
05/07/2014  08:27:00       14.530      130.897       10.541       64.814       82.126       44.958     4200.827     6744.697     2021.236        1.521        0.648      131.701       46.385        0.124      337.803       10.023      856.797
05/07/2014  08:28:00       62.131      102.042        2.112       68.444       70.433       50.747     4684.578     4960.866     2575.278        1.325        0.611      119.469       36.409        0.093      337.843       10.090      856.786
05/07/2014  08:29:00       56.267      156.991      -21.283       74.979       84.624       54.336     5621.863     7161.139     2952.443        2.200        0.787      166.770       46.928        0.079      337.591        9.667      856.795
05/07/2014  08:30:00      -58.647      138.161      -14.200       91.202       73.559       53.494     8317.838     5410.994     2861.566        1.966        0.830      150.093       42.511        0.080      337.638        9.746      856.793
05/07/2014  08:31:00      -85.178      114.274       -9.553       73.269       85.831       44.460     5368.399     7366.927     1976.685        1.756        0.736      142.526       49.411        0.120      337.685        9.825      856.800
05/07/2014  08:32:00      -60.101      144.929       -2.365       64.484       61.884       47.358     4158.245     3829.630     2242.781        1.742        0.512      156.896       44.853        0.082      337.764        9.958      856.795
05/07/2014  08:33:00       -5.261      161.212        0.498       56.262       90.879       46.426     3165.404     8259.066     2155.416        1.980        0.679      161.298       50.423        0.098      337.895       10.177      856.801
05/07/2014  08:34:00       32.506      139.016        7.004       68.650       75.043       41.853     4712.890     5631.379     1751.640        1.626        0.605      142.766       38.129        0.071      338.080       10.486      856.809
05/07/2014  08:35:00       75.746       68.461        2.953       82.676       58.197       37.879     6835.250     3386.926     1434.821        1.104        0.583      102.100       20.673        0.041      337.881       10.154      856.821
05/07/2014  08:36:00      -23.336       99.585      -15.251       65.479       48.047       30.210     4287.511     2308.541      912.626        0.910        0.375      102.283       22.446        0.048      337.911       10.204      856.835
05/07/2014  08:37:00      -86.936      155.393      -20.548       63.244       69.497       45.727     3999.800     4829.812     2091.003        2.152        0.546      178.059       51.694        0.084      337.668        9.796      856.851
05/07/2014  08:38:00      -27.028      208.276      -10.436       43.901       83.083       38.440     1927.267     6902.789     1477.643        2.726        0.515      210.022       37.736        0.032      337.740        9.916      856.855
05/07/2014  08:39:00      -75.218      139.993       -7.830       72.350       98.818       37.548     5234.592     9764.995     1409.832        2.086        0.820      158.921       47.402        0.089      337.982       10.325      856.850
05/07/2014  08:40:00      -54.828      269.799      -34.055       84.276       72.882       46.638     7102.501     5311.821     2175.080        4.577        0.729      275.313       37.006        0.018      337.919       10.215      856.862
05/07/2014  08:41:00       30.580      228.278      -29.665       73.567       86.428       53.682     5412.127     7469.839     2881.755        3.484        0.788      230.318       50.820        0.049      337.689        9.831      856.867
05/07/2014  08:42:00      -65.314      137.429      -10.725       66.842       57.984       46.047     4467.835     3362.156     2120.302        1.661        0.498      152.160       44.203        0.084      337.847       10.098      856.880
05/07/2014  08:43:00     -127.093      115.135      -27.052       60.628       73.905       34.176     3675.731     5461.944     1167.973        2.022        0.515      171.490       21.888        0.016      337.601        9.686      856.867
05/07/2014  08:44:00      -49.013       42.769       10.597       45.075       63.272       30.993     2031.748     4003.357      960.545        0.567        0.350       65.050       26.016        0.160      337.956       10.281      856.849
05/07/2014  08:45:00      -71.600        0.900        1.480       71.084       85.195       33.363     5052.959     7258.113     1113.060        0.927        0.671       71.605       23.575        0.108      337.813       10.041      856.823
05/07/2014  08:46:00      -14.489       52.759        8.252       46.046       41.551       31.361     2120.228     1726.505      983.485        0.394        0.242       54.712       20.815        0.145      338.054       10.446      856.838
05/07/2014  08:47:00      -24.660      210.883      -12.507       65.673      135.405       51.573     4312.971    18334.589     2659.764        3.527        1.265      212.320       73.093        0.119      338.017       10.381      856.828
05/07/2014  08:48:00       61.579       41.092       18.642       95.412       67.707       45.156     9103.437     4584.212     2039.056        1.077        0.786       74.030       31.927        0.186      338.101       10.524      856.815
05/07/2014  08:49:00       47.008      101.898        2.433       64.422       51.857       55.721     4150.156     2689.185     3104.842        1.127        0.497      112.219       40.356        0.129      338.003       10.360      856.822
05/07/2014  08:50:00       96.569       71.973       19.476       55.035       39.184       34.843     3028.851     1535.360     1214.025        1.033        0.289      120.440       27.671        0.053      337.715        9.877      856.822
05/07/2014  08:51:00       67.138      163.993      -10.242       86.475      128.323       50.275     7478.004    16466.918     2527.587        2.898        1.324      177.204       68.134        0.148      337.827       10.064      856.823
05/07/2014  08:52:00      -22.653      264.971      -21.626       60.392       57.988       39.489     3647.165     3362.627     1559.413        3.988        0.428      265.937       32.333        0.015      337.734        9.905      856.832
05/07/2014  08:53:00      -13.120      165.543      -11.348       34.270       68.872       26.224     1174.434     4743.295      687.676        1.715        0.330      166.062       30.473        0.034      337.700        9.852      856.835
05/07/2014  08:54:00      114.125       78.450        4.960       42.599       30.030       35.582     1814.694      901.802     1266.095        1.159        0.199      138.488       20.599        0.022      337.825       10.061      856.812
05/07/2014  08:55:00       38.563       19.932       44.423       46.729       57.714       31.029     2183.633     3330.936      962.816        0.517        0.324       43.410       23.501        0.293      338.155       10.615      856.800
05/07/2014  08:56:00       38.470       47.196        8.812       33.922       23.449       24.856     1150.695      549.863      617.799        0.305        0.116       60.888        9.842        0.026      337.943       10.258      856.796
05/07/2014  08:57:00      -29.360      137.229        0.168       35.910       64.105       33.100     1289.502     4109.482     1095.598        1.309        0.325      140.335       30.141        0.046      337.999       10.353      856.802
05/07/2014  08:58:00      -48.389       54.271       -1.933       59.573       75.442       29.973     3548.992     5691.447      898.388        0.771        0.507       72.710       14.861        0.042      338.250       10.775      856.800
05/07/2014  08:59:00       19.864      136.190      -11.253       47.602       81.241       44.762     2265.906     6600.149     2003.673        1.497        0.543      137.631       40.379        0.086      338.110       10.539      856.804
05/07/2014  09:00:00       23.453       55.976       -6.329       30.963       52.208       24.111      958.711     2725.675      581.361        0.399        0.213       60.691       25.419        0.175      338.062       10.460      856.809
05/07/2014  09:01:00        3.533       70.833       10.550       52.897       74.559       37.035     2798.103     5559.086     1371.579        0.743        0.486       70.921       43.777        0.381      338.270       10.806      856.799
05/07/2014  09:02:00      -79.700       67.664       -2.629       62.620       50.098       36.392     3921.286     2509.801     1324.367        0.934        0.388      104.549       35.552        0.116      338.101       10.523      856.792
05/07/2014  09:03:00      -26.548       54.375       10.313       34.733       46.288       31.043     1206.416     2142.535      963.690        0.404        0.216       60.509       23.058        0.145      338.483       11.165      856.789
05/07/2014  09:04:00      -27.201      107.721       -9.055       56.722       66.888       35.560     3217.351     4474.066     1264.547        1.069        0.448      111.102       35.454        0.102      338.176       10.650      856.784
05/07/2014  09:05:00      -95.639      131.144      -17.709       61.128       56.257       37.102     3736.633     3164.830     1376.547        1.747        0.414      162.313       41.962        0.067      337.959       10.284      856.790
05/07/2014  09:06:00      -62.783       43.447        4.338       52.690       40.600       35.032     2776.262     1648.361     1227.255        0.575        0.283       76.350       34.056        0.199      337.993       10.344      856.778
05/07/2014  09:07:00      -87.428      -41.674       -0.392       64.812       45.050       33.865     4200.537     2029.494     1146.828        0.838        0.369       96.852       32.568        0.113      337.851       10.105      856.766
05/07/2014  09:08:00       29.591      -47.157        1.297       30.122       42.482       31.423      907.358     1804.724      987.435        0.340        0.185       55.672       19.219        0.119      338.210       10.707      856.748
05/07/2014  09:09:00      -11.944       -9.975        5.792       33.358       43.165       26.293     1112.731     1863.240      691.343        0.197        0.183       15.561        9.035        0.337      338.184       10.662      856.738
05/07/2014  09:10:00       34.206      117.397        6.647       59.625       77.466       46.503     3555.180     6001.048     2162.556        1.336        0.586      122.279       50.663        0.172      338.310       10.875      856.744
05/07/2014  09:11:00      -83.145      183.946      -23.327       51.278       52.743       39.718     2629.391     2781.862     1577.491        2.414        0.349      201.864       33.429        0.027      337.906       10.194      856.745
05/07/2014  09:12:00     -124.549      220.599      -34.944       57.763       60.159       37.721     3336.608     3619.078     1422.907        3.689        0.419      253.331       33.427        0.017      337.736        9.907      856.746
05/07/2014  09:13:00      -71.350       76.920      -20.534       46.897       84.711       36.263     2199.310     7175.975     1314.998        1.106        0.535      104.917       37.542        0.128      337.942       10.256      856.727
05/07/2014  09:14:00      -82.937        9.475       17.053       59.328       70.266       32.358     3519.851     4937.363     1047.041        0.838        0.475       83.477       24.728        0.088      338.236       10.751      856.703
05/07/2014  09:15:00        0.921       45.805       23.531       35.299       50.810       31.852     1246.054     2581.650     1014.547        0.375        0.242       45.815       24.782        0.293      338.728       11.577      856.703
05/07/2014  09:16:00      124.229       64.230       16.886       69.492       53.559       40.968     4829.138     2868.594     1678.340        1.461        0.469      139.851       36.996        0.070      338.094       10.512      856.700
05/07/2014  09:17:00       36.453       37.014       58.124       64.060       53.005       39.652     4103.655     2809.533     1572.285        0.728        0.424       51.950       29.659        0.326      338.264       10.798      856.684
05/07/2014  09:18:00        2.788      -42.606       29.453       29.073       39.553       30.752      845.268     1564.476      945.665        0.302        0.168       42.697       20.299        0.226      338.285       10.834      856.676
05/07/2014  09:19:00       20.975       11.442       24.287       30.470       23.139       16.119      928.433      535.416      259.810        0.144        0.086       23.893        7.664        0.103      338.616       11.389      856.680
05/07/2014  09:20:00       72.148       70.547       19.269       39.685       24.552       28.098     1574.909      602.785      789.507        0.676        0.148      100.907       18.125        0.032      338.303       10.864      856.689
05/07/2014  09:21:00       81.747       53.361       25.343       71.162       36.498       38.592     5064.088     1332.069     1489.345        0.903        0.394       97.622       18.600        0.036      338.569       11.309      856.691
05/07/2014  09:22:00      160.378       96.426       29.630       73.093       48.044       52.510     5342.517     2308.208     2757.263        2.315        0.520      187.133       40.860        0.048      338.201       10.690      856.685
05/07/2014  09:23:00      121.676       76.071       15.651       64.800       49.746       40.235     4199.042     2474.710     1618.850        1.456        0.415      143.499       41.599        0.084      337.955       10.278      856.687
05/07/2014  09:24:00       17.078       21.756       17.381       36.429       39.343       22.459     1327.080     1547.833      504.417        0.222        0.169       27.658       21.917        0.628      338.859       11.799      856.676
05/07/2014  09:25:00       39.338       54.525       29.864       44.064       40.309       26.789     1941.645     1624.811      717.665        0.485        0.214       67.235       15.017        0.050      338.627       11.409      856.668
05/07/2014  09:26:00       99.800      144.206       -3.832       75.688       70.158       46.144     5728.621     4922.179     2129.286        2.177        0.639      175.372       36.414        0.043      338.337       10.919      856.686
05/07/2014  09:27:00      -32.674      122.903        4.043       58.097       98.200       42.341     3375.283     9643.190     1792.731        1.550        0.741      127.172       44.970        0.125      338.645       11.437      856.697
05/07/2014  09:28:00      -41.897      180.369        1.317       54.053       94.628       50.664     2921.681     8954.368     2566.819        2.436        0.722      185.171       51.904        0.079      338.408       11.039      856.705
05/07/2014  09:29:00      -70.641       74.141        1.889       56.176       54.156       36.385     3155.746     2932.887     1323.878        0.895        0.371      102.406       32.729        0.102      338.327       10.904      856.707
05/07/2014  09:30:00      -49.747      225.863      -13.381       67.693      103.405       46.673     4582.383    10692.620     2178.410        3.556        0.873      231.276       55.531        0.058      338.317       10.884      856.717
05/07/2014  09:31:00      -75.157      128.428      -22.544       35.051       58.108       35.335     1228.543     3376.534     1248.549        1.425        0.293      148.803       26.578        0.032      337.923       10.226      856.726
05/07/2014  09:32:00      -29.377      -19.453       -6.417       43.178       39.900       25.340     1864.317     1592.038      642.129        0.269        0.205       35.234       32.065        0.828      337.775        9.977      856.725
05/07/2014  09:33:00       -9.411       85.206       14.808       44.945       76.583       36.234     2020.058     5864.970     1312.887        0.838        0.460       85.724       39.953        0.217      338.334       10.915      856.711
05/07/2014  09:34:00      -17.926       71.633       10.653       42.769       62.332       35.907     1829.205     3885.289     1289.320        0.628        0.350       73.842       31.983        0.188      338.491       11.179      856.722
05/07/2014  09:35:00      -71.752       75.645      -13.480       41.316       54.984       27.633     1707.021     3023.293      763.567        0.827        0.275      104.262       22.279        0.046      337.973       10.309      856.720
05/07/2014  09:36:00       22.150       41.990       38.981       41.388       39.770       31.404     1712.979     1581.619      986.238        0.403        0.214       47.474       22.014        0.215      338.685       11.504      856.722
05/07/2014  09:37:00      117.397       74.734       19.833       58.413       47.551       42.534     3412.090     2261.086     1809.116        1.362        0.374      139.166       23.705        0.029      338.447       11.105      856.722
05/07/2014  09:38:00      163.462       84.033       -9.138       53.179       41.647       35.565     2827.964     1734.492     1264.901        1.984        0.291      183.797       19.157        0.011      338.232       10.742      856.726
05/07/2014  09:39:00      142.901      117.077        7.867       62.315       44.837       42.524     3883.160     2010.317     1808.292        2.094        0.385      184.737       24.853        0.018      338.174       10.645      856.727
05/07/2014  09:40:00      101.816       93.240        1.919       53.688       44.797       41.153     2882.361     2006.745     1693.553        1.282        0.329      138.059       30.358        0.048      338.177       10.651      856.734
05/07/2014  09:41:00      100.317       74.020        1.682       56.513       39.238       33.400     3193.699     1539.601     1115.570        1.070        0.292      124.669       21.932        0.031      338.381       10.994      856.740
05/07/2014  09:42:00       49.515       52.767       21.410       46.036       37.743       34.470     2119.309     1424.510     1188.165        0.521        0.237       72.361       11.727        0.026      338.674       11.487      856.742
05/07/2014  09:43:00       42.762       64.328       13.483       49.513       62.631       44.461     2451.530     3922.605     1976.741        0.725        0.418       77.244       34.361        0.198      338.787       11.676      856.744
05/07/2014  09:44:00       54.530      128.838      -17.340       60.681       87.813       45.343     3682.171     7711.104     2055.996        1.666        0.672      139.902       48.018        0.118      338.247       10.767      856.753
05/07/2014  09:45:00       68.703       96.811       -2.798       58.805       52.266       44.081     3458.032     2731.714     1943.152        1.111        0.407      118.711       33.998        0.082      338.277       10.820      856.760
05/07/2014  09:46:00       71.280       55.677       18.284       52.307       30.488       24.896     2736.073      929.541      619.806        0.640        0.214       90.448       11.176        0.015      338.541       11.263      856.756
05/07/2014  09:47:00      114.537       76.296       23.352       42.126       37.475       48.229     1774.606     1404.379     2326.015        1.249        0.275      137.622       16.299        0.014      338.281       10.826      856.744
05/07/2014  09:48:00       38.811       42.323       35.788       44.707       35.285       35.098     1998.695     1245.007     1231.848        0.453        0.224       57.424       18.187        0.100      338.537       11.257      856.741
05/07/2014  09:49:00       38.582       65.020       26.345       43.909       41.985       45.946     1927.978     1762.710     2111.029        0.610        0.290       75.605       26.134        0.119      338.776       11.656      856.733
05/07/2014  09:50:00      103.677       78.140       11.906       51.231       46.807       37.083     2624.565     2190.849     1375.178        1.159        0.310      129.826       23.758        0.033      338.296       10.852      856.739
05/07/2014  09:51:00       63.741       51.584       -6.679       40.429       55.578       29.491     1634.471     3088.938      869.747        0.618        0.280       81.999       25.011        0.093      338.214       10.714      856.737
05/07/2014  09:52:00       66.156      124.826      -22.698       35.515       55.991       28.047     1261.336     3135.031      786.651        1.283        0.259      141.273       24.154        0.029      338.183       10.661      856.729
05/07/2014  09:53:00       19.068      -13.130       28.984       38.937       83.347       46.709     1516.111     6946.748     2181.730        0.601        0.532       23.151       56.065        5.864      338.561       11.297      856.718
05/07/2014  09:54:00      -20.503      -61.665       16.631       21.654       40.388       20.707      468.897     1631.206      428.790        0.351        0.126       64.984       15.550        0.057      338.308       10.871      856.697
05/07/2014  09:55:00        7.626       19.872       41.041       21.727       23.564       19.413      472.053      555.271      376.848        0.177        0.070       21.285       13.037        0.375      339.548       12.957      856.694
05/07/2014  09:56:00       33.764       84.439       14.332       63.185       52.451       46.899     3992.400     2751.144     2199.551        0.871        0.447       90.939       30.702        0.114      338.930       11.916      856.676
05/07/2014  09:57:00       34.829       67.446       11.841       47.340       49.084       33.241     2241.120     2409.249     1104.941        0.583        0.288       75.908       20.998        0.077      339.158       12.300      856.664
05/07/2014  09:58:00       59.484       86.772       79.899       87.642       71.526       57.885     7681.204     5115.903     3350.675        1.680        0.807      105.203       52.886        0.253      338.781       11.665      856.652
05/07/2014  09:59:00      143.409       86.993       10.731       72.971       58.809       54.183     5324.762     3458.490     2935.828        1.998        0.586      167.732       18.501        0.012      338.342       10.927      856.659
05/07/2014  10:00:00       71.199       49.281       14.334       55.154       41.155       33.346     3042.015     1693.765     1111.942        0.677        0.292       86.591        8.288        0.009      338.734       11.587      856.670
05/07/2014  10:01:00       47.268       18.941       39.778       47.771       73.006       52.739     2282.092     5329.857     2781.384        0.728        0.520       50.922       59.004        1.343      339.000       12.036      856.701
05/07/2014  10:02:00       62.732       84.243       61.049       57.201       50.328       58.956     3271.906     2532.907     3475.779        1.202        0.464      105.034       44.274        0.178      339.036       12.095      856.705
05/07/2014  10:03:00        8.489      223.915      -18.855       67.914      100.096       60.690     4612.333    10019.226     3683.311        3.444        0.916      224.076       63.471        0.080      338.557       11.289      856.747
05/07/2014  10:04:00      -70.380      149.225      -26.574       65.874       65.722       34.464     4339.319     4319.337     1187.762        1.889        0.492      164.989       21.142        0.016      338.523       11.233      856.756
05/07/2014  10:05:00      -68.293       61.138        4.564       61.268       60.262       37.347     3753.738     3631.480     1394.766        0.860        0.439       91.662       28.915        0.100      338.962       11.971      856.745
05/07/2014  10:06:00      -22.406      206.689      -20.805       36.634       60.339       34.747     1342.036     3640.773     1207.344        2.492        0.310      207.900       36.548        0.031      338.401       11.026      856.753
05/07/2014  10:07:00       42.511      176.231      -11.966       67.011       74.335       44.983     4490.459     5525.654     2023.502        2.252        0.602      181.286       45.928        0.064      338.665       11.470      856.737
05/07/2014  10:08:00       74.745       74.339        7.687       55.305       51.105       37.214     3058.642     2611.696     1384.863        0.911        0.353      105.419       34.959        0.110      338.624       11.402      856.728
05/07/2014  10:09:00       85.270       88.545       -4.874       56.888       55.604       37.093     3236.278     3091.769     1375.921        1.142        0.385      122.928       24.530        0.040      338.682       11.499      856.714
05/07/2014  10:10:00       44.128       57.071       44.234       33.934       42.030       52.047     1151.541     1766.542     2708.893        0.639        0.281       72.141       40.186        0.310      338.902       11.869      856.698
05/07/2014  10:11:00       79.523       90.864       44.775       79.736       73.985       69.799     6357.754     5473.853     4871.942        1.664        0.835      120.748       54.958        0.207      338.930       11.916      856.689
05/07/2014  10:12:00       75.706      170.588        5.218       83.826       78.116       60.894     7026.807     6102.142     3708.112        2.584        0.842      186.632       53.074        0.081      338.722       11.564      856.688
05/07/2014  10:13:00       21.671       96.958      -19.600       43.407       57.962       33.082     1884.127     3359.641     1094.433        0.830        0.317       99.350       22.868        0.053      338.529       11.242      856.700
05/07/2014  10:14:00       28.782       17.130       27.334       89.338       64.674       60.130     7981.324     4182.711     3615.613        0.882        0.789       33.494       45.564        1.851      338.628       11.410      856.675
05/07/2014  10:15:00      101.502       55.290       35.083       56.952       63.759       43.604     3243.520     4065.180     1901.266        1.190        0.460      115.584       33.369        0.083      338.443       11.097      856.676
05/07/2014  10:16:00       57.065       44.213       36.320       62.868       50.175       34.979     3952.370     2517.537     1223.565        0.711        0.385       72.188       31.334        0.188      339.144       12.276      856.660
05/07/2014  10:17:00       79.495      115.219        6.314       61.666       69.067       50.493     3802.728     4770.272     2549.558        1.538        0.556      139.981       45.719        0.107      338.803       11.702      856.683
05/07/2014  10:18:00       55.199       15.161        9.594       38.864       40.591       31.692     1510.402     1647.632     1004.404        0.376        0.208       57.243       17.531        0.094      338.646       11.438      856.692
05/07/2014  10:19:00       -1.096       25.548      -15.306       28.237       35.556       19.028      797.327     1264.261      362.063        0.166        0.121       25.572       10.597        0.172      338.744       11.604      856.672
05/07/2014  10:20:00       -1.636       13.571       -0.365       39.936       26.987       33.813     1594.906      728.308     1143.299        0.183        0.173       13.669       19.427        2.020      339.173       12.327      856.670
05/07/2014  10:21:00      -43.757       68.714       15.199       39.080       73.281       41.269     1527.281     5370.069     1703.162        0.773        0.430       81.463       38.432        0.223      339.250       12.455      856.652
05/07/2014  10:22:00       31.484       73.770       19.796       66.072       49.261       48.803     4365.545     2426.609     2381.694        0.800        0.459       80.207       31.031        0.150      339.257       12.467      856.641
05/07/2014  10:23:00       71.287       68.339       -6.737       62.193       43.191       38.316     3867.919     1865.427     1468.151        0.850        0.360       98.752       21.049        0.045      338.990       12.016      856.625
05/07/2014  10:24:00      109.315       90.516       57.995      104.519       65.553       73.961    10924.210     4297.178     5470.224        2.209        1.035      141.926       66.898        0.222      339.380       12.673      856.600
05/07/2014  10:25:00      179.125       78.082       34.750      117.231       87.273       66.096    13743.072     7616.617     4368.705        3.255        1.286      195.403       57.578        0.087      339.135       12.259      856.595
05/07/2014  10:26:00      101.305       84.981       54.545      102.669       73.404       69.156    10540.840     5388.098     4782.582        2.058        1.036      132.229       22.000        0.028      339.459       12.805      856.580
05/07/2014  10:27:00      236.818      163.791       39.617      139.869       99.293       78.845    19563.335     9859.111     6216.519        6.005        1.782      287.942       76.752        0.071      339.111       12.218      856.586
05/07/2014  10:28:00      248.129      208.425       13.367      105.371       71.086       70.583    11103.036     5053.182     4981.896        6.316        1.057      324.051       44.031        0.018      338.642       11.429      856.604
05/07/2014  10:29:00       91.678      161.254        6.479      102.263       81.333       62.130    10457.657     6615.113     3860.118        2.769        1.047      185.494       56.215        0.092      339.097       12.195      856.610
05/07/2014  10:30:00      -37.385      187.826      -23.969       67.550       77.301       45.753     4562.961     5975.503     2093.357        2.494        0.632      191.510       41.631        0.047      338.856       11.790      856.619
05/07/2014  10:31:00     -115.955       97.481      -15.086       59.257       58.477       44.022     3511.437     3419.548     1937.893        1.602        0.443      151.486       36.518        0.058      338.956       11.959      856.610
05/07/2014  10:32:00       -9.659       15.185       19.541       52.208       24.749       26.208     2725.710      612.505      686.834        0.236        0.201       17.997       15.764        0.767      339.602       13.048      856.597
05/07/2014  10:33:00      105.747       81.937       29.621       73.513       58.447       41.795     5404.226     3416.071     1746.783        1.467        0.528      133.777       16.302        0.015      339.479       12.839      856.592
05/07/2014  10:34:00       36.061      -70.330       14.366       64.336       69.192       50.852     4139.180     4787.470     2585.974        0.898        0.576       79.036       31.212        0.156      339.286       12.515      856.574
05/07/2014  10:35:00       58.879       23.137       67.943       82.883       83.180       55.078     6869.575     6918.932     3033.562        1.272        0.841       63.262       49.243        0.606      339.693       13.200      856.575
05/07/2014  10:36:00       66.110       39.406       78.718       91.224       95.071       60.115     8321.864     9038.575     3613.767        1.654        1.049       76.964       45.561        0.350      339.611       13.062      856.595
05/07/2014  10:37:00      171.170      163.877      109.223      123.295       88.113       93.109    15201.627     7763.915     8669.288        4.985        1.582      236.970       65.799        0.077      339.278       12.499      856.597
05/07/2014  10:38:00      211.952      133.578       91.430      101.453      113.008      104.944    10292.738    12770.866    11013.345        5.259        1.704      250.533       88.357        0.124      338.982       12.001      856.610
05/07/2014  10:39:00      166.193      111.778       44.437       80.956       70.838       62.985     6553.817     5018.091     3967.111        2.881        0.777      200.286       22.140        0.012      339.433       12.761      856.621
05/07/2014  10:40:00      106.884       88.686       10.012       99.680       72.733       46.536     9936.082     5290.062     2165.557        1.839        0.870      138.886       40.595        0.085      339.324       12.577      856.627
05/07/2014  10:41:00      225.882      108.870      100.930      148.539      127.692       84.745    22063.854    16305.226     7181.721        5.930        2.278      250.750       62.064        0.061      339.461       12.808      856.601
05/07/2014  10:42:00       72.389       56.927       63.788      104.192       92.273       71.059    10855.954     8514.237     5049.400        1.848        1.221       92.091       45.388        0.243      339.699       13.210      856.634
05/07/2014  10:43:00       98.629      110.475       53.833      123.294       95.140       65.039    15201.288     9051.627     4230.060        2.665        1.424      148.096       54.048        0.133      339.592       13.030      856.649
05/07/2014  10:44:00      118.028      120.890       43.948      118.557       76.437       73.913    14055.743     5842.634     5463.117        2.791        1.268      168.953       55.324        0.107      339.492       12.862      856.666
05/07/2014  10:45:00       88.693       75.751      108.021       91.640       81.959       58.974     8397.897     6717.337     3477.901        2.193        0.930      116.638       53.016        0.207      339.463       12.813      856.650
05/07/2014  10:46:00      208.838      141.046       96.256      100.109       77.293       80.104    10021.723     5974.255     6416.572        4.759        1.121      252.006       60.541        0.058      338.852       11.781      856.650
05/07/2014  10:47:00      260.636      131.078       29.375      102.433       78.978       64.775    10492.468     6237.562     4195.757        5.345        1.046      291.741       48.394        0.028      338.902       11.865      856.644
05/07/2014  10:48:00      130.159       97.186       67.807       90.186       70.937       70.563     8133.569     5032.039     4979.183        2.456        0.907      162.440       52.492        0.104      339.212       12.389      856.639
05/07/2014  10:49:00      114.584      133.062      118.374      124.106       68.620       56.246    15402.405     4708.722     3163.616        3.406        1.164      175.599       60.886        0.120      339.104       12.206      856.639
05/07/2014  10:50:00      112.034       57.176       28.710       99.950       50.707       49.289     9989.916     2571.208     2429.404        1.581        0.750      125.780       45.903        0.133      339.197       12.365      856.649
05/07/2014  10:51:00       94.904       39.659       17.182       75.977       46.459       30.336     5772.564     2158.417      920.276        0.986        0.443      102.857       25.125        0.060      339.044       12.108      856.630
05/07/2014  10:52:00      195.263       64.546       40.658      145.609       95.716       77.366    21201.913     9161.468     5985.548        4.014        1.817      205.654       59.423        0.083      338.987       12.010      856.625
05/07/2014  10:53:00      134.163       96.289       93.311       62.847       62.135       63.565     3949.769     3860.765     4040.484        2.391        0.593      165.141       46.718        0.080      338.842       11.766      856.646
05/07/2014  10:54:00      117.880       23.057       60.055       78.864       88.674       59.918     6219.563     7863.142     3590.219        1.785        0.884      120.114       59.943        0.249      339.290       12.521      856.652
05/07/2014  10:55:00       78.707      -85.785       15.486       58.836       69.565       42.541     3461.654     4839.264     1809.739        1.195        0.506      116.420       40.934        0.124      339.254       12.461      856.644
05/07/2014  10:56:00      111.563      -82.657       23.036       70.057       97.153       59.830     4908.035     9438.610     3579.591        1.886        0.896      138.847       70.163        0.255      339.576       13.004      856.637
05/07/2014  10:57:00        9.571       29.444       46.153       27.559       64.310       41.891      759.511     4135.790     1754.874        0.487        0.333       30.960       46.626        2.268      339.666       13.157      856.638
05/07/2014  10:58:00       77.558     -105.834        4.581       88.652      114.817       52.866     7859.220    13182.916     2794.824        2.053        1.192      131.210       65.198        0.247      339.561       12.977      856.621
05/07/2014  10:59:00       41.211       61.713      136.376       89.356       96.838       60.741     7984.552     9377.568     3689.456        2.257        1.053       74.208       61.817        0.694      340.163       13.992      856.615
05/07/2014  11:00:00       79.522       40.000       94.258       85.523       92.435       74.033     7314.173     8544.210     5480.835        1.907        1.067       89.015       69.165        0.604      339.685       13.188      856.633
05/07/2014  11:01:00      110.052        6.159       58.202       72.414       98.934       66.801     5243.835     9787.863     4462.342        1.751        0.975      110.224       68.910        0.391      339.448       12.788      856.652
05/07/2014  11:02:00       22.721      -59.220       28.016       47.620       74.179       44.696     2267.626     5502.539     1997.752        0.729        0.488       63.429       44.754        0.498      339.544       12.951      856.667
05/07/2014  11:03:00       96.206       59.822       77.173       69.967       83.280       57.660     4895.330     6935.603     3324.668        1.697        0.758      113.289       53.768        0.225      339.634       13.100      856.661
05/07/2014  11:04:00       77.159      -10.718       24.769       57.959      109.412       49.547     3359.300    11970.962     2454.897        1.223        0.889       77.899       59.451        0.582      339.213       12.392      856.633
05/07/2014  11:05:00      112.057      -73.763      -10.516       96.750      113.142       63.877     9360.600    12801.189     4080.219        2.217        1.312      134.156       80.284        0.358      339.313       12.561      856.621
05/07/2014  11:06:00       58.804      -35.182       20.557       48.817       45.210       36.668     2383.090     2043.950     1344.573        0.544        0.289       68.525       33.562        0.240      339.994       13.712      856.627
05/07/2014  11:07:00      -75.726      -60.193       -9.466       79.985      107.524       38.971     6397.624    11561.461     1518.723        1.446        0.974       96.734       33.549        0.120      339.579       13.009      856.609
05/07/2014  11:08:00       -3.788       53.516       43.491       48.243       39.100       38.309     2327.339     1528.830     1467.605        0.505        0.266       53.650       21.255        0.157      340.287       14.205      856.608
05/07/2014  11:09:00       82.420      -37.081       13.181       54.570       59.373       50.876     2977.834     3525.185     2588.376        0.871        0.455       90.378       37.775        0.175      339.438       12.773      856.627
05/07/2014  11:10:00       12.661      -22.859       22.206       34.505       39.915       29.805     1190.616     1593.220      888.355        0.242        0.184       26.131       30.297        1.344      339.764       13.323      856.618
05/07/2014  11:11:00       11.191       43.087       18.677       36.549       26.818       30.983     1335.794      719.204      959.955        0.267        0.151       44.517       19.937        0.201      339.893       13.539      856.626
05/07/2014  11:12:00       19.473      128.284        4.991       44.797       66.082       44.587     2006.739     4366.766     1988.035        1.261        0.418      129.754       44.774        0.119      339.976       13.679      856.651
05/07/2014  11:13:00       36.198      169.268      -10.159       46.093       89.673       50.560     2124.565     8041.324     2556.299        2.139        0.636      173.095       50.585        0.085      339.506       12.886      856.659
05/07/2014  11:14:00      -34.812      185.333       -7.951       56.938       78.809       39.135     3241.953     6210.872     1531.515        2.330        0.549      188.574       38.635        0.042      339.491       12.859      856.675
05/07/2014  11:15:00      -98.817      139.868      -10.909       45.008       66.870       39.872     2025.762     4471.655     1589.791        1.877        0.404      171.254       35.913        0.044      339.282       12.508      856.672
05/07/2014  11:16:00      -56.634       72.838        5.064       55.320       52.168       39.776     3060.314     2721.490     1582.146        0.795        0.368       92.265       26.150        0.080      339.693       13.202      856.649
05/07/2014  11:17:00       15.781       68.664        5.113       41.478       39.381       29.977     1720.424     1550.886      898.599        0.458        0.208       70.454       25.157        0.128      339.954       13.641      856.652
05/07/2014  11:18:00       76.561       61.477       11.261       37.985       32.709       34.816     1442.829     1069.855     1212.164        0.675        0.186       98.189       23.736        0.058      339.756       13.307      856.636
05/07/2014  11:19:00       27.302       19.736       24.111       50.534       47.901       34.337     2553.662     2294.519     1179.006        0.387        0.301       33.688       27.477        0.665      340.117       13.917      856.624
05/07/2014  11:20:00       37.519       61.068       16.699       70.423       44.321       44.667     4959.401     1964.309     1995.107        0.717        0.446       71.673       28.947        0.163      339.880       13.517      856.616
05/07/2014  11:21:00       75.499       57.196       -1.008       46.143       39.380       33.168     2129.167     1550.811     1100.118        0.688        0.239       94.718       23.686        0.063      339.744       13.287      856.612
05/07/2014  11:22:00      195.611      100.557       49.209       95.456       60.990       62.860     9111.768     3719.837     3951.325        3.379        0.839      219.944       45.839        0.043      339.376       12.664      856.606
05/07/2014  11:23:00      222.507      120.239       41.630       99.170       67.327       65.960     9834.632     4532.931     4350.751        4.221        0.936      252.917       50.502        0.040      339.321       12.572      856.596
05/07/2014  11:24:00      209.137      122.561       31.522       92.224       88.566       66.058     8505.355     7843.971     4363.664        4.023        1.036      242.404       50.884        0.044      339.680       13.177      856.587
05/07/2014  11:25:00      147.803       86.966       13.837      105.230       66.290       56.021    11073.277     4394.326     3138.383        2.410        0.930      171.490       38.167        0.050      339.763       13.316      856.572
05/07/2014  11:26:00      352.747      225.799       34.829      105.992       92.068       78.798    11234.308     8476.566     6209.175       10.127        1.296      418.827       50.247        0.014      339.189       12.348      856.579
05/07/2014  11:27:00      157.075      125.854       -6.979      115.920      100.162       61.374    13437.546    10032.444     3766.752        3.389        1.362      201.275       29.269        0.021      339.206       12.377      856.603
05/07/2014  11:28:00      194.511      112.838       13.547       82.377       75.761       62.790     6785.900     5739.713     3942.627        3.361        0.823      224.871       40.141        0.032      339.362       12.640      856.596
05/07/2014  11:29:00       90.061       77.531       55.755       81.283       45.322       48.027     6606.950     2054.068     2306.556        1.410        0.548      118.836       39.458        0.110      339.337       12.602      856.601
05/07/2014  11:30:00       51.410       36.809       63.759       44.721       73.502       33.095     1999.993     5402.511     1095.257        0.828        0.425       63.229       31.369        0.246      339.574       13.000      856.587
05/07/2014  11:31:00        0.415        7.210       18.313       30.900       50.258       33.120      954.784     2525.822     1096.947        0.248        0.229        7.222       26.832       13.805      339.846       13.459      856.582
05/07/2014  11:32:00       -2.099      -86.660       -9.191       37.086       42.313       43.474     1375.382     1790.370     1889.968        0.633        0.253       86.685       36.137        0.174      339.280       12.504      856.570
05/07/2014  11:33:00        2.568      -22.281       14.326       23.961       50.959       39.950      574.124     2596.867     1595.991        0.274        0.238       22.429       40.579        3.273      339.612       13.065      856.565
05/07/2014  11:34:00       68.653      -48.987       25.095       66.788       68.928       43.232     4460.656     4751.011     1869.048        0.941        0.554       84.338       47.313        0.315      339.526       12.920      856.535
05/07/2014  11:35:00       46.000       71.657       82.740       75.329       55.499       32.925     5674.454     3080.107     1084.068        1.197        0.492       85.151       22.332        0.069      339.857       13.477      856.529
05/07/2014  11:36:00       70.048      -47.866       29.010       88.366      111.758       65.687     7808.555    12489.895     4314.804        1.632        1.231       84.841       65.372        0.594      340.105       13.897      856.534
05/07/2014  11:37:00      140.803       24.809      101.557       99.265      141.658       82.080     9853.528    20067.030     6737.069        3.370        1.833      142.972       90.755        0.403      339.698       13.209      856.530
05/07/2014  11:38:00       47.880       31.581       50.679       54.651       80.983       47.021     2986.753     6558.236     2211.002        0.880        0.588       57.358       45.137        0.619      340.061       13.822      856.507
05/07/2014  11:39:00      119.342     -167.692       -4.066      121.308      129.612       70.589    14715.536    16799.390     4982.758        3.943        1.825      205.823       75.472        0.134      339.749       13.294      856.488
05/07/2014  11:40:00      104.503     -170.121       15.528       76.793      126.223       50.872     5897.182    15932.260     2587.910        3.226        1.221      199.655       56.960        0.081      339.550       12.958      856.495
05/07/2014  11:41:00       61.235      -74.754       51.998       73.600      184.704       96.937     5416.927    34115.649     9396.835        3.048        2.446       96.632      124.491        1.660      339.921       13.583      856.455
05/07/2014  11:42:00       98.448       67.213      115.440       95.284      189.942      116.752     9079.066    36078.030    13630.945        4.315        2.939      119.204      120.555        1.023      339.507       12.886      856.448
05/07/2014  11:43:00      106.783      -70.027       48.522       73.593      100.614       65.507     5415.878    10123.265     4291.148        1.924        0.992      127.697       71.301        0.312      340.031       13.769      856.405
05/07/2014  11:44:00      161.415       65.992       43.530       97.784       95.814       65.236     9561.794     9180.322     4255.735        2.765        1.150      174.384       52.174        0.090      340.039       13.783      856.384
05/07/2014  11:45:00      183.002       97.812       28.840      143.512       70.406       79.655    20595.691     4957.040     6344.942        3.789        1.595      207.501       57.677        0.077      339.802       13.383      856.366
05/07/2014  11:46:00      189.257       98.281       65.746      140.924       84.514       88.333    19859.510     7142.551     7802.676        4.230        1.740      213.254       82.838        0.151      339.680       13.178      856.343
05/07/2014  11:47:00       76.711       87.498      134.183      113.343      124.103       84.264    12846.716    15401.601     7100.410        3.344        1.767      116.363      103.084        0.785      339.907       13.561      856.320
05/07/2014  11:48:00      192.217      165.915       75.542       70.629       66.384       73.971     4988.424     4406.881     5471.754        4.252        0.743      253.920       38.528        0.023      339.501       12.875      856.331
05/07/2014  11:49:00       78.897       46.547       37.967       68.095       38.332       40.066     4636.965     1469.306     1605.257        0.877        0.386       91.605       24.020        0.069      339.855       13.474      856.336
05/07/2014  11:50:00       57.609        2.643       41.867       77.429       89.237       49.649     5995.247     7963.276     2465.035        1.075        0.821       57.670       45.213        0.615      339.945       13.626      856.331
05/07/2014  11:51:00      105.604      -34.383       35.863       77.191       81.470       57.434     5958.463     6637.316     3298.678        1.475        0.795      111.060       60.259        0.294      340.055       13.811      856.306
05/07/2014  11:52:00       50.406      -58.011       18.401       54.058       70.949       49.741     2922.261     5033.797     2474.162        0.834        0.522       76.851       43.608        0.322      340.378       14.358      856.268
05/07/2014  11:53:00       39.812      -67.956       17.335       59.047       82.930       58.130     3486.552     6877.330     3379.143        1.012        0.687       78.759       56.816        0.520      340.515       14.589      856.242
05/07/2014  11:54:00      -23.621      -77.210        7.676       73.394       53.937       45.127     5386.630     2909.153     2036.464        0.845        0.517       80.742       26.218        0.105      340.813       15.093      856.220
05/07/2014  11:55:00       -4.495      -54.484       13.442       76.472       69.880       41.569     5847.941     4883.240     1728.023        0.781        0.623       54.669       20.012        0.134      340.504       14.570      856.226
05/07/2014  11:56:00     -109.569      -64.167       -9.200       63.993       37.693       23.561     4095.057     1420.780      555.109        1.114        0.304      126.975       12.596        0.010      339.793       13.369      856.250
05/07/2014  11:57:00      -88.392      -18.907       -3.338       48.408       32.469       18.151     2343.356     1054.250      329.446        0.595        0.186       90.392       12.343        0.019      339.681       13.182      856.253
05/07/2014  11:58:00      -19.451      -22.955      -19.448       46.554       42.435       29.259     2167.318     1800.688      856.065        0.305        0.241       30.088       20.792        0.478      340.115       13.913      856.261
05/07/2014  11:59:00      -23.978       24.813       12.977       40.135       33.676       32.001     1610.846     1134.073     1024.061        0.256        0.188       34.505       30.320        0.772      340.944       15.315      856.265
05/07/2014  12:00:00      -13.397       42.911       14.054       28.036       33.910       30.959      786.030     1149.905      958.446        0.256        0.145       44.954       22.842        0.258      340.858       15.170      856.286
05/07/2014  12:01:00        5.649       45.391       14.664       43.879       34.269       29.644     1925.359     1174.356      878.743        0.314        0.199       45.741       12.847        0.079      341.038       15.474      856.295
05/07/2014  12:02:00       31.279       91.362       16.890       54.558       55.939       43.328     2976.523     3129.219     1877.342        0.880        0.399       96.568       36.397        0.142      340.620       14.766      856.299
05/07/2014  12:03:00       59.880       87.252      -11.270       58.805       84.010       43.365     3458.016     7057.618     1880.513        1.186        0.620      105.824       27.741        0.069      340.125       13.931      856.286
05/07/2014  12:04:00       92.255       46.673       22.440      102.308       59.179       48.780    10466.972     3502.126     2379.472        1.377        0.817      103.390       24.604        0.057      340.357       14.321      856.259
05/07/2014  12:05:00      115.589       84.667       65.477      102.459       84.499       60.107    10497.755     7140.028     3612.809        2.303        1.063      143.280       47.513        0.110      340.109       13.902      856.242
05/07/2014  12:06:00      213.142      169.060       53.171      140.141      110.650       93.770    19639.612    12243.422     8792.760        5.875        2.034      272.050       67.914        0.062      340.303       14.229      856.264
05/07/2014  12:07:00      153.160      240.945      -16.510      104.031      141.864       99.380    10822.522    20125.362     9876.402        6.130        2.041      285.504       90.918        0.101      340.132       13.939      856.259
05/07/2014  12:08:00      152.250      177.315       -0.729      148.011      133.591       88.646    21907.197    17846.491     7858.025        5.111        2.381      233.711       73.234        0.098      340.175       14.011      856.275
05/07/2014  12:09:00      135.807      126.542        8.084       77.664      112.348       62.254     6031.756    12622.127     3875.537        2.852        1.126      185.625       60.069        0.105      339.961       13.651      856.247
05/07/2014  12:10:00       50.915        1.381       26.649       69.250       73.518       50.684     4795.588     5404.968     2568.883        0.803        0.638       50.934       43.886        0.742      340.309       14.241      856.153
05/07/2014  12:11:00       59.221      -36.919       21.916       63.216       88.951       44.567     3996.223     7912.355     1986.173        0.962        0.695       69.787       41.577        0.355      340.581       14.699      856.086
05/07/2014  12:12:00      100.538       89.334       67.854       59.436       56.233       47.902     3532.656     3162.139     2294.634        1.584        0.449      134.493       23.596        0.031      340.633       14.787      856.087
05/07/2014  12:13:00      202.451      108.409       44.867      103.734       87.888       80.244    10760.760     7724.242     6439.169        3.983        1.246      229.649       51.811        0.051      340.380       14.356      856.081
05/07/2014  12:14:00      149.332       70.763       18.440       82.610       72.802       63.824     6824.422     5300.083     4073.459        2.192        0.810      165.249       47.929        0.084      340.517       14.591      856.074
05/07/2014  12:15:00      231.369      154.772       48.409      104.024       85.630       64.127    10820.896     7332.440     4112.253        5.104        1.113      278.363       48.019        0.030      340.426       14.436      856.072
05/07/2014  12:16:00      207.201      132.421       32.924      108.085       63.504       53.923    11682.455     4032.787     2907.686        4.008        0.931      245.902       33.741        0.019      340.462       14.497      856.074
05/07/2014  12:17:00       36.939      112.594      129.917       89.064       67.391       67.180     7932.382     4541.611     4513.140        2.395        0.849      118.498       54.610        0.212      341.009       15.423      856.060
05/07/2014  12:18:00      105.079      106.775       81.638      110.333       73.222       76.680    12173.412     5361.451     5879.768        2.626        1.171      149.808       61.834        0.170      340.734       14.958      856.048
05/07/2014  12:19:00      159.866      137.682       10.776       92.283       91.878       82.145     8516.179     8441.493     6747.789        3.416        1.185      210.982       51.841        0.060      340.666       14.840      856.082
05/07/2014  12:20:00      144.718      117.160       22.802      113.669       95.144       85.393    12920.695     9052.413     7291.880        3.222        1.463      186.198       67.783        0.133      340.698       14.896      856.039
05/07/2014  12:21:00       92.245      272.367      -33.287       96.361      160.261       77.307     9285.497    25683.685     5976.379        6.237        2.047      287.564       73.731        0.066      340.632       14.784      856.034
05/07/2014  12:22:00       73.109      423.414      -40.151      143.959      206.795       94.480    20724.167    42763.995     8926.386       12.931        3.621      429.679      100.688        0.055      340.957       15.333      856.051
05/07/2014  12:23:00      -48.776      250.737       -7.929       82.160      152.958       80.935     6750.310    23396.087     6550.501        5.100        1.835      255.437       85.743        0.113      341.286       15.892      856.116
05/07/2014  12:24:00       20.705      142.775       22.223       70.565      171.347       66.702     4979.443    29359.705     4449.138        3.004        1.939      144.269       84.312        0.342      341.414       16.110      856.103
05/07/2014  12:25:00      -20.202      137.881       20.670      117.876      128.847       72.879    13894.635    16601.492     5311.374        2.782        1.790      139.353       70.597        0.257      340.988       15.387      856.108
05/07/2014  12:26:00      -27.995      150.675       18.229      110.495      119.608       65.754    12209.107    14305.967     4323.533        2.732        1.542      153.254       69.241        0.204      340.762       15.004      856.091
05/07/2014  12:27:00      -71.525      238.271       -8.575       90.304      133.857       61.623     8154.802    17917.647     3797.388        4.591        1.493      248.775       56.581        0.052      340.949       15.320      856.087
05/07/2014  12:28:00      -43.289      244.576       -1.759       75.538      109.150       60.394     5706.044    11913.749     3647.448        4.148        1.063      248.377       61.240        0.061      340.962       15.343      856.052
05/07/2014  12:29:00      -37.833       58.480       21.216      103.506      118.097       61.437    10713.495    13946.980     3774.505        1.686        1.422       69.651       49.344        0.502      341.085       15.551      856.035
05/07/2014  12:30:00      -56.857      236.302      -16.125       80.130      136.664       58.609     6420.878    18677.043     3435.054        4.393        1.427      243.046       51.774        0.045      341.111       15.594      856.050
05/07/2014  12:31:00      -78.358      145.914       -9.819       63.734      117.666       41.912     4062.082    13845.314     1756.587        2.359        0.983      165.623       44.014        0.071      341.228       15.793      856.041
05/07/2014  12:32:00        3.601      140.445        3.331       98.084      121.373       60.652     9620.519    14731.472     3678.709        2.388        1.402      140.491       68.662        0.239      341.426       16.131      856.013
05/07/2014  12:33:00     -128.797       -1.096       -5.271      114.909       77.075       53.333    13204.156     5940.479     2844.418        1.930        1.099      128.801       65.294        0.257      341.651       16.510      856.012
05/07/2014  12:34:00     -124.610       15.370        8.011      117.597      118.791       54.883    13829.037    14111.269     3012.139        2.338        1.548      125.555       58.084        0.214      341.837       16.826      856.030
05/07/2014  12:35:00     -215.458       -7.138      -40.605      197.440       92.727       56.794    38982.680     8598.288     3225.588        4.945        2.540      215.576       40.833        0.036      341.029       15.457      856.014
05/07/2014  12:36:00     -373.636      -97.189      -28.148       99.843       89.259       54.432     9968.527     7967.257     2962.872        8.537        1.045      386.069       47.138        0.015      340.479       14.524      855.978
05/07/2014  12:37:00     -190.876      130.729      -31.089      138.484      163.601       72.694    19177.703    26765.156     5284.472        5.285        2.561      231.352       83.493        0.130      340.747       14.980      855.981
05/07/2014  12:38:00      -96.316      303.164      -29.967       94.849       99.184       56.899     8996.334     9837.450     3237.513        6.207        1.104      318.097       40.738        0.016      340.852       15.156      855.992
05/07/2014  12:39:00      -24.200      379.909      -43.226      100.275      165.992       70.620    10055.083    27553.449     4987.227        9.468        2.130      380.679       82.543        0.047      340.765       15.009      855.966
05/07/2014  12:40:00     -107.858      476.676      -54.730       82.994       97.866       55.490     6887.942     9577.809     3079.142       13.069        0.977      488.726       46.024        0.009      340.431       14.444      855.954
05/07/2014  12:41:00      -54.407      248.334       -9.767       93.569      116.447       54.094     8755.245    13560.015     2926.183        4.498        1.262      254.224       57.544        0.051      340.784       15.041      855.933
05/07/2014  12:42:00      -68.798       62.693       -1.718       60.689       63.966       37.237     3683.153     4091.698     1386.600        0.891        0.458       93.078       31.810        0.117      340.966       15.350      855.921
05/07/2014  12:43:00      -76.872       67.906       -3.575       89.594      100.681       46.770     8027.117    10136.708     2187.411        1.544        1.018      102.569       36.348        0.126      341.039       15.475      855.919
05/07/2014  12:44:00      -65.990      161.025      -17.399       67.409       96.373       44.772     4543.968     9287.727     2004.547        2.321        0.792      174.022       46.339        0.071      340.917       15.266      855.900
05/07/2014  12:45:00      -18.850       77.421       16.417       77.804       70.998       54.209     6053.397     5040.754     2938.656        1.032        0.702       79.683       43.198        0.294      341.224       15.789      855.851
05/07/2014  12:46:00     -249.922      240.540      -57.057      155.467      112.405       66.114    24169.885    12634.802     4371.007        8.237        2.059      346.873       68.728        0.039      340.914       15.261      855.898
05/07/2014  12:47:00     -121.078      139.588      -13.740       87.277      111.867       66.696     7617.255    12514.285     4448.314        2.945        1.229      184.783       43.539        0.056      341.022       15.443      855.822
05/07/2014  12:48:00      -52.331      167.729        5.237      197.552      138.857       84.256    39026.889    19281.210     7099.126        4.814        3.270      175.703       92.548        0.277      341.334       15.970      855.818
05/07/2014  12:49:00     -106.584      469.105      -47.693      123.428      207.466       72.404    15234.546    43042.226     5242.387       14.859        3.176      481.061       82.096        0.029      341.091       15.561      855.800
05/07/2014  12:50:00     -142.428      349.706      -29.797      131.742      187.463       95.548    17356.031    35142.463     9129.342       10.254        3.081      377.598       91.599        0.059      341.231       15.798      855.824
05/07/2014  12:51:00     -124.702      240.179      -17.825      111.788      119.611       69.470    12496.592    14306.908     4826.130        5.259        1.581      270.622       74.020        0.075      341.333       15.971      855.817
05/07/2014  12:52:00     -194.665      597.180      -70.580      155.594      181.061       81.145    24209.515    32783.102     6584.537       23.153        3.179      628.107       77.392        0.015      340.839       15.133      855.844
05/07/2014  12:53:00     -199.255      305.008      -45.946      119.139      197.287       79.504    14194.201    38922.103     6320.933        9.713        2.972      364.324       83.608        0.053      340.825       15.109      855.795
05/07/2014  12:54:00     -213.125      434.915      -63.928      141.914      166.554       86.342    20139.613    27740.093     7454.976       14.699        2.767      484.327       85.199        0.031      340.929       15.286      855.780
05/07/2014  12:55:00       80.027      373.720      -35.512      147.315      199.477      104.135    21701.677    39791.238    10844.029       10.982        3.617      382.192      103.508        0.073      341.154       15.666      855.707
05/07/2014  12:56:00       68.781      414.661      -16.744      148.755      229.102      118.295    22127.968    52487.753    13993.793       13.276        4.430      420.326      119.709        0.081      341.298       15.909      855.672
05/07/2014  12:57:00       47.480      426.697      -37.373      120.142      215.854       98.015    14434.010    46592.898     9607.002       12.816        3.532      429.330      102.373        0.057      340.984       15.380      855.670
05/07/2014  12:58:00      -51.533      416.228      -33.998      117.405      209.296       92.638    13783.990    43804.675     8581.777       12.160        3.309      419.406      108.208        0.067      340.961       15.340      855.646
05/07/2014  12:59:00       36.337      481.438      -57.437      133.889      259.796      103.073    17926.299    67493.917    10624.000       16.620        4.802      482.808      128.224        0.071      340.788       15.049      855.595
05/07/2014  13:00:00       14.575      473.513      -57.032      103.283      145.432       69.576    10667.389    21150.334     4840.819       13.216        1.833      473.737       66.692        0.020      340.636       14.791      855.539
05/07/2014  13:01:00      -88.765      271.009      -38.846       99.103      135.274       68.603     9821.427    18299.172     4706.307        5.782        1.641      285.176       66.469        0.054      340.931       15.289      855.549
05/07/2014  13:02:00      -43.175      213.340        1.773       84.407      183.608       79.336     7124.567    33711.824     6294.243        4.725        2.357      217.665       91.375        0.176      341.416       16.112      855.571
05/07/2014  13:03:00      -99.290      399.142      -51.668      149.366      173.748       82.588    22310.222    30188.419     6820.754       11.557        2.966      411.306       60.461        0.022      341.116       15.601      855.595
05/07/2014  13:04:00     -138.694      268.223      -21.970       96.113      175.995       80.966     9237.718    30974.337     6555.489        6.921        2.338      301.960       79.346        0.069      341.505       16.260      855.551
05/07/2014  13:05:00     -337.002      248.459      -52.739      202.024      162.681       87.113    40813.671    26465.194     7588.655       12.646        3.743      418.691       92.010        0.048      341.275       15.872      855.604
05/07/2014  13:06:00     -373.370      258.234      -68.559      245.181      196.563      120.872    60113.708    38636.898    14610.067       16.205        5.668      453.971      141.192        0.097      340.999       15.404      855.630
05/07/2014  13:07:00     -342.354      354.631      -60.351      194.737      199.767      105.908    37922.628    39906.732    11216.418       16.781        4.452      492.919      110.447        0.050      340.710       14.915      855.680
05/07/2014  13:08:00      -38.262      255.306      -31.541      182.737      234.166      105.938    33392.840    54833.641    11222.951        8.353        4.972      258.158       93.692        0.132      340.921       15.273      855.616
05/07/2014  13:09:00     -108.366      345.241      -42.526      165.635      206.142       91.050    27435.029    42494.692     8290.193       10.547        3.911      361.849       83.474        0.053      341.149       15.660      855.580
05/07/2014  13:10:00      -52.118      505.775      -60.045      133.557      199.545       77.108    17837.598    39818.102     5945.620       16.285        3.180      508.453       48.402        0.009      341.251       15.830      855.583
05/07/2014  13:11:00      -59.505      566.818      -55.959      124.056      175.616      100.964    15389.897    30841.103    10193.630       19.218        2.821      569.933       86.819        0.023      341.267       15.858      855.552
05/07/2014  13:12:00     -181.399      401.903      -63.478      148.257      141.756       75.398    21980.209    20094.802     5684.841       12.310        2.388      440.944       60.733        0.019      341.438       16.147      855.566
05/07/2014  13:13:00     -199.457      380.797      -26.551      186.124      178.665       90.883    34642.224    31921.038     8259.631       13.014        3.741      429.872       84.816        0.039      341.374       16.040      855.574
05/07/2014  13:14:00     -116.257      440.225      -27.440      119.348      205.893       86.354    14243.925    42392.027     7457.086       13.607        3.205      455.317       98.435        0.047      341.353       16.005      855.547
05/07/2014  13:15:00     -143.318      461.364      -51.487      152.839      160.827       94.695    23359.807    25865.366     8967.151       14.711        2.910      483.111       90.255        0.035      341.564       16.361      855.521
05/07/2014  13:16:00     -245.945      309.124      -41.130      163.048      210.323       81.572    26584.558    44235.557     6654.025       11.759        3.874      395.027       81.013        0.042      341.434       16.142      855.576
05/07/2014  13:17:00     -241.226      365.593      -71.805      119.287      139.047       79.081    14229.416    19334.057     6253.807       11.840        1.991      438.005       70.857        0.026      341.122       15.614      855.569
05/07/2014  13:18:00     -279.533      410.892      -52.807      228.827      219.601      108.870    52361.729    48224.474    11852.597       18.108        5.622      496.962      121.047        0.059      341.120       15.609      855.567
05/07/2014  13:19:00     -247.453      408.264      -75.650      193.293      197.823      107.118    37362.351    39133.895    11474.298       16.079        4.399      477.401      107.359        0.051      341.099       15.572      855.575
05/07/2014  13:20:00     -324.266      341.334      -62.601      180.170      225.519       94.497    32461.152    50858.763     8929.625       15.889        4.612      470.804      100.149        0.045      340.883       15.210      855.587
05/07/2014  13:21:00     -325.413      456.543      -64.120      194.700      186.861      100.230    37908.032    34917.196    10046.009       20.064        4.144      560.647      103.641        0.034      340.817       15.096      855.604
05/07/2014  13:22:00     -182.294      348.980      -29.543      144.557      212.607       91.636    20896.612    45201.814     8397.186       11.518        3.725      393.723       93.949        0.057      340.896       15.229      855.586
05/07/2014  13:23:00     -169.834      428.268      -44.095      137.664      241.936       83.842    18951.430    58533.149     7029.497       14.934        4.226      460.714       91.200        0.039      340.923       15.275      855.572
05/07/2014  13:24:00     -158.595      509.989      -62.021      108.938      132.895       78.592    11867.507    17661.009     6176.646       16.239        1.785      534.080       69.827        0.017      340.916       15.264      855.547
05/07/2014  13:25:00     -105.865      399.711      -39.566      111.399      207.521       79.552    12409.719    43064.898     6328.518       11.716        3.090      413.492       83.124        0.040      341.042       15.477      855.539
05/07/2014  13:26:00     -192.449      320.199      -44.791      111.009      158.506       84.376    12323.039    25124.185     7119.358        9.306        2.228      373.583       78.894        0.045      341.012       15.426      855.526
05/07/2014  13:27:00     -273.141      255.332      -51.670      106.393      134.579       76.398    11319.482    18111.407     5836.711        8.886        1.763      373.899       68.562        0.034      340.943       15.309      855.497
05/07/2014  13:28:00     -269.342      258.357      -37.457      141.107      170.639       79.757    19911.066    29117.681     6361.195        9.803        2.769      373.220       86.740        0.054      341.103       15.579      855.469
05/07/2014  13:29:00     -207.349      334.540      -32.314      190.677      164.821       89.979    36357.610    27165.986     8096.232       11.377        3.581      393.587       76.943        0.038      341.318       15.945      855.445
05/07/2014  13:30:00     -255.997      359.122      -50.483      127.998      139.786       99.274    16383.440    19540.150     9855.323       12.141        2.289      441.025       80.799        0.034      341.296       15.907      855.530
05/07/2014  13:31:00     -240.590      395.957      -53.745      159.847      200.167       85.869    25551.058    40066.893     7373.410       14.526        3.650      463.320       93.467        0.041      341.210       15.761      855.579
05/07/2014  13:32:00     -153.634      395.455      -41.599      104.308      136.293       69.120    10880.178    18575.835     4777.516       10.797        1.712      424.250       68.819        0.026      341.391       16.068      855.533
05/07/2014  13:33:00      -95.378      223.575      -15.392       72.371      119.006       54.117     5237.561    14162.434     2928.696        4.082        1.116      243.069       61.624        0.064      341.578       16.384      855.498
05/07/2014  13:34:00     -234.243       75.356      -37.573      150.862      164.416       71.976    22759.471    27032.554     5180.543        5.846        2.749      246.066       80.548        0.107      341.421       16.121      855.488
05/07/2014  13:35:00     -124.470       52.585       -2.574       87.069      118.542       57.673     7581.079    14052.246     3326.186        2.161        1.248      135.122       57.839        0.183      341.532       16.309      855.420
05/07/2014  13:36:00     -334.384      155.754      -51.676      159.156      125.848       70.520    25330.606    15837.757     4973.126        9.243        2.307      368.879       76.091        0.043      341.635       16.481      855.409
05/07/2014  13:37:00     -233.745      508.530      -78.588      195.916      240.434       89.382    38383.118    57808.406     7989.078       21.178        5.209      559.678      106.333        0.036      341.450       16.168      855.473
05/07/2014  13:38:00     -208.440      268.303      -50.826      181.171      244.839       87.169    32822.801    59946.231     7598.481       10.917        5.018      339.756       91.391        0.072      341.630       16.473      855.489
05/07/2014  13:39:00     -212.822      111.314      -35.949      165.860      176.851       83.963    27509.409    31276.335     7049.729        6.239        3.292      240.175       79.390        0.109      341.657       16.520      855.480
05/07/2014  13:40:00     -361.553      102.689      -29.140      136.067      120.287       82.335    18514.226    14469.042     6779.011        9.093        1.988      375.853       66.699        0.031      341.730       16.643      855.463
05/07/2014  13:41:00     -189.286      114.479       -5.142      167.609      153.393       91.663    28092.623    23529.368     8402.091        5.448        3.001      221.212       91.051        0.169      341.765       16.703      855.517
05/07/2014  13:42:00     -209.557       54.098      -23.095      144.396      153.538       78.264    20850.183    23573.768     6125.224        4.895        2.527      216.427       68.064        0.099      341.814       16.785      855.504
05/07/2014  13:43:00     -429.944      -40.122      -32.402      183.922      168.939       79.915    33827.264    28540.373     6386.400       12.812        3.438      431.812       71.574        0.027      341.310       15.929      855.534
05/07/2014  13:44:00     -349.653      -84.302      -23.656      182.609       87.260       58.973    33345.874     7614.291     3477.830        8.717        2.222      359.672       78.681        0.048      341.257       15.842      855.497
05/07/2014  13:45:00       38.275      116.202       16.033       65.704       96.049       64.070     4316.983     9225.357     4104.932        1.643        0.882      122.343       57.975        0.225      341.829       16.814      855.516
05/07/2014  13:46:00       24.771      245.585      -23.177       79.405      162.524       74.779     6305.121    26414.162     5591.947        4.988        1.916      246.831       86.071        0.122      341.225       15.787      855.520
05/07/2014  13:47:00        4.240      231.890      -10.884      122.628      151.113       75.328    15037.600    22835.044     5674.323        4.872        2.177      231.929       93.497        0.163      341.186       15.721      855.473
05/07/2014  13:48:00        5.088      120.799        2.017      127.643       97.554       63.938    16292.720     9516.875     4088.063        2.225        1.495      120.907       57.439        0.226      341.648       16.506      855.401
05/07/2014  13:49:00      -91.218      459.346      -59.628      110.701      268.996       77.208    12254.632    72358.815     5961.084       15.671        4.529      468.315      109.052        0.054      341.449       16.167      855.398
05/07/2014  13:50:00     -126.785      178.560       -1.118      126.223      198.455       76.281    15932.169    39384.231     5818.785        5.453        3.057      218.993       93.470        0.182      341.751       16.679      855.445
05/07/2014  13:51:00     -219.716      502.690      -67.246      141.831      159.622       82.945    20116.038    25479.342     6879.921       17.897        2.624      548.609       79.923        0.021      341.240       15.812      855.466
05/07/2014  13:52:00     -102.632      478.892      -54.974      138.079      142.416       78.818    19065.850    20282.385     6212.276       14.422        2.278      489.766       84.471        0.030      341.196       15.738      855.443
05/07/2014  13:53:00     -124.471      374.880      -40.109      137.849      191.087       80.215    19002.407    36514.243     6434.428       10.978        3.098      395.004       94.653        0.057      341.381       16.051      855.454
05/07/2014  13:54:00     -142.146      397.842      -46.543      125.954      216.922       66.924    15864.339    47054.956     4478.811       12.401        3.370      422.474       91.977        0.047      341.321       15.951      855.489
05/07/2014  13:55:00     -129.067      463.314      -44.338      109.805      256.743       70.056    12057.109    65916.874     4907.913       15.807        4.144      480.955       96.868        0.041      341.234       15.803      855.503
05/07/2014  13:56:00      -98.950      504.210      -53.824       95.107      213.857       78.959     9045.410    45734.876     6234.506       16.395        3.051      513.828       80.619        0.025      341.186       15.721      855.501
05/07/2014  13:57:00      -85.684      359.797      -33.680      120.210      155.238       73.378    14450.400    24098.859     5384.346        9.092        2.197      369.858       75.147        0.041      341.243       15.816      855.519
05/07/2014  13:58:00      -95.756      370.909      -39.940      141.463      201.278       81.913    20011.659    40512.754     6709.764       10.777        3.362      383.070       99.961        0.068      341.320       15.949      855.500
05/07/2014  13:59:00     -178.227      398.878      -41.964      153.467      178.762       86.586    23551.990    31955.736     7497.202       12.780        3.150      436.885       69.745        0.025      341.438       16.148      855.545
05/07/2014  14:00:00     -298.691      426.531      -61.317      115.904      173.210       82.861    13433.724    30001.800     6865.985       16.259        2.515      520.716       84.668        0.026      341.187       15.723      855.561
05/07/2014  14:01:00     -103.383      333.258      -41.381       93.983       93.096       54.522     8832.865     8666.814     2972.598        7.196        1.024      348.926       46.732        0.018      341.062       15.509      855.537
05/07/2014  14:02:00      -36.338      188.996      -11.310       58.535       98.349       45.525     3426.343     9672.507     2072.545        2.617        0.759      192.457       45.863        0.057      341.363       16.021      855.489
05/07/2014  14:03:00     -199.362       15.338      -18.434      109.611       96.666       54.197    12014.626     9344.286     2937.298        3.230        1.215      199.952       45.437        0.052      341.314       15.939      855.455
05/07/2014  14:04:00     -134.805      -47.428       -9.377      106.269       83.461       44.676    11293.083     6965.775     1995.964        2.038        1.013      142.905       41.705        0.085      341.342       15.988      855.369
05/07/2014  14:05:00     -351.828      -47.056      -20.995      120.869      112.035       62.494    14609.392    12551.918     3905.505        7.875        1.553      354.961       57.350        0.026      341.386       16.060      855.418
05/07/2014  14:06:00     -147.825      131.684      -14.453      136.028      138.193       71.393    18503.591    19097.327     5096.974        4.104        2.135      197.972       81.523        0.170      341.586       16.397      855.516
05/07/2014  14:07:00     -137.262      219.572      -29.416       97.599      146.199       69.883     9525.590    21374.191     4883.580        5.184        1.789      258.945       70.313        0.074      341.603       16.428      855.521
05/07/2014  14:08:00     -220.416      439.518      -73.118      189.865      146.074       82.537    36048.846    21337.722     6812.324       15.564        3.210      491.690       85.389        0.030      341.228       15.791      855.488
05/07/2014  14:09:00      -91.912      518.816      -57.715      108.609      167.676       63.879    11795.953    28115.222     4080.576       16.246        2.200      526.895       77.264        0.022      341.252       15.831      855.473
05/07/2014  14:10:00     -163.690      495.718      -56.352      137.721      179.970       83.164    18967.065    32389.152     6916.221       16.698        2.914      522.045       78.764        0.023      341.205       15.753      855.474
05/07/2014  14:11:00     -125.378      366.198      -40.641      141.786      184.174       83.767    20103.271    33920.189     7016.878       10.624        3.052      387.067       90.681        0.055      341.193       15.732      855.444
05/07/2014  14:12:00     -191.648      327.536      -51.016      117.754      127.904       77.798    13865.961    16359.512     6052.590        9.144        1.814      379.485       64.653        0.029      341.297       15.910      855.524
05/07/2014  14:13:00     -103.616      333.089      -25.999       99.704      111.462       61.978     9940.856    12423.875     3841.302        7.428        1.310      348.833       50.852        0.021      341.276       15.872      855.492
05/07/2014  14:14:00      -87.320      116.287        0.276       98.954      129.900       66.275     9791.797    16873.985     4392.354        2.610        1.553      145.422       53.585        0.136      341.421       16.120      855.433
05/07/2014  14:15:00     -128.713      246.269      -18.416      103.270      115.583       70.082    10664.770    13359.466     4911.513        5.324        1.447      277.877       79.848        0.083      341.591       16.407      855.482
05/07/2014  14:16:00     -102.129      159.594      -19.637       91.687      110.930       36.219     8406.451    12305.510     1311.832        2.915        1.101      189.474       23.467        0.015      341.713       16.615      855.466
05/07/2014  14:17:00      -67.987       88.582       15.603       95.213      103.280       55.905     9065.552    10666.805     3125.321        1.778        1.143      111.665       39.287        0.124      342.035       17.163      855.471
05/07/2014  14:18:00      -99.917      233.825      -18.746       74.905      139.187       60.153     5610.731    19373.137     3618.335        4.680        1.430      254.279       67.614        0.071      341.869       16.878      855.483
05/07/2014  14:19:00     -108.774       36.950       33.402      146.135      162.535       90.380    21355.469    26417.700     8168.592        3.512        2.797      114.878       92.407        0.647      342.099       17.268      855.456
05/07/2014  14:20:00      -56.170       82.727        6.964      138.348       99.273       64.586    19140.129     9855.063     4171.386        2.160        1.658       99.994       67.021        0.449      342.046       17.179      855.448
05/07/2014  14:21:00     -143.660      256.580      -28.107      152.800      157.787       86.667    23347.693    24896.742     7511.117        7.150        2.788      294.060       88.995        0.092      342.176       17.399      855.483
05/07/2014  14:22:00     -214.107      186.857      -11.513      171.118      249.821       98.934    29281.293    62410.723     9787.861        9.116        5.074      284.178       92.267        0.105      341.748       16.673      855.423
05/07/2014  14:23:00     -138.495      269.584      -10.859      171.096      135.640       86.246    29273.862    18398.100     7438.413        7.353        2.756      303.078       93.836        0.096      341.953       17.021      855.449
05/07/2014  14:24:00     -223.726      328.000      -55.923      144.756      164.225       76.440    20954.377    26969.940     5843.025       10.726        2.688      397.036       76.252        0.037      341.764       16.699      855.470
05/07/2014  14:25:00     -130.222      329.652      -32.943      101.807      145.002       67.088    10364.764    21025.592     4500.835        8.130        1.795      354.440       72.817        0.042      341.794       16.750      855.484
05/07/2014  14:26:00     -200.983      381.751      -40.429      172.641      192.150       83.823    29804.976    36921.796     7026.278       13.074        3.688      431.425       91.987        0.045      341.581       16.388      855.488
05/07/2014  14:27:00     -224.868      287.046      -68.006      174.267      123.737       72.942    30368.866    15310.794     5320.469        9.428        2.550      364.638       96.117        0.069      341.573       16.376      855.505
05/07/2014  14:28:00     -103.430      183.285      -25.926      101.146      105.752       54.627    10230.569    11183.390     2984.071        3.468        1.220      210.454       60.780        0.083      341.882       16.902      855.509
05/07/2014  14:29:00     -180.053      125.824      -34.138      133.419       82.594       60.293    17800.730     6821.795     3635.254        3.883        1.413      219.661       67.454        0.094      341.908       16.945      855.498
05/07/2014  14:30:00     -188.629      235.294      -27.481      168.919      141.331       85.404    28533.652    19974.360     7293.851        7.374        2.790      301.569       98.397        0.106      341.781       16.730      855.485
05/07/2014  14:31:00     -192.555      268.965      -37.998       98.610      174.394       60.142     9723.881    30413.171     3617.045        7.730        2.188      330.786       56.789        0.029      341.725       16.633      855.450
05/07/2014  14:32:00     -286.866       49.308      -20.958      173.394      158.061       85.338    30065.370    24983.184     7282.505        7.373        3.117      291.072       83.777        0.083      342.016       17.129      855.464
05/07/2014  14:33:00     -225.879      -42.413      -24.911      109.358       88.763       47.653    11959.078     7878.827     2270.778        3.777        1.105      229.826       51.532        0.050      342.132       17.324      855.452
05/07/2014  14:34:00     -113.541      151.628      -15.749      103.776      102.887       59.708    10769.494    10585.639     3565.005        3.052        1.246      189.427       61.375        0.105      342.245       17.517      855.481
05/07/2014  14:35:00      -97.673      174.676      -20.750      103.321      131.176       65.973    10675.162    17207.187     4352.423        3.635        1.612      200.130       58.721        0.086      342.095       17.264      855.497
05/07/2014  14:36:00     -330.554      110.622      -37.552      131.247      164.316       64.324    17225.771    26999.830     4137.588        8.563        2.418      348.573       57.355        0.027      341.583       16.392      855.501
05/07/2014  14:37:00     -120.143        3.892      -14.602      130.860      104.356       63.088    17124.317    10890.089     3980.038        2.332        1.600      120.206       54.856        0.208      341.964       17.041      855.470
05/07/2014  14:38:00     -312.075     -102.675      -23.529      129.398       65.848       42.550    16743.719     4335.900     1810.539        6.568        1.145      328.531       35.027        0.011      341.738       16.656      855.466
05/07/2014  14:39:00     -209.359      -35.968      -18.016      105.148       93.887       44.998    11056.068     8814.855     2024.808        3.367        1.095      212.426       27.821        0.017      341.634       16.480      855.470
05/07/2014  14:40:00     -215.941       -8.049       -8.765      124.235      110.942       62.934    15434.334    12308.095     3960.661        3.923        1.585      216.091       61.580        0.081      341.561       16.358      855.452
05/07/2014  14:41:00     -224.785      -39.875      -12.817      126.242       86.664       51.349    15936.941     7510.640     2636.719        3.918        1.304      228.294       52.633        0.053      341.767       16.706      855.402
05/07/2014  14:42:00      -97.308      160.766       -4.801       80.226      157.973       60.878     6436.193    24955.529     3706.171        3.521        1.755      187.922       46.548        0.061      342.022       17.140      855.404
05/07/2014  14:43:00     -188.905        7.433       -9.615      139.201      161.283       75.614    19377.027    26012.064     5717.434        4.346        2.555      189.052       52.394        0.077      341.958       17.029      855.408
05/07/2014  14:44:00     -347.014      -84.678      -30.111      141.682      171.393       76.744    20073.669    29375.587     5889.688        9.191        2.767      357.196       55.183        0.024      341.817       16.790      855.412
05/07/2014  14:45:00     -285.463      -85.694       -3.953      163.063      138.824       81.793    26589.597    19272.151     6690.168        7.069        2.628      298.048       76.710        0.066      341.848       16.841      855.396
05/07/2014  14:46:00     -247.068      -32.329      -26.578      144.135       83.249       66.416    20774.957     6930.463     4411.078        4.745        1.606      249.175       66.472        0.071      341.743       16.665      855.433
05/07/2014  14:47:00     -286.082       77.686      -28.517      144.340      120.649       85.140    20833.977    14556.240     7248.762        6.566        2.132      296.443       80.256        0.073      341.738       16.655      855.444
05/07/2014  14:48:00     -205.961       95.520      -49.546      104.606      129.213       56.419    10942.318    16696.074     3183.152        4.240        1.541      227.033       49.470        0.047      341.724       16.632      855.464
05/07/2014  14:49:00      -65.139        7.851        6.376       57.992       62.117       47.711     3363.115     3858.523     2276.294        0.692        0.475       65.610       36.283        0.306      341.972       17.055      855.440
05/07/2014  14:50:00     -178.072       77.123      -34.014       90.321      114.468       62.281     8157.911    13102.935     3878.941        3.197        1.257      194.055       35.469        0.033      342.072       17.223      855.460
05/07/2014  14:51:00     -309.672       81.481      -41.872      136.662       88.799       58.238    18676.393     7885.298     3391.677        6.712        1.498      320.212       60.007        0.035      341.929       16.981      855.504
05/07/2014  14:52:00     -138.770       42.946       -2.372      145.449       51.897       47.016    21155.495     2693.277     2210.537        2.358        1.303      145.264       54.888        0.143      342.252       17.531      855.495
05/07/2014  14:53:00     -363.452      -18.684      -24.619       99.012      110.946       51.453     9803.355    12308.959     2647.439        7.890        1.238      363.932       45.940        0.016      341.918       16.961      855.492
05/07/2014  14:54:00     -146.002        0.655      -27.129      155.697       70.459       55.469    24241.626     4964.465     3076.825        2.716        1.614      146.004       34.205        0.055      341.789       16.745      855.503
05/07/2014  14:55:00     -140.449       80.451       -7.649      138.244       76.748       52.066    19111.486     5890.216     2710.836        2.698        1.386      161.859       57.491        0.126      341.841       16.834      855.467
05/07/2014  14:56:00     -359.174       14.934      -26.783      109.086      112.317       56.848    11899.682    12615.189     3231.668        7.884        1.387      359.484       55.177        0.024      341.807       16.774      855.431
05/07/2014  14:57:00     -370.487      115.582      -44.745      103.607      144.071       60.736    10734.454    20756.561     3688.813        9.389        1.759      388.098       47.755        0.015      341.882       16.899      855.457
05/07/2014  14:58:00     -244.324      200.307      -35.495      153.478      223.773       84.549    23555.629    50074.463     7148.610        9.091        4.039      315.938       77.837        0.061      341.812       16.782      855.525
05/07/2014  14:59:00     -243.270        6.980      -19.862      132.346      146.492       69.625    17515.442    21459.863     4847.705        5.171        2.191      243.370       66.788        0.075      341.776       16.722      855.494
05/07/2014  15:00:00     -262.096       53.052      -43.666      118.678      143.703       73.877    14084.352    20650.427     5457.740        5.680        2.010      267.412       64.539        0.058      341.670       16.541      855.524
05/07/2014  15:01:00     -174.464       79.085      -31.293      109.953      126.629       75.425    12089.658    16034.901     5688.979        3.574        1.691      191.552       80.010        0.174      341.743       16.664      855.515
05/07/2014  15:02:00     -229.608       35.838      -23.208      177.252      163.420       64.326    31418.231    26705.976     4137.848        5.839        3.113      232.388       51.887        0.050      341.782       16.731      855.501
05/07/2014  15:03:00     -302.907      -17.152      -28.964      181.826      236.350       94.956    33060.748    55861.446     9016.715        9.539        4.897      303.392       86.055        0.080      341.693       16.581      855.506
05/07/2014  15:04:00     -327.212      -31.406      -24.212      178.746      177.354       88.108    31950.051    31454.522     7762.973        8.989        3.558      328.715       77.795        0.056      341.696       16.586      855.492
05/07/2014  15:05:00     -457.968      -53.807      -26.863      233.156      213.283       89.103    54361.786    45489.608     7939.349       16.055        5.390      461.118       80.895        0.031      341.591       16.405      855.465
05/07/2014  15:06:00     -244.783       -8.990      -22.933      152.813      107.093       68.268    23351.756    11468.998     4660.513        5.000        1.974      244.948       63.257        0.067      341.765       16.701      855.519
05/07/2014  15:07:00     -160.561       36.224      -17.328      143.389      139.803       78.879    20560.317    19544.848     6221.947        3.685        2.316      164.596       85.586        0.270      341.801       16.763      855.553
05/07/2014  15:08:00     -187.713       43.689       -7.676      139.607      134.018       73.773    19490.224    17960.834     5442.446        4.004        2.145      192.730       71.537        0.138      341.925       16.974      855.548
05/07/2014  15:09:00     -204.283       -3.634       -7.379      108.623       79.926       48.108    11798.968     6388.136     2314.343        3.115        1.025      204.315       41.320        0.041      341.788       16.740      855.502
05/07/2014  15:10:00     -100.980       -8.327       11.090       94.976       79.517       56.476     9020.478     6322.930     3189.590        1.446        0.927      101.322       45.514        0.202      341.876       16.892      855.424
05/07/2014  15:11:00     -201.603      143.417      -11.975      151.596      113.677       72.387    22981.416    12922.418     5239.870        5.124        2.057      247.411       79.585        0.103      342.208       17.454      855.415
05/07/2014  15:12:00     -231.967      297.339      -40.840      141.453      232.241       84.802    20008.984    53935.755     7191.311       11.250        4.057      377.120       78.928        0.044      341.958       17.029      855.466
05/07/2014  15:13:00     -229.340      403.675      -50.190      132.856      188.530       88.059    17650.675    35543.435     7754.423       13.950        3.047      464.274       93.425        0.040      341.916       16.956      855.460
05/07/2014  15:14:00     -294.257       35.051      -20.010      168.256      182.918       60.394    28310.145    33459.058     3647.429        7.680        3.271      296.338       58.985        0.040      342.086       17.247      855.472
05/07/2014  15:15:00     -395.123      -60.711      -12.084      157.991      120.478       68.252    24961.239    14514.930     4658.292       10.204        2.207      399.760       65.346        0.027      342.143       17.343      855.457
05/07/2014  15:16:00     -399.303      -38.962      -27.753      136.524      142.812       68.919    18638.805    20395.175     4749.807       10.275        2.189      401.199       61.079        0.023      341.802       16.766      855.448
05/07/2014  15:17:00     -244.810      -86.485       13.750      154.222      146.597       71.341    23784.550    21490.553     5089.575        5.897        2.518      259.637       75.950        0.086      342.029       17.149      855.424
05/07/2014  15:18:00      -61.826      192.076       -3.661       81.532      123.604       53.641     6647.547    15278.070     2877.329        3.276        1.240      201.781       49.648        0.061      342.160       17.372      855.486
05/07/2014  15:19:00      -90.165      374.788      -42.946       79.408      106.043       60.462     6305.676    11245.138     3655.679        8.582        1.060      385.481       59.865        0.024      341.637       16.484      855.464
05/07/2014  15:20:00      -40.275      417.419      -57.669       77.561       89.394       40.874     6015.784     7991.241     1670.723        9.743        0.784      419.358       45.655        0.012      341.487       16.232      855.446
05/07/2014  15:21:00      -10.974      269.020      -30.127       56.649       81.240       35.413     3209.093     6599.966     1254.048        4.223        0.553      269.244       37.204        0.019      341.629       16.470      855.436
05/07/2014  15:22:00      -87.860       70.569      -20.203       88.188       57.623       38.403     7777.156     3320.438     1474.761        1.284        0.629      112.692       37.088        0.108      341.986       17.081      855.449
05/07/2014  15:23:00     -261.373       10.743      -27.886      194.808      108.160       63.220    37950.153    11698.618     3996.770        6.142        2.682      261.594       64.675        0.061      342.151       17.359      855.479
05/07/2014  15:24:00     -236.830       13.894      -11.132      172.646       88.904       72.365    29806.557     7903.988     5236.634        4.967        2.147      237.237       90.482        0.145      341.729       16.641      855.458
05/07/2014  15:25:00      -92.926      -58.335        7.243       96.889       80.487       58.054     9387.490     6478.215     3370.286        1.566        0.962      109.719       53.883        0.241      341.974       17.060      855.431
05/07/2014  15:26:00     -300.989     -110.485      -12.915      140.590       74.026       49.400    19765.655     5479.799     2440.346        6.532        1.384      320.626       44.949        0.020      341.761       16.695      855.417
05/07/2014  15:27:00     -308.119     -117.901       -3.341      145.003       88.408       53.186    21025.944     7815.916     2828.769        7.025        1.584      329.906       58.863        0.032      341.705       16.600      855.430
05/07/2014  15:28:00     -223.844      -21.506      -15.801      140.640       94.810       46.477    19779.599     8988.925     2160.076        4.087        1.546      224.875       49.958        0.049      341.855       16.856      855.415
05/07/2014  15:29:00     -300.002       -7.256      -27.105       86.989      100.024       50.126     7567.117    10004.722     2512.594        5.543        1.004      300.090       39.851        0.018      341.816       16.787      855.418
05/07/2014  15:30:00     -240.669      -65.816      -10.734      159.200      124.214       63.975    25344.796    15429.039     4092.786        5.361        2.243      249.506       62.350        0.062      341.944       17.005      855.425
05/07/2014  15:31:00     -252.651      167.960      -49.930      188.517      168.599       86.152    35538.756    28425.468     7422.206        8.295        3.569      303.386       81.477        0.072      341.749       16.674      855.460
05/07/2014  15:32:00     -399.006      -76.977      -25.790      202.179      161.091       73.660    40876.398    25950.232     5425.823       11.901        3.613      406.363       91.779        0.051      341.678       16.554      855.445
05/07/2014  15:33:00     -216.270      -63.026        0.835      182.624      127.395       75.524    33351.400    16229.447     5703.859        5.300        2.764      225.266       94.001        0.174      341.712       16.613      855.448
05/07/2014  15:34:00     -294.765      -21.319       -1.205      176.086      162.965       75.304    31006.401    26557.707     5670.738        7.528        3.162      295.535       82.690        0.078      341.770       16.711      855.421
05/07/2014  15:35:00     -424.309       77.367      -72.098      175.882      153.224       90.312    30934.568    23477.641     8156.247       12.688        3.128      431.305       76.110        0.031      341.685       16.565      855.451
05/07/2014  15:36:00     -124.618       79.739       -9.923      110.045      150.029       58.205    12109.946    22508.714     3387.799        2.999        1.900      147.946       54.618        0.136      341.797       16.756      855.485
05/07/2014  15:37:00     -109.178       91.711      -38.269       51.765       94.904       40.913     2679.633     9006.841     1673.886        1.758        0.668      142.586       18.101        0.016      341.787       16.742      855.458
05/07/2014  15:38:00     -196.097       38.756      -27.829      141.418      136.299       68.676    19999.010    18577.435     4716.326        4.200        2.165      199.891       79.071        0.156      341.790       16.742      855.442
05/07/2014  15:39:00     -221.722       57.215      -22.365      102.703      117.967       58.166    10547.895    13916.178     3383.257        4.039        1.392      228.985       50.570        0.049      341.861       16.864      855.446
05/07/2014  15:40:00     -210.950      -56.047      -11.846       87.504      128.457       56.214     7656.998    16501.181     3159.963        3.754        1.366      218.269       41.749        0.037      341.941       16.999      855.440
05/07/2014  15:41:00     -233.983       -0.460      -22.808      140.952      104.364       57.036    19867.343    10891.795     3253.072        4.463        1.701      233.984       55.184        0.056      341.909       16.947      855.436
05/07/2014  15:42:00     -383.127      -59.838      -28.024      165.941      160.459       73.624    27536.301    25746.968     5420.564       10.492        2.935      387.771       72.549        0.035      341.914       16.953      855.409
05/07/2014  15:43:00     -181.071        1.248       -1.957      163.698      135.608       77.944    26797.182    18389.574     6075.234        4.202        2.563      181.075       89.948        0.247      341.952       17.020      855.398
05/07/2014  15:44:00     -122.485       83.242      -41.953      118.135      117.899       53.229    13955.957    13900.160     2833.374        2.718        1.534      148.094       72.639        0.241      341.939       16.998      855.420
05/07/2014  15:45:00      -99.125       95.480        1.014      172.980      158.780       68.782    29921.932    25211.111     4730.975        3.939        2.993      137.631       94.326        0.470      341.982       17.072      855.452
05/07/2014  15:46:00     -129.389      290.157      -32.909       62.221      102.699       58.906     3871.398    10547.113     3469.913        5.995        0.894      317.699       53.384        0.028      341.813       16.782      855.419
05/07/2014  15:47:00      -85.754      167.300      -13.504       63.219      125.131       45.582     3996.660    15657.760     2077.755        2.862        1.087      187.998       47.383        0.064      342.075       17.228      855.436
05/07/2014  15:48:00     -248.242      -33.432      -26.186      114.522       96.083       45.420    13115.317     9232.027     2062.995        4.391        1.221      250.483       36.434        0.021      342.089       17.251      855.440
05/07/2014  15:49:00     -113.648       72.578        4.534      122.852      118.254       64.809    15092.501    13983.996     4200.170        2.573        1.664      134.846       67.429        0.250      341.912       16.952      855.417
05/07/2014  15:50:00        0.172      250.906      -27.917       77.876      118.354       52.259     6064.645    14007.562     2730.958        4.326        1.140      250.906       60.073        0.057      341.728       16.641      855.407
05/07/2014  15:51:00      -67.632      191.705      -26.698       89.753      139.444       42.237     8055.562    19444.654     1784.004        3.566        1.464      203.285       36.244        0.032      341.930       16.983      855.367
05/07/2014  15:52:00     -194.824      -48.968       10.519      166.458       84.213       65.154    27708.306     7091.877     4245.096        3.975        1.952      200.883       82.419        0.168      342.101       17.273      855.362
05/07/2014  15:53:00     -263.897      -20.818      -28.932      130.566       93.248       62.350    17047.591     8695.140     3887.567        5.027        1.482      264.717       65.568        0.061      342.001       17.102      855.368
05/07/2014  15:54:00     -281.732      124.076      -41.862      123.275      149.617       62.517    15196.688    22385.174     3908.404        6.900        2.075      307.844       69.038        0.050      341.988       17.078      855.380
05/07/2014  15:55:00     -275.214      -79.571      -20.752      107.275       98.153       53.158    11507.956     9634.050     2825.741        5.323        1.198      286.487       50.874        0.032      341.998       17.097      855.335
05/07/2014  15:56:00     -104.667        2.605       -2.298      109.620       60.112       45.017    12016.489     3613.441     2026.501        1.431        0.883      104.700       54.970        0.276      341.857       16.860      855.315
05/07/2014  15:57:00     -249.137      -74.077       -1.365      172.599      120.779       61.141    29790.266    14587.470     3738.246        5.783        2.406      259.916       57.015        0.048      342.040       17.169      855.282
05/07/2014  15:58:00     -256.463       -5.185        6.826      190.554      193.776       91.454    36310.776    37549.036     8363.806        7.402        4.111      256.515       73.699        0.083      342.077       17.232      855.287
05/07/2014  15:59:00     -224.022      141.043      -30.505      175.735      110.139       87.461    30882.779    12130.560     7649.422        6.083        2.533      264.725       65.220        0.061      342.019       17.133      855.367
05/07/2014  16:00:00     -272.972      127.883      -44.337      223.620      144.801       79.747    50005.825    20967.235     6359.592        8.507        3.867      301.443      112.719        0.140      341.870       16.881      855.379
05/07/2014  16:01:00     -368.585      -85.591      -26.738      180.731      138.623       73.722    32663.716    19216.405     5434.934       10.059        2.866      378.392       50.406        0.018      341.802       16.764      855.356
05/07/2014  16:02:00     -238.156      -67.489      -18.650      190.134      131.897       77.007    36151.091    17396.715     5930.154        6.054        2.974      247.534       73.821        0.089      341.921       16.967      855.353
05/07/2014  16:03:00     -157.100      -51.271        1.329      150.634       97.723       63.358    22690.646     9549.801     4014.237        3.178        1.813      165.255       70.016        0.180      342.173       17.395      855.363
05/07/2014  16:04:00     -215.309       30.914      -30.635      135.757      114.043       79.761    18430.045    13005.709     6361.862        4.302        1.890      217.517       51.352        0.056      342.095       17.261      855.372
05/07/2014  16:05:00     -132.969       42.355        7.482      116.398      127.244       78.294    13548.489    16190.924     6129.898        2.769        1.793      139.551       63.596        0.208      342.023       17.141      855.361
05/07/2014  16:06:00     -192.121      259.854      -41.772      153.536      163.512       94.352    23573.232    26736.251     8902.385        8.268        2.961      323.164       93.813        0.084      341.920       16.963      855.374
05/07/2014  16:07:00     -281.584      304.309      -68.089      120.717      122.555       80.840    14572.476    15019.746     6535.050       10.632        1.806      414.600       75.961        0.034      341.857       16.858      855.399
05/07/2014  16:08:00     -249.552      263.306      -54.919      115.680      117.278       56.518    13381.891    13754.095     3194.234        8.247        1.517      362.776       57.743        0.025      341.791       16.748      855.418
05/07/2014  16:09:00     -125.085      168.120      -17.112       93.175      112.300       52.216     8681.652    12611.259     2726.545        3.411        1.201      209.548       54.675        0.068      341.982       17.070      855.395
05/07/2014  16:10:00     -161.246      213.737      -24.052      123.317      146.609       69.207    15207.014    21494.276     4789.635        5.687        2.075      267.739       78.517        0.086      341.861       16.864      855.408
05/07/2014  16:11:00     -137.469      217.822      -20.045       96.707      110.871       58.752     9352.223    12292.298     3451.847        4.592        1.255      257.573       49.762        0.037      341.833       16.817      855.384
05/07/2014  16:12:00     -212.517      175.795      -43.054       91.320      105.780       56.794     8339.266    11189.436     3225.570        5.033        1.138      275.803       54.526        0.039      342.110       17.285      855.403
05/07/2014  16:13:00     -131.934       63.781      -17.656      113.113      108.083       66.843    12794.598    11681.938     4468.039        2.536        1.447      146.542       52.954        0.131      342.264       17.551      855.402
05/07/2014  16:14:00     -111.568      -82.827      -10.588      127.657      123.091       67.638    16296.284    15151.308     4574.902        2.771        1.801      138.952       74.183        0.285      342.300       17.612      855.362
05/07/2014  16:15:00     -339.952     -125.328      -12.611      226.501      138.852       71.993    51302.680    19279.869     5183.024       10.358        3.788      362.318       94.324        0.068      342.264       17.550      855.328
05/07/2014  16:16:00     -444.296     -131.048      -26.171      180.615      157.744       81.721    32621.932    24883.260     6678.334       13.971        3.209      463.220       72.143        0.024      341.978       17.063      855.324
05/07/2014  16:17:00     -383.597        2.350      -21.448      233.881      149.022       80.100    54700.239    22207.642     6415.995       11.545        4.166      383.604       99.741        0.068      342.336       17.672      855.378
05/07/2014  16:18:00     -200.853      105.440      -15.216      135.827       82.487       66.260    18448.918     6804.183     4390.345        4.066        1.482      226.847       67.808        0.089      341.997       17.096      855.378
05/07/2014  16:19:00     -237.544      -12.084      -20.862      121.847       62.143       38.752    14846.601     3861.808     1501.708        3.861        1.011      237.851       52.572        0.049      341.900       16.932      855.347
05/07/2014  16:20:00     -207.864      -51.126      -11.585      128.457       92.822       44.701    16501.224     8615.905     1998.143        3.653        1.356      214.060       46.257        0.047      342.029       17.149      855.308
05/07/2014  16:21:00     -107.207      150.957       -4.791       91.828      127.677       60.251     8432.331    16301.537     3630.225        3.133        1.418      185.152       52.688        0.081      342.067       17.214      855.327
05/07/2014  16:22:00     -101.839       15.799        0.219       98.121      103.783       60.794     9627.671    10770.993     3695.962        1.735        1.205      103.057       55.523        0.290      342.523       17.992      855.293
05/07/2014  16:23:00     -178.016      -76.568      -17.562       95.181       94.001       45.336     9059.498     8836.196     2055.396        2.890        0.998      193.785       32.259        0.028      342.316       17.637      855.256
05/07/2014  16:24:00     -255.679       15.719      -13.919      200.483      199.724       94.379    40193.523    39889.801     8907.344        7.738        4.450      256.161       98.983        0.149      342.394       17.770      855.277
05/07/2014  16:25:00     -205.483      205.989      -35.445      115.577      159.898       78.925    13357.967    25567.289     6229.121        6.552        2.258      290.955       70.518        0.059      342.537       18.011      855.326
05/07/2014  16:26:00     -160.740      115.346       -7.421       74.573      102.455       59.587     5561.099    10496.928     3550.596        2.940        0.980      197.843       43.370        0.048      342.620       18.154      855.347
05/07/2014  16:27:00     -175.240       37.105       -8.249      117.838      109.906       66.830    13885.722    12079.336     4466.241        3.129        1.522      179.125       64.168        0.128      342.338       17.676      855.345
05/07/2014  16:28:00     -122.532      262.651      -31.682      108.834      142.881       68.475    11844.795    20414.839     4688.828        6.097        1.847      289.827       62.125        0.046      342.168       17.386      855.328
05/07/2014  16:29:00     -180.327      100.580      -39.338      104.843      108.253       66.638    10992.007    11718.634     4440.617        3.566        1.358      206.481       61.793        0.090      342.137       17.334      855.319
05/07/2014  16:30:00     -188.818       31.826      -28.720       98.994       85.286       49.400     9799.727     7273.703     2440.377        2.850        0.976      191.482       47.342        0.061      342.196       17.434      855.321
05/07/2014  16:31:00     -189.499       23.589      -19.542      111.010      106.614       70.684    12323.243    11366.610     4996.288        3.276        1.434      190.962       56.632        0.088      342.310       17.627      855.332
05/07/2014  16:32:00     -234.908      -83.675      -28.837      123.861      120.462       67.120    15341.518    14511.125     4505.159        4.868        1.718      249.366       50.749        0.041      342.129       17.321      855.347
05/07/2014  16:33:00     -305.345       58.739      -38.167      120.191      105.415       62.061    14445.833    11112.307     3851.577        6.377        1.470      310.944       50.796        0.027      342.117       17.300      855.368
05/07/2014  16:34:00     -184.259      -67.126       -4.715      120.075      108.914       62.839    14417.986    11862.162     3948.687        3.435        1.511      196.106       58.236        0.088      342.204       17.447      855.362
05/07/2014  16:35:00     -117.254      -54.885       13.309      127.146       82.030       51.820    16166.002     6728.900     2685.352        2.125        1.279      129.464       44.444        0.118      342.264       17.551      855.361
05/07/2014  16:36:00     -197.100      -59.062      -12.868       74.814       69.731       37.397     5597.122     4862.454     1398.525        2.718        0.593      205.759       25.252        0.015      342.361       17.715      855.338
05/07/2014  16:37:00     -305.652       21.513      -32.501      179.580      212.554       78.126    32249.151    45179.210     6103.619        8.922        4.177      306.408       72.652        0.056      342.173       17.394      855.353
05/07/2014  16:38:00     -213.565      299.040      -38.523      140.806      297.365       76.726    19826.296    88425.878     5886.878       12.531        5.707      367.471       59.331        0.026      342.178       17.404      855.380
05/07/2014  16:39:00     -193.596      -46.494      -41.666      159.766      109.592       69.888    25525.197    12010.340     4884.349        4.189        2.121      199.101       69.254        0.121      342.255       17.534      855.373
05/07/2014  16:40:00      -96.842       56.241       -7.993      123.712      135.577       60.355    15304.653    18381.110     3642.682        2.496        1.866      111.989       57.572        0.264      342.596       18.115      855.373
05/07/2014  16:41:00     -336.289      -56.929      -45.134      144.756      146.199       72.631    20954.365    21374.041     5275.257        8.298        2.380      341.073       51.450        0.023      342.299       17.609      855.380
05/07/2014  16:42:00     -180.168        8.333       -0.479      144.133      132.079       75.065    20774.406    17444.973     5634.811        3.818        2.193      180.361       53.850        0.089      342.328       17.659      855.414
05/07/2014  16:43:00     -169.163      186.751      -14.160      144.730      155.773       68.988    20946.840    24265.130     4759.399        5.682        2.499      251.976       54.666        0.047      342.291       17.596      855.422
05/07/2014  16:44:00     -295.390      -66.496      -11.851      194.224      131.724       68.255    37722.771    17351.126     4658.686        7.576        2.987      302.782       48.394        0.026      342.395       17.773      855.418
05/07/2014  16:45:00     -273.638       -3.666        6.298      169.612       88.364       66.614    28768.069     7808.153     4437.416        5.796        2.051      273.663       75.727        0.077      342.381       17.747      855.429
05/07/2014  16:46:00     -298.903       15.394      -24.721      155.107       87.855       69.774    24058.189     7718.588     4868.425        6.341        1.832      299.299       74.143        0.061      342.325       17.651      855.471
05/07/2014  16:47:00     -166.284      -17.356       -9.388      120.616       60.579       53.545    14548.110     3669.785     2867.089        2.456        1.054      167.187       51.857        0.096      342.178       17.405      855.447
05/07/2014  16:48:00     -109.101      -32.081        1.421       94.542       69.258       41.558     8938.130     4796.729     1727.031        1.419        0.773      113.720       33.593        0.087      342.364       17.720      855.430
05/07/2014  16:49:00     -175.164      -16.628       -8.017      103.464       94.123       51.499    10704.711     8859.160     2652.187        2.662        1.111      175.952       47.324        0.072      342.341       17.680      855.443
05/07/2014  16:50:00     -242.498      -34.322      -15.483      107.177      105.786       56.946    11487.003    11190.712     3242.853        4.307        1.296      244.915       49.838        0.041      342.416       17.807      855.473
05/07/2014  16:51:00     -242.041       58.037      -40.317      180.057      220.093       78.452    32420.618    48441.139     6154.695        7.528        4.351      248.901       63.782        0.066      342.296       17.604      855.489
05/07/2014  16:52:00     -214.511       58.808      -17.516      178.174      101.893       74.546    31746.024    10382.207     5557.091        4.872        2.384      222.426       89.611        0.162      342.137       17.333      855.516
05/07/2014  16:53:00     -210.803       77.561      -15.582      160.942      104.476       62.429    25902.442    10915.252     3897.433        4.570        2.036      224.619       63.993        0.081      342.200       17.440      855.477
05/07/2014  16:54:00     -124.602      250.370      -39.927      147.096      151.887       69.203    21637.147    23069.707     4789.072        6.464        2.475      279.662       71.546        0.065      341.928       16.980      855.456
05/07/2014  16:55:00     -129.035      181.393      -32.637       86.315      100.099       46.906     7450.319    10019.794     2200.188        3.514        0.984      222.606       45.904        0.043      342.273       17.565      855.457
05/07/2014  16:56:00     -170.539      176.119      -19.625      142.322      135.316       68.562    20255.567    18310.461     4700.813        5.187        2.163      245.156       67.350        0.075      342.254       17.532      855.483
05/07/2014  16:57:00     -226.405      260.915      -46.612      154.651      156.317       86.813    23916.874    24434.990     7536.545        8.869        2.794      345.450       79.297        0.053      341.959       17.029      855.512
05/07/2014  16:58:00     -211.670       75.282      -20.302      184.095      147.431       79.621    33890.839    21735.863     6339.581        5.641        3.098      224.659       87.597        0.152      342.162       17.376      855.502
05/07/2014  16:59:00     -216.488       73.860      -14.626      123.530      122.946       65.796    15259.638    15115.836     4329.116        4.361        1.735      228.741       57.767        0.064      342.113       17.292      855.504
05/07/2014  17:00:00     -386.199      -20.983      -38.520      163.345      177.743       77.259    26681.627    31592.497     5968.970       10.765        3.212      386.768       65.246        0.028      342.066       17.212      855.472
05/07/2014  17:01:00     -247.149      -60.227       -4.769      184.933      135.357       76.757    34200.334    18321.547     5891.700        6.156        2.921      254.382       89.484        0.124      342.128       17.320      855.504
05/07/2014  17:02:00     -210.342      109.072      -35.858      116.797      129.784       63.203    13641.562    16843.842     3994.634        4.595        1.724      236.940       54.660        0.053      342.056       17.196      855.517
05/07/2014  17:03:00     -283.283      -16.469      -27.713      174.156       78.920       62.897    30330.376     6228.335     3955.974        6.089        2.026      283.761       88.353        0.097      341.935       16.990      855.499
05/07/2014  17:04:00     -281.204       50.995      -31.002      109.925      138.235       67.472    12083.598    19108.793     4552.516        5.918        1.787      285.791       58.287        0.042      342.094       17.259      855.487
05/07/2014  17:05:00     -263.048       92.649      -34.034      162.867       87.154       66.163    26525.644     7595.845     4377.482        5.871        1.925      278.887       70.491        0.064      342.088       17.251      855.518
05/07/2014  17:06:00     -245.204       72.626      -33.332      157.554      129.485       74.311    24823.234    16766.425     5522.196        5.680        2.356      255.733       74.437        0.085      341.975       17.058      855.528
05/07/2014  17:07:00      -97.562       80.771      -12.765       81.716      112.221       46.499     6677.490    12593.484     2162.185        1.881        1.072      126.658       38.155        0.091      341.954       17.024      855.512
05/07/2014  17:08:00     -134.401       52.166      -10.683       99.969       91.779       45.802     9993.866     8423.448     2097.785        2.070        1.026      144.170       50.994        0.125      342.031       17.155      855.506
05/07/2014  17:09:00      -97.390       76.157       -3.424       71.466      104.552       52.789     5107.399    10931.192     2786.715        1.706        0.941      123.631       52.783        0.182      342.204       17.449      855.516
05/07/2014  17:10:00      -73.935       -1.343       -2.273       92.944       74.494       44.405     8638.537     5549.394     1971.844        1.081        0.808       73.947       41.832        0.320      342.148       17.355      855.503
05/07/2014  17:11:00     -242.360       48.139      -34.367      103.279      121.973       54.155    10666.492    14877.469     2932.769        4.535        1.424      247.095       41.267        0.028      341.987       17.078      855.511
05/07/2014  17:12:00     -105.131      122.343       -7.986       76.060      126.170       49.500     5785.082    15918.848     2450.287        2.511        1.208      161.308       52.524        0.106      341.889       16.912      855.493
05/07/2014  17:13:00      -77.880       21.115       20.052       68.122       69.220       45.444     4640.625     4791.415     2065.181        0.920        0.575       80.691       47.745        0.350      342.310       17.629      855.483
05/07/2014  17:14:00      -97.786       20.354       -6.899       92.917       68.397       47.279     8633.588     4678.127     2235.320        1.278        0.777       99.882       36.971        0.137      342.271       17.563      855.525
05/07/2014  17:15:00     -159.852      -33.103      -13.614       97.276       73.110       44.219     9462.564     5345.018     1955.350        2.180        0.838      163.244       39.407        0.058      342.360       17.712      855.539
05/07/2014  17:16:00      -43.677       -8.020       24.221       82.779       75.871       54.749     6852.321     5756.373     2997.504        0.908        0.780       44.407       52.297        1.387      342.272       17.567      855.530
05/07/2014  17:17:00     -279.876     -113.683       -0.263      177.516      108.663       65.358    31511.992    11807.627     4271.697        6.941        2.380      302.083       67.608        0.050      342.213       17.463      855.538
05/07/2014  17:18:00     -215.930      -58.509       -0.240      156.763       96.141       69.610    24574.632     9243.000     4845.567        4.435        1.933      223.716       67.387        0.091      342.374       17.737      855.564
05/07/2014  17:19:00     -342.358     -138.687      -35.238      184.864      137.357       73.721    34174.787    18867.045     5434.762        9.807        2.924      369.382       72.899        0.039      342.048       17.183      855.549
05/07/2014  17:20:00     -276.539     -104.747      -18.443      112.683      105.681       66.532    12697.399    11168.383     4426.501        5.803        1.415      295.713       44.017        0.022      342.052       17.188      855.550
05/07/2014  17:21:00     -201.010       53.579      -23.721       91.014      128.422       52.867     8283.591    16492.333     2794.925        3.570        1.379      208.028       47.229        0.052      342.118       17.302      855.585
05/07/2014  17:22:00     -174.788      249.706      -37.122       97.072      146.300       69.198     9423.013    21403.658     4788.376        6.494        1.781      304.802       77.645        0.065      341.877       16.892      855.631
05/07/2014  17:23:00     -152.462      290.933      -44.583      129.818      143.204       71.633    16852.702    20507.385     5131.306        7.617        2.125      328.461       79.065        0.058      341.761       16.695      855.627
05/07/2014  17:24:00      -84.976      206.904      -15.669       86.951      148.110       61.180     7560.476    21936.557     3742.962        4.175        1.662      223.674       57.676        0.066      341.859       16.862      855.617
05/07/2014  17:25:00     -140.135      168.225      -25.524       71.778       84.396       64.456     5152.069     7122.639     4154.597        3.251        0.821      218.946       47.548        0.047      341.886       16.906      855.644
05/07/2014  17:26:00     -152.482      226.879      -32.944       67.735       83.251       53.618     4588.080     6930.738     2874.889        4.510        0.720      273.359       44.504        0.027      341.717       16.621      855.649
05/07/2014  17:27:00     -107.188      136.812      -32.238       72.469       97.787       37.679     5251.778     9562.339     1419.689        2.374        0.812      173.801       26.342        0.023      341.773       16.717      855.655
05/07/2014  17:28:00      -97.468       84.916       -0.815       87.697      105.543       45.454     7690.756    11139.367     2066.043        1.880        1.045      129.270       52.332        0.164      341.959       17.032      855.664
05/07/2014  17:29:00     -150.553      -47.056       -7.771       82.436       70.344       48.947     6795.662     4948.253     2395.822        1.954        0.707      157.735       36.527        0.054      341.891       16.917      855.661
05/07/2014  17:30:00     -202.028      -55.837      -10.174       83.847       75.016       48.047     7030.332     5627.471     2308.525        2.950        0.748      209.602       44.497        0.045      341.781       16.729      855.668
05/07/2014  17:31:00     -333.734       15.730      -36.709       92.380       94.593       44.828     8534.044     8947.908     2009.521        6.623        0.975      334.105       44.062        0.017      341.664       16.530      855.677
05/07/2014  17:32:00     -300.363      -92.983      -32.912      100.282       88.438       47.565    10056.380     7821.351     2262.414        6.004        1.007      314.426       36.527        0.013      341.649       16.504      855.681
05/07/2014  17:33:00     -213.560      -69.337       -0.548      101.154       89.075       42.839    10232.063     7934.405     1835.152        3.520        1.000      224.534       43.451        0.037      341.674       16.547      855.687
05/07/2014  17:34:00     -166.847       -9.146      -13.659       57.134       63.102       35.616     3264.271     3981.919     1268.524        1.831        0.426      167.098       36.647        0.048      341.752       16.681      855.693
05/07/2014  17:35:00     -180.186       36.889      -17.778      115.642       57.234       42.455    13373.180     3275.785     1802.432        2.629        0.923      183.923       53.359        0.084      341.749       16.676      855.691
05/07/2014  17:36:00      -86.794      -31.376       -0.738       77.781       70.698       48.393     6049.890     4998.272     2341.850        1.095        0.670       92.291       31.794        0.119      341.802       16.767      855.672
05/07/2014  17:37:00     -166.703      -61.824       -2.928       90.899       76.198       57.873     8262.608     5806.167     3349.291        2.452        0.871      177.798       32.020        0.032      341.735       16.651      855.658
05/07/2014  17:38:00     -150.094      -22.887       -6.879       64.132       67.327       42.406     4112.880     4532.868     1798.257        1.677        0.522      151.829       32.519        0.046      341.828       16.810      855.668
05/07/2014  17:39:00     -196.199      -26.004       -5.583       80.338       67.251       38.195     6454.221     4522.721     1458.868        2.582        0.622      197.915       43.054        0.047      341.768       16.707      855.680
05/07/2014  17:40:00     -179.166      116.100      -26.927      116.745       97.129       59.812    13629.475     9434.073     3577.416        3.647        1.332      213.494       57.844        0.073      341.718       16.622      855.689
05/07/2014  17:41:00     -121.887      131.492      -22.678       82.643       76.928       40.154     6829.907     5917.952     1612.305        2.351        0.718      179.295       25.645        0.020      341.794       16.753      855.694
05/07/2014  17:42:00     -121.236       43.259       -8.124       56.987       80.017       39.214     3247.502     6402.784     1537.718        1.391        0.559      128.723       26.146        0.041      341.904       16.941      855.697
05/07/2014  17:43:00     -167.972       44.536      -28.513       78.190       79.585       41.853     6113.748     6333.826     1751.639        2.260        0.710      173.776       38.346        0.049      341.803       16.769      855.715
05/07/2014  17:44:00      -97.607      -26.259       -5.461      100.089       80.911       52.574    10017.804     6546.522     2764.054        1.478        0.966      101.077       63.025        0.389      341.825       16.806      855.705
05/07/2014  17:45:00     -159.570       44.701      -24.872       79.004       87.458       38.890     6241.649     7648.963     1512.470        2.174        0.770      165.713       35.643        0.046      341.707       16.605      855.710
05/07/2014  17:46:00      -82.916       14.450       -2.609       75.413       90.864       40.903     5687.122     8256.191     1673.046        1.135        0.781       84.165       31.510        0.140      341.750       16.679      855.717
05/07/2014  17:47:00     -123.323       43.521      -10.952       77.367       99.092       36.056     5985.721     9819.211     1300.036        1.716        0.855      130.778       26.607        0.041      341.797       16.758      855.727
05/07/2014  17:48:00      -78.481       53.440        4.652       75.617       63.103       35.187     5717.925     3981.926     1238.140        0.999        0.547       94.948       35.689        0.141      341.831       16.817      855.726
05/07/2014  17:49:00     -108.331       64.181      -12.371       43.654       72.827       33.309     1905.691     5303.820     1109.520        1.216        0.416      125.916       26.508        0.044      341.771       16.715      855.736
05/07/2014  17:50:00     -165.173       -9.338      -18.956       90.591       98.317       50.234     8206.650     9666.323     2523.417        2.406        1.020      165.437       47.337        0.082      341.838       16.828      855.751
05/07/2014  17:51:00     -162.404       55.791       -0.285      105.691       75.922       49.272    11170.486     5764.074     2427.689        2.442        0.968      171.720       47.882        0.078      341.776       16.722      855.742
05/07/2014  17:52:00     -109.766       32.663       -2.431       91.795      109.546       44.467     8426.295    12000.430     1977.329        1.776        1.120      114.522       35.299        0.095      341.787       16.742      855.742
05/07/2014  17:53:00     -117.337       -1.341       -9.018       82.238       61.074       50.081     6763.011     3730.038     2508.157        1.342        0.650      117.344       45.099        0.148      341.894       16.924      855.743
05/07/2014  17:54:00      -84.171      -30.617        7.645       91.687       55.010       37.019     8406.505     3026.120     1370.417        1.044        0.640       89.567       41.933        0.219      341.903       16.938      855.739
05/07/2014  17:55:00     -149.957       30.116      -25.265      118.520       82.031       48.423    14046.946     6729.155     2344.777        2.357        1.156      152.951       57.902        0.143      341.883       16.902      855.759
05/07/2014  17:56:00     -144.225       15.724       -5.608       86.378       57.999       53.081     7461.096     3363.910     2817.555        1.736        0.682      145.079       48.430        0.111      341.989       17.084      855.754
05/07/2014  17:57:00     -257.556      -26.588       -1.429      152.212      120.351       63.161    23168.576    14484.246     3989.315        5.433        2.082      258.925       55.755        0.046      341.839       16.828      855.758
05/07/2014  17:58:00     -246.162      -23.816      -19.991       70.290      100.902       36.974     4940.665    10181.190     1367.054        3.902        0.824      247.311       32.235        0.017      341.848       16.841      855.769
05/07/2014  17:59:00     -243.786      -52.570      -17.278       64.751       65.081       35.072     4192.731     4235.599     1230.060        3.607        0.483      249.389       32.127        0.017      341.787       16.740      855.775
05/07/2014  18:00:00     -192.253      -26.660       -2.445       99.747       53.747       39.868     9949.421     2888.782     1589.473        2.605        0.721      194.093       43.560        0.050      341.751       16.678      855.755
05/07/2014  18:01:00      -90.309      -50.106        8.791       64.058       63.105       30.836     4103.400     3982.192      950.841        0.989        0.452      103.278       30.305        0.086      341.764       16.702      855.754
05/07/2014  18:02:00     -105.452       13.777      -22.718       64.595       66.949       40.663     4172.517     4482.120     1653.469        1.106        0.515      106.348       31.100        0.086      341.792       16.750      855.759
05/07/2014  18:03:00      -84.342       55.578        5.543       54.346       57.463       45.620     2953.475     3301.946     2081.209        0.928        0.417      101.007       40.153        0.158      341.830       16.815      855.741
05/07/2014  18:04:00      -93.305      122.434      -22.245       89.716       81.434       47.556     8048.965     6631.542     2261.615        2.056        0.847      153.935       46.934        0.093      341.824       16.802      855.757
05/07/2014  18:05:00      -46.349       95.899       -9.689       43.795      100.874       35.406     1918.039    10175.624     1253.565        1.239        0.667      106.512       47.318        0.197      341.882       16.903      855.745
05/07/2014  18:06:00     -100.952      -25.982       -6.444       58.949       45.460       28.256     3475.009     2066.585      798.390        0.862        0.317      104.242       18.335        0.031      342.045       17.179      855.729
05/07/2014  18:07:00     -150.321      -66.458      -12.646       85.273       57.242       43.215     7271.472     3276.653     1867.504        1.979        0.621      164.357       43.549        0.070      341.820       16.796      855.723
05/07/2014  18:08:00     -208.369      -50.687       -9.589      137.662       61.079       39.530    18950.800     3730.669     1562.636        3.516        1.212      214.445       54.670        0.065      341.773       16.717      855.710
05/07/2014  18:09:00     -151.306      -91.085        4.516       74.049       60.437       35.774     5483.234     3652.681     1279.770        2.081        0.521      176.607       28.204        0.026      341.780       16.728      855.698
05/07/2014  18:10:00      -93.811      -23.781       -6.850       42.540       43.349       25.531     1809.637     1879.120      651.843        0.688        0.217       96.778       15.788        0.027      341.834       16.824      855.715
05/07/2014  18:11:00      -68.526      -66.348        2.842       42.645       47.069       29.953     1818.620     2215.460      897.162        0.702        0.247       95.383       19.354        0.041      341.867       16.878      855.700
05/07/2014  18:12:00     -139.221      -14.589      -15.099       53.754       46.603       33.446     2889.478     2171.845     1118.638        1.300        0.309      139.983       32.050        0.052      341.843       16.837      855.697
05/07/2014  18:13:00     -129.480       28.996      -20.007       32.712       50.329       25.262     1070.091     2533.004      638.162        1.112        0.212      132.687       20.383        0.024      341.868       16.878      855.701
05/07/2014  18:14:00      -99.003      -36.755      -15.477       82.467       46.287       33.065     6800.873     2142.487     1093.265        1.071        0.502      105.605       29.267        0.077      341.951       17.019      855.708
05/07/2014  18:15:00      -48.458      -36.915        6.533       79.132       45.605       32.553     6261.886     2079.773     1059.705        0.658        0.470       60.917       28.755        0.223      341.921       16.968      855.709
05/07/2014  18:16:00      -62.666       22.507        1.511       68.331       79.859       34.459     4669.168     6377.411     1187.426        0.833        0.612       66.585       40.766        0.375      341.923       16.973      855.720
05/07/2014  18:17:00      -79.506       71.628       -3.712       53.351       57.633       33.221     2846.293     3321.541     1103.642        0.937        0.364      107.013       33.399        0.097      341.921       16.969      855.736
05/07/2014  18:18:00     -227.271       56.981      -33.381      129.983      120.546       50.690    16895.497    14531.274     2569.430        4.500        1.700      234.305       57.409        0.060      341.862       16.869      855.750
05/07/2014  18:19:00     -258.454       27.232      -37.123       86.230      123.423       58.080     7435.563    15233.122     3373.239        4.747        1.302      259.884       48.496        0.035      341.724       16.632      855.730
05/07/2014  18:20:00     -148.451       53.246       -7.780      131.692       71.741       51.852    17342.777     5146.811     2688.635        2.505        1.259      157.712       65.515        0.173      341.787       16.741      855.723
05/07/2014  18:21:00     -169.432       63.278      -37.327       65.537       67.058       46.695     4295.041     4496.815     2180.464        2.254        0.549      180.863       40.057        0.049      341.751       16.677      855.727
05/07/2014  18:22:00     -121.461        3.904      -22.217       78.674       69.829       55.718     6189.621     4876.120     3104.443        1.471        0.709      121.524       35.008        0.083      341.850       16.847      855.744
05/07/2014  18:23:00     -112.360      152.009      -12.340      101.384       97.239       59.898    10278.665     9455.377     3587.776        2.960        1.166      189.028       70.257        0.138      341.840       16.829      855.773
05/07/2014  18:24:00     -130.978      139.838      -27.306       93.450       87.104       50.273     8732.948     7587.021     2527.348        2.815        0.942      191.598       48.659        0.064      341.755       16.686      855.768
05/07/2014  18:25:00     -127.723       98.241       -7.762       76.051       93.436       44.575     5783.769     8730.320     1986.912        2.126        0.825      161.135       36.162        0.050      341.841       16.832      855.764
05/07/2014  18:26:00     -187.367       71.624      -17.648      104.744      101.906       53.958    10971.347    10384.847     2911.483        3.240        1.213      200.590       43.763        0.048      341.852       16.850      855.756
05/07/2014  18:27:00     -231.551       52.760      -19.587      106.852      121.165       55.868    11417.275    14680.963     3121.281        4.300        1.461      237.485       61.234        0.066      341.795       16.753      855.769
05/07/2014  18:28:00     -104.456      154.615      -17.986       95.485      114.453       60.335     9117.408    13099.597     3640.339        3.049        1.293      186.593       69.108        0.137      341.725       16.634      855.779
05/07/2014  18:29:00     -101.554      156.827      -17.269       90.085       97.092       52.697     8115.258     9426.783     2776.955        2.776        1.016      186.836       59.923        0.103      341.730       16.644      855.769
05/07/2014  18:30:00     -120.507      178.682      -15.501       60.207       67.929       48.317     3624.880     4614.309     2334.502        2.863        0.529      215.521       40.441        0.035      341.727       16.638      855.773
05/07/2014  18:31:00     -114.939       -0.865      -10.313       46.884       64.608       32.456     2198.079     4174.137     1053.402        1.037        0.371      114.942       24.912        0.047      341.864       16.873      855.773
05/07/2014  18:32:00     -150.776      -36.124       -6.975       72.515       64.385       32.346     5258.372     4145.469     1046.263        1.727        0.523      155.043       30.585        0.039      341.764       16.701      855.766
05/07/2014  18:33:00     -105.903       -3.523       -1.083       51.607       35.404       26.583     2663.247     1253.445      706.655        0.793        0.231      105.962       22.127        0.044      341.946       17.012      855.781
05/07/2014  18:34:00      -67.998      110.819      -19.886       48.564      105.561       33.244     2358.445    11143.028     1105.132        1.595        0.730      130.017       46.784        0.129      341.770       16.714      855.791
05/07/2014  18:35:00      -71.671       52.876        0.523       76.591       62.845       42.563     5866.189     3949.510     1811.577        0.978        0.581       89.066       31.812        0.128      341.860       16.865      855.784
05/07/2014  18:36:00     -175.254       89.758      -31.859       73.040       68.369       38.157     5334.844     4674.328     1455.971        2.562        0.573      196.903       45.083        0.052      341.811       16.781      855.794
05/07/2014  18:37:00     -165.395      180.704      -48.566       75.991       78.945       44.619     5774.640     6232.348     1990.826        3.818        0.700      244.969       47.485        0.038      341.661       16.527      855.790
05/07/2014  18:38:00     -104.669       95.923      -22.658       95.454       71.612       36.988     9111.376     5128.338     1368.077        1.814        0.780      141.975       53.631        0.143      341.773       16.718      855.786
05/07/2014  18:39:00      -94.219      176.850      -11.557       49.943      101.030       44.906     2494.317    10207.140     2016.560        2.750        0.736      200.383       42.964        0.046      341.614       16.445      855.790
05/07/2014  18:40:00     -142.362      -40.358       -6.226       91.933       74.668       48.493     8451.634     5575.329     2351.534        1.915        0.819      147.972       49.392        0.111      341.761       16.696      855.793
05/07/2014  18:41:00     -346.863      -74.448      -17.710      115.291       97.368       54.907    13292.096     9480.464     3014.724        7.597        1.289      354.763       57.567        0.026      341.553       16.342      855.796
05/07/2014  18:42:00     -201.894        8.006       -7.608       88.327       69.428       45.776     7801.690     4820.296     2095.480        2.780        0.736      202.052       48.082        0.057      341.480       16.218      855.787
05/07/2014  18:43:00     -157.731      -80.247       17.429      141.627       99.072       64.534    20058.067     9815.320     4164.582        3.282        1.702      176.971       72.147        0.166      341.557       16.350      855.778
05/07/2014  18:44:00     -149.414      -46.296      -11.180      128.693       73.618       46.144    16561.813     5419.671     2129.274        2.435        1.206      156.422       38.981        0.062      341.579       16.386      855.763
05/07/2014  18:45:00     -290.288      -46.738      -17.365      118.547      104.439       49.122    14053.381    10907.585     2412.953        5.706        1.369      294.026       45.526        0.024      341.507       16.264      855.753
05/07/2014  18:46:00     -172.936      -70.286        2.385      128.586      115.202       71.482    16534.358    13271.603     5109.740        3.488        1.746      186.674       71.600        0.147      341.513       16.275      855.771
05/07/2014  18:47:00     -301.593      -40.439        3.378      143.015      127.908       78.225    20453.200    16360.439     6119.081        6.776        2.147      304.292       73.726        0.059      341.424       16.122      855.761
05/07/2014  18:48:00     -283.024     -198.384      -12.709      196.397      164.754       77.945    38571.601    27143.790     6075.432        9.569        3.590      345.628       75.389        0.048      341.368       16.029      855.757
05/07/2014  18:49:00     -342.290     -167.844      -16.538      163.302      160.364       76.082    26667.513    25716.608     5788.480       10.188        2.909      381.227       91.648        0.058      341.333       15.970      855.751
05/07/2014  18:50:00     -268.971     -110.381       11.376      239.742      140.802       93.477    57476.368    19825.187     8738.007        8.533        4.302      290.739      126.670        0.190      341.284       15.888      855.752
05/07/2014  18:51:00     -353.116     -211.230      -17.844      210.506      168.566       89.801    44312.900    28414.571     8064.276       12.519        4.040      411.471       95.214        0.054      341.309       15.929      855.775
05/07/2014  18:52:00     -396.727     -241.284      -11.020      213.817      174.270      113.522    45717.511    30369.888    12887.226       15.234        4.449      464.339      116.793        0.063      341.300       15.914      855.791
05/07/2014  18:53:00     -343.344     -174.914      -13.685      238.512      141.580       95.743    56887.887    20044.839     9166.699       11.737        4.305      385.331      113.946        0.087      341.279       15.879      855.825
05/07/2014  18:54:00     -384.620     -195.322      -12.986      269.535      177.094       98.808    72649.030    31362.360     9762.986       14.999        5.689      431.373       85.995        0.040      341.268       15.860      855.833
05/07/2014  18:55:00     -440.910     -144.293      -30.705      191.198      185.417       86.361    36556.505    34379.286     7458.198       14.726        3.920      463.920       90.460        0.038      341.234       15.802      855.865
05/07/2014  18:56:00     -434.570     -167.533       -9.373      201.831      142.638       89.190    40735.896    20345.505     7954.780       14.301        3.452      465.745       95.011        0.042      341.215       15.770      855.874
05/07/2014  18:57:00     -355.505     -170.694      -13.393      138.569      139.218       71.705    19201.290    19381.609     5141.581        9.970        2.186      394.361       75.378        0.037      341.261       15.847      855.866
05/07/2014  18:58:00     -370.897      -76.423      -10.148      270.972      153.139       97.685    73425.856    23451.441     9542.296       12.494        5.321      378.689      127.594        0.114      341.271       15.864      855.852
05/07/2014  18:59:00     -378.583     -160.474      -21.882      160.442      112.425       75.442    25741.476    12639.409     5691.515       10.681        2.204      411.190       78.846        0.037      341.264       15.853      855.869
05/07/2014  19:00:00     -327.006     -152.785       -5.366      144.861      126.811       74.112    20984.820    16081.121     5492.575        8.642        2.128      360.938       75.484        0.044      341.283       15.886      855.877
05/07/2014  19:01:00     -326.489      -81.352       14.669      207.273      141.664       89.128    42962.107    20068.788     7943.737        9.219        3.549      336.472      111.583        0.110      341.271       15.863      855.898
05/07/2014  19:02:00     -432.157     -195.600       -8.771      214.305      198.468       94.849    45926.774    39389.541     8996.272       15.969        4.716      474.361       99.325        0.044      341.218       15.775      855.865
05/07/2014  19:03:00     -380.033     -245.796       -2.864      212.576      207.360      106.471    45188.603    42997.997    11335.978       15.217        4.976      452.593      114.740        0.064      341.215       15.771      855.873
05/07/2014  19:04:00     -335.701     -240.510        2.460      193.712      138.050       78.846    37524.263    19057.745     6216.745       11.666        3.140      412.966       88.282        0.046      341.196       15.738      855.888
05/07/2014  19:05:00     -320.631     -146.979       -3.595      130.852      144.911       73.492    17122.157    20999.158     5401.091        8.396        2.176      352.714       66.124        0.035      341.229       15.794      855.908
05/07/2014  19:06:00     -231.975      -97.497       10.301      176.514      122.682       67.809    31157.191    15050.866     4598.005        5.710        2.540      251.631       92.365        0.135      341.271       15.865      855.947
05/07/2014  19:07:00     -201.387      -68.575       -6.492      118.656       89.248       71.572    14079.194     7965.287     5122.488        3.623        1.358      212.742       39.057        0.034      341.327       15.960      855.964
05/07/2014  19:08:00     -299.106     -112.720       -5.511      238.423      109.016       76.522    56845.402    11884.493     5855.685        8.838        3.729      319.641       99.905        0.098      341.298       15.911      855.971
05/07/2014  19:09:00     -374.563     -223.922      -17.106      184.582      128.863       73.312    34070.489    16605.556     5374.649       12.338        2.803      436.393       85.534        0.038      341.265       15.856      855.988
05/07/2014  19:10:00     -296.392     -192.522      -14.981      175.074      105.404       69.892    30650.917    11110.020     4884.890        8.588        2.332      353.431       79.434        0.051      341.302       15.918      855.993
05/07/2014  19:11:00     -211.651     -121.908        1.761      143.069      108.539       69.047    20468.646    11780.717     4767.465        4.833        1.851      244.249       81.684        0.112      341.334       15.972      856.002
05/07/2014  19:12:00     -276.950     -112.942      -20.499       92.158      102.997       53.737     8493.136    10608.365     2887.679        5.593        1.099      299.094       43.734        0.021      341.347       15.994      855.998
05/07/2014  19:13:00     -474.541     -288.986      -24.472      188.308      151.888       82.281    35459.994    23069.931     6770.087       18.729        3.265      555.609       73.787        0.018      341.247       15.822      855.997
05/07/2014  19:14:00     -320.773     -174.829       -5.453      165.990      107.167       70.972    27552.577    11484.730     5037.027        8.877        2.204      365.322       69.128        0.036      341.294       15.903      856.005
05/07/2014  19:15:00     -172.579      -48.993        3.792      116.109       83.051       53.391    13481.338     6897.427     2850.562        2.771        1.161      179.399       58.595        0.107      341.377       16.044      856.041
05/07/2014  19:16:00     -353.892      -76.730      -22.856      131.127      142.366       61.311    17194.201    20268.135     3758.989        8.643        2.061      362.114       46.013        0.016      341.317       15.943      856.039
05/07/2014  19:17:00     -105.979      -78.241       10.038      146.707      136.333       68.504    21522.992    18586.551     4692.853        3.112        2.240      131.731       68.380        0.269      341.418       16.114      856.047
05/07/2014  19:18:00     -373.801     -238.358       -7.098      216.489      167.980       95.693    46867.606    28217.345     9157.088       14.040        4.212      443.330      114.619        0.067      341.251       15.830      856.045
05/07/2014  19:19:00     -526.008     -343.351      -25.631      296.871      256.363      120.156    88132.565    65721.966    14437.553       28.173        8.415      628.151      154.297        0.060      341.149       15.657      856.042
05/07/2014  19:20:00     -361.047     -174.428      -22.122      211.414      165.453       77.161    44695.806    27374.779     5953.756       11.963        3.901      400.974       78.812        0.039      341.130       15.625      856.058
05/07/2014  19:21:00     -283.116     -177.132       12.479      194.735      159.211       84.271    37921.721    25348.245     7101.634        9.101        3.519      333.962       92.880        0.077      341.145       15.651      856.058
05/07/2014  19:22:00     -358.427     -166.844      -15.324      149.673      168.063       85.067    22402.056    28245.172     7236.423       10.720        2.894      395.356       83.496        0.045      341.121       15.610      856.049
05/07/2014  19:23:00     -401.087     -107.498       -9.033      207.911      166.933       86.007    43226.907    27866.624     7397.281       12.548        3.925      415.243       97.111        0.055      341.136       15.635      856.065
05/07/2014  19:24:00     -367.543     -191.609      -11.808      142.746      122.846       74.702    20376.464    15091.208     5580.378       10.649        2.052      414.490       68.356        0.027      341.125       15.617      856.119
05/07/2014  19:25:00     -296.534     -188.380        3.041      229.915      197.487      102.426    52860.860    39001.024    10490.993       11.287        5.118      351.311      117.979        0.113      341.113       15.596      856.138
05/07/2014  19:26:00     -437.923      -26.818       -1.025      240.136      161.004       99.279    57665.538    25922.330     9856.354       14.295        4.672      438.743      110.422        0.063      341.116       15.603      856.199
05/07/2014  19:27:00     -506.020      -90.041      -20.127      235.243      247.482       97.314    55339.064    61247.455     9469.932       19.529        6.303      513.969      100.470        0.038      341.085       15.550      856.219
05/07/2014  19:28:00     -350.467      -97.243      -17.964      208.806      150.894       80.278    43599.927    22768.959     6444.606       10.270        3.641      363.708       89.438        0.060      341.122       15.612      856.253
05/07/2014  19:29:00     -250.651     -124.923        8.547      195.951      156.795       94.007    38396.714    24584.798     8837.380        7.515        3.591      280.057      101.554        0.131      341.096       15.568      856.245
05/07/2014  19:30:00     -300.481     -128.755      -16.958      149.040      107.005       65.684    22213.001    11450.151     4314.452        7.256        1.899      326.905       58.531        0.032      341.065       15.517      856.251
05/07/2014  19:31:00     -306.469     -191.377        8.820      181.021      153.220       82.053    32768.470    23476.514     6732.694        9.679        3.149      361.315       94.438        0.068      341.001       15.407      856.235
05/07/2014  19:32:00     -371.735     -183.105      -17.587      215.366      168.232       74.887    46382.502    28302.112     5608.041       12.614        4.015      414.384       92.005        0.049      340.969       15.353      856.247
05/07/2014  19:33:00     -370.578     -185.298      -13.888      213.485      138.636       85.070    45575.662    19219.860     7236.960       12.193        3.602      414.323      101.782        0.060      340.981       15.374      856.257
05/07/2014  19:34:00     -247.297      -47.891       -7.785      122.005       84.764       58.516    14885.122     7185.009     3424.088        4.450        1.275      251.892       51.553        0.042      341.001       15.408      856.299
05/07/2014  19:35:00     -167.355     -125.372       41.443      215.527      164.124      105.030    46452.059    26936.625    11031.248        6.491        4.221      209.107      114.463        0.300      340.974       15.364      856.304
05/07/2014  19:36:00     -376.630      -75.748      -11.284      178.289      155.465       72.900    31786.840    24169.230     5314.359       10.448        3.064      384.172       61.289        0.025      340.942       15.307      856.316
05/07/2014  19:37:00     -374.582      -67.791      -16.958      201.381      205.944       98.584    40554.443    42412.762     9718.756       11.892        4.634      380.667       86.016        0.051      340.894       15.226      856.325
05/07/2014  19:38:00     -499.015     -107.635      -34.034      195.604      185.122       84.746    38260.913    34270.117     7181.945       17.072        3.986      510.491       85.008        0.028      340.863       15.174      856.339
05/07/2014  19:39:00     -275.239     -129.877       -5.054      217.971      156.275      100.035    47511.368    24421.779    10006.991        8.728        4.097      304.342      110.611        0.132      340.874       15.193      856.342
05/07/2014  19:40:00     -154.521      -49.339       33.152      175.424      108.018       98.520    30773.555    11667.879     9706.160        3.977        2.607      162.207       97.998        0.365      340.902       15.239      856.357
05/07/2014  19:41:00     -294.945      -70.799       -2.728      226.560      123.758       68.531    51329.239    15316.020     4696.496        8.166        3.567      303.324       84.674        0.078      340.862       15.173      856.383
05/07/2014  19:42:00     -401.623       12.308      -25.276      244.906      178.907       93.195    59978.710    32007.555     8685.348       13.136        5.034      401.811      113.148        0.079      340.789       15.048      856.377
05/07/2014  19:43:00     -270.208      -26.652      -22.726      139.516      116.197       72.631    19464.759    13501.787     5275.217        5.623        1.912      271.519       74.278        0.075      340.763       15.006      856.370
05/07/2014  19:44:00     -138.017       -5.442       22.387      233.757      122.481       93.337    54642.176    15001.592     8711.864        4.895        3.918      138.125       88.449        0.410      340.759       14.999      856.354
05/07/2014  19:45:00     -415.383     -102.831      -18.193      237.325      172.984       89.359    56323.232    29923.540     7985.012       13.882        4.712      427.922      113.644        0.071      340.715       14.925      856.379
05/07/2014  19:46:00     -248.437     -140.442      -18.179      224.025      132.260       92.111    50187.303    17492.776     8484.466        7.895        3.808      285.385      104.261        0.133      340.695       14.890      856.376
05/07/2014  19:47:00     -352.370      -36.265       -3.066      242.506      116.822       83.678    58809.199    13647.482     7002.075       10.246        3.973      354.231      102.692        0.084      340.678       14.862      856.409
05/07/2014  19:48:00     -364.619      -67.149        0.058      207.139      169.675       87.443    42906.593    28789.711     7646.292       10.838        3.967      370.750       97.219        0.069      340.673       14.853      856.412
05/07/2014  19:49:00     -487.448     -177.474      -15.863      219.444      125.328       81.924    48155.846    15707.053     6711.570       16.995        3.529      518.751      104.665        0.041      340.637       14.790      856.435
05/07/2014  19:50:00     -404.031      -92.076      -14.785      231.515      188.019       98.809    53599.162    35351.259     9763.162       13.531        4.936      414.390      121.037        0.085      340.628       14.776      856.447
05/07/2014  19:51:00     -126.491      -17.573       14.576      121.777      110.453       72.094    14829.712    12199.886     5197.514        2.437        1.611      127.706       65.536        0.263      340.647       14.810      856.461
05/07/2014  19:52:00     -406.582      -86.549      -10.754      342.520      160.345      101.912   117319.635    25710.417    10386.060       16.313        7.671      415.691      127.772        0.094      340.607       14.740      856.473
05/07/2014  19:53:00     -241.214      -78.050       11.199      196.321      146.329       83.746    38541.922    21412.116     7013.357        6.567        3.348      253.527      102.738        0.164      340.617       14.757      856.480
05/07/2014  19:54:00     -484.272      -18.244      -30.027      205.049      180.475       87.905    42045.010    32571.392     7727.226       15.903        4.117      484.615       98.505        0.041      340.589       14.710      856.503
05/07/2014  19:55:00     -320.424      -12.562        1.673      141.293      128.012       86.390    19963.577    16387.019     7463.226        7.331        2.191      320.671       75.533        0.055      340.609       14.744      856.500
05/07/2014  19:56:00     -433.511      -97.453      -13.027      139.963      152.539       73.409    19589.652    23268.299     5388.913       12.291        2.412      444.330       68.616        0.024      340.549       14.645      856.505
05/07/2014  19:57:00     -308.166      -99.407      -11.417      158.101      156.303       74.920    24995.842    24430.671     5613.010        8.000        2.752      323.803       88.123        0.074      340.549       14.644      856.518
05/07/2014  19:58:00     -331.300     -139.214      -10.795      165.223      140.123       65.573    27298.718    19634.360     4299.863        9.023        2.562      359.361       72.955        0.041      340.545       14.638      856.504
05/07/2014  19:59:00     -250.986      -70.921       -3.647      147.432      137.412       68.105    21736.207    18882.010     4638.226        5.664        2.263      260.814       63.391        0.059      340.548       14.641      856.497
05/07/2014  20:00:00     -412.446     -139.681      -31.604      230.848      174.735       84.520    53290.697    30532.494     7143.592       14.078        4.548      435.457      104.100        0.057      340.524       14.601      856.516
05/07/2014  20:01:00     -281.073     -149.360       -3.523      159.895      110.914       78.573    25566.348    12301.985     6173.693        7.267        2.202      318.293       78.013        0.060      340.500       14.562      856.522
05/07/2014  20:02:00     -462.913     -131.971      -16.249      270.500      136.678       85.609    73170.017    18680.934     7328.912       16.555        4.959      481.357       96.582        0.040      340.456       14.484      856.541
05/07/2014  20:03:00     -515.032     -189.322      -38.128      217.649      159.664       75.432    47371.244    25492.589     5689.913       19.054        3.928      548.727       74.859        0.019      340.475       14.516      856.574
05/07/2014  20:04:00     -345.053     -224.575      -26.960      160.827      163.415       78.666    25865.414    26704.419     6188.357       11.448        2.938      411.698       74.859        0.033      340.459       14.490      856.587
05/07/2014  20:05:00     -363.973      -21.228       -5.152      286.462       96.373       85.089    82060.333     9287.751     7240.148       11.575        4.929      364.591      123.535        0.115      340.432       14.446      856.599
05/07/2014  20:06:00     -554.203      -96.057      -34.011      279.933      193.609      103.164    78362.276    37484.623    10642.725       22.198        6.324      562.466      120.353        0.046      340.408       14.405      856.591
05/07/2014  20:07:00     -513.219     -159.575      -46.714      201.578      256.822       99.930    40633.539    65957.690     9985.943       20.379        5.829      537.455      113.383        0.045      340.417       14.419      856.597
05/07/2014  20:08:00     -317.123     -118.476       16.572      233.092      180.939      108.803    54331.944    32739.031    11838.193       10.687        4.945      338.532      137.932        0.166      340.400       14.392      856.614
05/07/2014  20:09:00     -184.146      -96.796       37.152      228.683      173.101       88.787    52295.811    29964.026     7883.057        6.738        4.507      208.037      101.679        0.239      340.403       14.397      856.616
05/07/2014  20:10:00     -378.904     -145.339      -31.317      275.814      213.126      100.206    76073.188    45422.835    10041.306       14.858        6.577      405.823      104.399        0.066      340.384       14.365      856.631
05/07/2014  20:11:00     -321.661     -167.994        3.547      231.262      175.929       93.608    53481.992    30950.867     8762.550       11.243        4.660      362.888      109.864        0.092      340.366       14.333      856.663
05/07/2014  20:12:00     -308.288      -71.279       -9.106      199.910      128.170       86.972    39963.883    16427.561     7564.140        8.207        3.198      316.420       95.078        0.090      340.334       14.279      856.711
05/07/2014  20:13:00     -328.864      -68.786       -9.323      228.330      129.129       90.356    52134.573    16674.351     8164.271        9.496        3.849      335.981      120.767        0.129      340.307       14.236      856.724
05/07/2014  20:14:00     -167.187      -16.639       32.972      179.288      104.806       82.258    32144.013    10984.300     6766.430        3.960        2.495      168.013       96.662        0.331      340.317       14.252      856.715
05/07/2014  20:15:00     -229.867      -16.366        3.271      153.324      106.844       73.990    23508.176    11415.647     5474.453        4.675        2.020      230.449       76.641        0.111      340.314       14.245      856.740
05/07/2014  20:16:00     -197.699     -129.496        6.390      134.945       96.733       67.013    18210.028     9357.216     4490.755        4.397        1.603      236.335       71.006        0.090      340.288       14.202      856.743
05/07/2014  20:17:00     -191.623      -68.343       -0.193      151.783      116.713       71.540    23038.221    13621.920     5117.944        4.158        2.089      203.446       81.310        0.160      340.264       14.162      856.750
05/07/2014  20:18:00     -583.646     -254.427      -46.211      170.939      166.674       90.857    29220.004    27780.271     8255.014       23.637        3.263      636.691       71.765        0.013      340.215       14.077      856.751
05/07/2014  20:19:00     -336.001     -180.453      -18.333      222.265      188.532       98.113    49401.752    35544.286     9626.228       12.017        4.729      381.392      104.599        0.075      340.204       14.059      856.729
05/07/2014  20:20:00     -388.528     -103.163       -8.542      185.375      228.811       99.501    34363.879    52354.544     9900.532       12.913        4.831      401.991      104.719        0.068      340.189       14.035      856.771
05/07/2014  20:21:00     -153.396      -27.426       25.780      175.723      123.762       86.260    30878.546    15316.959     7440.832        3.928        2.682      155.829       93.784        0.362      340.190       14.037      856.787
05/07/2014  20:22:00     -210.852      -33.776        4.016      140.785      123.525       63.932    19820.450    15258.517     4087.348        4.238        1.958      213.540       67.073        0.099      340.184       14.027      856.799
05/07/2014  20:23:00     -393.187      -11.158       -8.141      242.255      131.593       84.818    58687.611    17316.832     7194.133       11.898        4.160      393.345      114.104        0.084      340.126       13.929      856.813
05/07/2014  20:24:00     -250.850      -88.654       12.438      178.966      139.914       80.439    32028.965    19575.989     6470.513        6.450        2.904      266.055       94.423        0.126      340.100       13.884      856.818
05/07/2014  20:25:00     -208.035     -110.409        8.866      166.056      123.005       79.324    27574.566    15130.200     6292.252        5.226        2.450      235.518       86.836        0.136      340.099       13.882      856.823
05/07/2014  20:26:00     -273.656      -74.780       -9.326      127.342      127.818       52.218    16215.994    16337.373     2726.765        5.792        1.764      283.690       63.161        0.050      340.083       13.856      856.831
05/07/2014  20:27:00     -281.941      -88.219      -12.360      112.477      113.074       56.011    12651.125    12785.836     3137.258        5.799        1.429      295.420       53.461        0.033      340.053       13.804      856.839
05/07/2014  20:28:00     -332.763      -79.802      -10.943      143.875      121.020       63.447    20699.911    14645.945     4025.525        7.829        1.969      342.198       70.371        0.042      340.068       13.828      856.831
05/07/2014  20:29:00     -336.060     -143.177      -13.605      164.106      151.246       80.228    26930.897    22875.229     6436.568        9.492        2.812      365.289       77.234        0.045      340.032       13.769      856.836
05/07/2014  20:30:00     -353.716      -19.042       -4.711      139.775      128.818       76.368    19536.913    16594.005     5832.123        8.372        2.098      354.228       78.556        0.049      340.043       13.788      856.862
05/07/2014  20:31:00     -288.822      -11.169       -8.081      141.695      132.424       58.459    20077.553    17536.038     3417.496        6.231        2.052      289.038       63.404        0.048      340.043       13.787      856.897
05/07/2014  20:32:00     -269.254      -96.357      -25.308      103.014      110.232       55.720    10611.810    12151.093     3104.716        5.414        1.293      285.977       53.968        0.036      340.078       13.847      856.896
05/07/2014  20:33:00     -258.006      -63.107      -12.730      190.981       93.990       60.200    36473.809     8834.076     3624.098        5.981        2.447      265.612       70.028        0.070      340.035       13.774      856.910
05/07/2014  20:34:00     -184.422      -85.739        5.416      181.972      172.848       66.453    33113.632    29876.399     4416.034        5.439        3.370      203.378       84.431        0.172      340.053       13.807      856.932
05/07/2014  20:35:00     -362.243     -233.235       -6.204      189.094      195.370       82.953    35756.616    38169.300     6881.122       13.322        4.040      430.835       95.443        0.049      340.059       13.815      856.927
05/07/2014  20:36:00     -435.364     -133.770       -5.343      235.114      166.886       90.543    55278.410    27850.840     8197.973       14.938        4.566      455.452      112.044        0.061      340.052       13.803      856.945
05/07/2014  20:37:00     -370.943     -112.384       -8.097      235.373      149.862       81.522    55400.452    22458.741     6645.906       11.738        4.225      387.594       94.115        0.059      340.052       13.803      856.995
05/07/2014  20:38:00     -497.932       29.459      -28.535      316.327      140.590       80.835   100062.515    19765.548     6534.335       18.796        6.318      498.802      117.472        0.055      340.021       13.750      857.051
05/07/2014  20:39:00     -579.884      -95.817      -28.835      228.291      160.975       93.726    52116.809    25912.852     8784.570       21.653        4.341      587.747      118.041        0.040      339.982       13.685      857.086
05/07/2014  20:40:00     -438.970      -59.856      -15.324      200.161      160.444       82.407    40064.238    25742.335     6790.856       13.454        3.630      443.032       87.867        0.039      339.979       13.680      857.096
05/07/2014  20:41:00     -294.425     -118.299       -7.383      164.235      150.570       75.600    26973.028    22671.246     5715.324        7.804        2.768      317.303       78.067        0.061      339.932       13.603      857.125
05/07/2014  20:42:00     -228.173      -19.319       -0.777      142.276      102.167       66.343    20242.336    10438.192     4401.343        4.375        1.754      228.989       71.216        0.097      339.975       13.673      857.132
05/07/2014  20:43:00     -176.233      -81.307       20.716      159.414      143.345       76.737    25412.722    20547.721     5888.527        4.496        2.592      194.084       90.969        0.220      339.921       13.583      857.146
05/07/2014  20:44:00     -480.602      -52.387      -20.444      215.050      202.224       90.857    46246.549    40894.629     8254.991       16.475        4.770      483.448       71.697        0.022      339.949       13.628      857.142
05/07/2014  20:45:00     -212.965      -64.804        0.736      169.195      144.159       91.729    28626.974    20781.953     8414.120        5.368        2.891      222.606       78.974        0.126      339.944       13.622      857.135
05/07/2014  20:46:00     -298.996      -38.454        2.831      208.200      196.749      106.918    43347.368    38710.347    11431.499        9.217        4.674      301.459      112.430        0.139      339.931       13.600      857.129
05/07/2014  20:47:00     -337.299      -77.133      -14.655      202.411      105.058       75.627    40970.302    11037.153     5719.449        8.882        2.886      346.006       88.923        0.066      339.943       13.620      857.133
05/07/2014  20:48:00     -281.623      -78.616      -12.347      152.260      131.340       67.794    23183.181    17250.111     4596.074        6.533        2.251      292.390       75.476        0.067      339.938       13.612      857.147
05/07/2014  20:49:00     -326.581      -84.756        6.494      253.926      145.192       99.804    64478.522    21080.773     9960.796       10.468        4.776      337.400      119.916        0.126      339.938       13.611      857.130
05/07/2014  20:50:00     -421.686      -40.276      -23.795      203.509      152.696       82.112    41415.716    23316.102     6742.424       12.573        3.574      423.605       93.553        0.049      339.931       13.599      857.142
05/07/2014  20:51:00     -305.750     -105.557        5.785      202.195      134.382       91.776    40882.986    18058.609     8422.897        8.600        3.368      323.458       99.614        0.095      339.924       13.588      857.145
05/07/2014  20:52:00     -426.941      -85.895       -2.675      194.961      140.480       77.701    38009.795    19734.676     6037.369       12.671        3.189      435.496       92.513        0.045      339.894       13.535      857.173
05/07/2014  20:53:00     -343.267      -57.053      -11.782      137.980      122.488       69.833    19038.613    15003.191     4876.652        8.006        1.946      347.976       66.739        0.037      339.910       13.563      857.178
05/07/2014  20:54:00     -326.647      -75.754       -5.573      259.869      149.184       94.451    67532.085    22255.819     8921.028       10.557        4.935      335.316      125.288        0.140      339.907       13.559      857.165
05/07/2014  20:55:00     -400.045     -145.687      -27.835      187.254      166.942       83.805    35064.203    27869.661     7023.210       12.598        3.498      425.747       86.538        0.041      339.896       13.540      857.187
05/07/2014  20:56:00     -439.922     -101.348      -24.156      237.481      160.367       93.745    56397.053    25717.638     8788.214       14.763        4.545      451.446      100.950        0.050      339.861       13.480      857.189
05/07/2014  20:57:00     -290.008       -1.726      -11.992      165.828      123.594       68.515    27498.999    15275.597     4694.366        6.585        2.373      290.013       70.114        0.058      339.863       13.483      857.204
05/07/2014  20:58:00     -203.006      -59.974        3.917      145.672      122.815       74.015    21220.267    15083.593     5478.207        4.329        2.089      211.680       88.891        0.176      339.841       13.448      857.200
05/07/2014  20:59:00     -377.018      -86.439      -23.568      177.259      188.437       76.589    31420.688    35508.356     5865.909       11.147        3.640      386.800       79.609        0.042      339.901       13.548      857.180
05/07/2014  21:00:00     -500.371      -21.226      -34.060      203.142      143.303       75.850    41266.772    20535.829     5753.256       15.976        3.378      500.821       75.673        0.023      339.860       13.479      857.242
05/07/2014  21:01:00     -510.784     -105.336      -21.426      222.113      147.854       91.953    49334.120    21860.922     8455.354       17.604        3.983      521.532      100.112        0.037      339.791       13.364      857.232
05/07/2014  21:02:00     -246.347     -114.462       -8.217      156.039      159.354       82.013    24348.298    25393.656     6726.168        6.515        2.823      271.640       89.346        0.108      339.798       13.377      857.234
05/07/2014  21:03:00     -432.336      -48.999      -17.291      192.808      151.268       78.747    37174.903    22882.070     6201.022       12.792        3.313      435.104       72.413        0.028      339.769       13.327      857.248
05/07/2014  21:04:00     -503.294     -161.518      -21.188      221.664      157.430       91.289    49134.783    24784.082     8333.718       18.103        4.113      528.576       90.261        0.029      339.754       13.301      857.272
05/07/2014  21:05:00     -414.264      -89.326      -18.878      202.068      169.293       86.165    40831.542    28660.127     7424.427       12.842        3.846      423.785       98.312        0.054      339.744       13.284      857.274
05/07/2014  21:06:00     -508.983      -88.111      -41.605      220.263      152.524       94.706    48515.984    23263.581     8969.153       17.464        4.037      516.553      112.725        0.048      339.732       13.264      857.302
05/07/2014  21:07:00     -485.442      -63.247      -21.916      174.653      130.101       84.156    30503.607    16926.383     7082.277       14.731        2.726      489.544       90.234        0.034      339.707       13.222      857.307
05/07/2014  21:08:00     -288.314      -49.119       -8.600      168.378      128.506       63.755    28351.001    16513.703     4064.749        6.726        2.446      292.468       78.093        0.071      339.727       13.254      857.317
05/07/2014  21:09:00     -428.265      -35.546      -15.920      203.252      134.327       79.343    41311.289    18043.851     6295.338       12.528        3.283      429.738       91.029        0.045      339.692       13.197      857.321
05/07/2014  21:10:00     -313.794       12.194       -3.927      144.251      131.353       78.003    20808.485    17253.528     6084.395        7.138        2.207      314.031       76.142        0.059      339.714       13.232      857.340
05/07/2014  21:11:00     -219.212      -57.306       -6.832      132.751      119.826       67.422    17622.948    14358.303     4545.761        4.395        1.826      226.578       76.343        0.114      339.721       13.244      857.381
05/07/2014  21:12:00     -468.566      -25.030      -37.766      178.358      161.846       76.888    31811.481    26194.171     5911.826       14.275        3.196      469.234       86.566        0.034      339.662       13.145      857.402
05/07/2014  21:13:00     -371.057     -126.548       -5.627      239.528      171.598       93.858    57373.849    29445.704     8809.251       12.466        4.781      392.043      118.451        0.091      339.645       13.117      857.415
05/07/2014  21:14:00     -451.896     -107.314      -20.811      218.834      192.652       82.041    47888.496    37114.633     6730.702       15.393        4.587      464.464       79.453        0.029      339.649       13.125      857.434
05/07/2014  21:15:00     -434.841      -70.046       -7.926      181.445      158.403       86.721    32922.287    25091.573     7520.552       12.978        3.277      440.446       93.279        0.045      339.641       13.110      857.441
05/07/2014  21:16:00     -315.227     -110.298      -10.125      180.203      114.765       79.791    32473.058    13171.108     6366.609        8.181        2.601      333.967       77.470        0.054      339.628       13.090      857.493
05/07/2014  21:17:00     -310.205      -53.005       -8.899      143.585      121.460       66.531    20616.610    14752.633     4426.440        6.945        1.990      314.701       62.388        0.039      339.629       13.090      857.499
05/07/2014  21:18:00     -266.904      -93.915       -1.737      180.198      152.378       84.325    32471.461    23219.017     7110.711        7.142        3.140      282.945       80.624        0.081      339.634       13.099      857.498
05/07/2014  21:19:00     -468.575      -34.412      -21.820      178.459      125.733       89.657    31847.537    15808.809     8038.418       13.845        2.785      469.837       85.058        0.033      339.600       13.043      857.505
05/07/2014  21:20:00     -299.019      -54.138       -3.849      171.392      102.383       67.607    29375.078    10482.225     4570.730        6.838        2.221      303.881       71.372        0.055      339.595       13.034      857.512
05/07/2014  21:21:00     -301.442      -68.299       -0.186      131.205      114.927       62.670    17214.795    13208.142     3927.552        6.493        1.718      309.083       63.060        0.042      339.582       13.011      857.504
05/07/2014  21:22:00     -140.743      -64.482       18.239      108.729       90.534       63.716    11822.059     8196.430     4059.680        2.418        1.204      154.811       65.058        0.177      339.604       13.050      857.514
05/07/2014  21:23:00     -212.310      -89.137       -3.922      160.251       83.194       69.329    25680.407     6921.242     4806.546        4.521        1.870      230.263       74.068        0.103      339.620       13.078      857.529
05/07/2014  21:24:00     -328.481      -83.703      -15.457      133.666       98.651       55.275    17866.560     9732.100     3055.357        7.289        1.533      338.978       49.796        0.022      339.555       12.967      857.532
05/07/2014  21:25:00     -270.372     -114.971       13.068      179.043      122.428       65.067    32056.334    14988.524     4233.697        6.887        2.564      293.802       76.814        0.068      339.548       12.954      857.552
05/07/2014  21:26:00     -417.760       -2.794      -18.020      177.401      131.030       82.638    31471.240    17168.989     6829.057       11.515        2.773      417.769       94.411        0.051      339.575       12.998      857.566
05/07/2014  21:27:00     -346.799      -92.998        5.534      216.366      158.967       84.495    46814.078    25270.417     7139.482       10.407        3.961      359.052       91.743        0.065      339.534       12.930      857.583
05/07/2014  21:28:00     -297.901      -19.489       -2.291      134.700      138.426       66.537    18144.197    19161.693     4427.181        6.542        2.087      298.538       65.556        0.048      339.545       12.950      857.610
05/07/2014  21:29:00     -262.950      -84.406      -10.793      198.992      145.038       83.196    39597.754    21036.105     6921.553        7.196        3.378      276.165       88.299        0.102      339.522       12.909      857.589
05/07/2014  21:30:00     -230.817     -106.899        7.559      137.398      122.474       68.632    18878.256    14999.764     4710.326        5.167        1.929      254.370       60.028        0.056      339.529       12.922      857.620
05/07/2014  21:31:00     -273.970      -93.361      -17.815      116.722      108.349       64.657    13623.923    11739.428     4180.541        5.681        1.477      289.440       64.403        0.050      339.512       12.892      857.639
05/07/2014  21:32:00     -451.388      -51.677      -23.927      292.184      203.469       96.203    85371.405    41399.471     9254.923       17.148        6.801      454.336      128.073        0.079      339.523       12.910      857.634
05/07/2014  21:33:00     -396.193     -107.793      -13.418      212.082      170.240       87.091    44978.776    28981.750     7584.923       12.514        4.077      410.595       84.706        0.043      339.471       12.824      857.656
05/07/2014  21:34:00     -334.078     -102.890       -0.447      185.983      138.212       76.444    34589.518    19102.501     5843.728        9.085        2.977      349.563       75.683        0.047      339.475       12.830      857.661
05/07/2014  21:35:00     -369.782      -43.277      -11.378      188.011      114.311       75.919    35348.135    13066.909     5763.769        9.645        2.709      372.306       90.062        0.059      339.461       12.807      857.676
05/07/2014  21:36:00     -320.674     -125.997        2.694      207.910      156.605       86.263    43226.540    24525.032     7441.282        9.694        3.760      344.539      113.421        0.108      339.458       12.802      857.670
05/07/2014  21:37:00     -418.587      -68.416      -21.022      207.675      136.976       75.773    43128.957    18762.451     5741.488       12.397        3.382      424.141       96.958        0.052      339.445       12.780      857.682
05/07/2014  21:38:00     -383.908      -70.245      -15.066      148.711      103.787       63.617    22115.072    10771.658     4047.062        9.473        1.847      390.281       67.245        0.030      339.436       12.765      857.704
05/07/2014  21:39:00     -322.328     -134.212       -6.578      260.855      133.065       81.830    68045.520    17706.415     6696.144       10.718        4.622      349.153      103.195        0.087      339.441       12.774      857.714
05/07/2014  21:40:00     -425.823      -78.123      -25.932      150.356      127.547       73.191    22606.884    16268.258     5356.991       11.616        2.212      432.930       76.418        0.031      339.458       12.802      857.757
05/07/2014  21:41:00     -546.269      -87.339      -20.293      209.414      133.935       85.362    43854.370    17938.508     7286.621       18.775        3.454      553.207       88.283        0.025      339.426       12.749      857.789
05/07/2014  21:42:00     -327.744      -49.987      -11.225      197.329      125.052       75.750    38938.716    15637.962     5738.086        8.517        3.016      331.534       92.945        0.079      339.402       12.709      857.807
05/07/2014  21:43:00     -349.425       10.236      -16.751      162.906      118.287       53.432    26538.517    13991.764     2855.022        8.293        2.169      349.574       55.716        0.025      339.434       12.762      857.830
05/07/2014  21:44:00     -405.127     -109.258      -29.020      139.593      162.854       66.975    19486.244    26521.385     4485.693       11.369        2.525      419.601       62.386        0.022      339.402       12.707      857.862
05/07/2014  21:45:00     -343.309      -84.131      -17.612      136.602      109.957       63.523    18660.052    12090.473     4035.183        8.001        1.739      353.468       60.713        0.030      339.389       12.685      857.898
05/07/2014  21:46:00     -261.422      -53.350      -13.047      142.075      133.191       63.465    20185.437    17739.949     4027.787        5.665        2.098      266.810       66.403        0.062      339.366       12.647      857.921
05/07/2014  21:47:00     -280.289      -43.015       -7.825      117.923      104.518       57.764    13905.881    10923.913     3336.736        5.431        1.408      283.571       47.230        0.028      339.360       12.637      857.930
05/07/2014  21:48:00     -309.132      -55.062      -18.525      152.107      111.271       59.808    23136.625    12381.237     3577.043        6.901        1.955      313.998       64.871        0.043      339.358       12.631      857.941
05/07/2014  21:49:00     -367.797     -115.751       -6.948      170.599      154.795       79.023    29104.171    23961.393     6244.582       10.400        2.966      385.581       82.208        0.045      339.329       12.583      857.948
05/07/2014  21:50:00     -267.749      -60.734        4.088      152.688      110.948       64.784    23313.697    12309.494     4196.936        5.760        1.991      274.550       74.928        0.074      339.347       12.615      857.946
05/07/2014  21:51:00     -393.421      -10.093      -23.883      160.624      117.784       60.999    25800.020    13872.992     3720.819        9.941        2.170      393.550       69.641        0.031      339.374       12.660      857.967
05/07/2014  21:52:00     -402.049       21.519      -25.798      176.664      105.335       77.067    31210.068    11095.433     5939.259       10.550        2.412      402.624       80.645        0.040      339.404       12.710      857.976
05/07/2014  21:53:00     -440.823      -91.936      -37.553      185.208      125.654       81.128    34301.849    15788.987     6581.694       13.042        2.834      450.308       93.772        0.043      339.392       12.690      857.978
05/07/2014  21:54:00     -343.499      -26.692       -8.029      141.645      101.970       70.710    20063.168    10397.869     4999.939        7.711        1.773      344.535       73.550        0.046      339.387       12.682      857.986
05/07/2014  21:55:00     -422.011      -58.325       -1.232      248.350      171.321      100.918    61677.541    29350.833    10184.342       14.133        5.061      426.022      105.191        0.061      339.355       12.627      858.008
05/07/2014  21:56:00     -481.325     -101.174       -4.213      198.218      151.164       71.365    39290.546    22850.629     5092.955       15.457        3.362      491.843       93.452        0.036      339.316       12.563      858.040
05/07/2014  21:57:00     -483.964      -42.197      -27.865      178.137      161.504       82.612    31732.716    26083.411     6824.734       15.070        3.232      485.800       76.797        0.025      339.347       12.614      858.062
05/07/2014  21:58:00     -356.600        0.253      -24.696      167.117      131.072       64.537    27928.243    17179.929     4165.034        8.851        2.464      356.600       72.176        0.041      339.337       12.598      858.048
05/07/2014  21:59:00     -625.495       21.864      -53.635      126.811      145.740       75.488    16081.082    21240.088     5698.430       21.880        2.151      625.877       67.860        0.012      339.302       12.539      858.068
05/07/2014  22:00:00     -469.372      -34.422      -37.154      276.287      154.247       90.339    76334.425    23792.129     8161.101       16.556        5.414      470.633      124.628        0.070      339.286       12.513      858.031
05/07/2014  22:01:00     -259.412      -61.824       -0.727      134.576       90.933       58.265    18110.678     8268.782     3394.825        5.044        1.489      266.677       72.391        0.074      339.252       12.454      858.043
05/07/2014  22:02:00     -190.096      -76.121       16.628      149.533      117.431       79.572    22360.200    13790.073     6331.685        4.234        2.124      204.770       81.623        0.159      339.234       12.427      858.061
05/07/2014  22:03:00     -276.231      -55.380      -17.819      159.418      114.634       70.899    25414.144    13140.919     5026.723        6.163        2.179      281.727       75.672        0.072      339.272       12.490      858.079
05/07/2014  22:04:00     -428.049     -109.160      -21.218      174.277      128.180       66.645    30372.634    16430.004     4441.557       12.341        2.562      441.749       78.613        0.032      339.213       12.389      858.102
05/07/2014  22:05:00     -329.741     -101.848      -12.877      163.895      130.767       66.018    26861.553    17099.990     4358.389        8.378        2.416      345.111       65.748        0.036      339.209       12.382      858.151
05/07/2014  22:06:00     -329.849      -73.989      -20.858      146.881      135.645       80.131    21574.043    18399.571     6420.915        8.054        2.320      338.045       71.242        0.044      339.256       12.461      858.158
05/07/2014  22:07:00     -317.771      -98.132      -24.220      110.764      105.167       58.780    12268.595    11060.062     3455.111        6.898        1.339      332.578       53.486        0.026      339.225       12.410      858.181
05/07/2014  22:08:00     -318.538     -119.470       -9.472      143.395      103.642       68.610    20562.234    10741.731     4707.358        7.591        1.801      340.205       62.044        0.033      339.235       12.426      858.180
05/07/2014  22:09:00     -201.292      -46.172       -5.079       99.790       79.402       57.431     9958.087     6304.747     3298.331        3.111        0.978      206.519       51.606        0.062      339.221       12.405      858.174
05/07/2014  22:10:00     -298.687      -66.483      -23.588      107.601       82.283       58.825    11577.918     6770.484     3460.383        5.800        1.090      305.997       39.827        0.017      339.231       12.420      858.160
05/07/2014  22:11:00     -264.734      -41.244      -21.355      102.540      113.443       58.221    10514.422    12869.259     3389.666        4.950        1.339      267.927       47.254        0.031      339.251       12.452      858.166
05/07/2014  22:12:00     -318.693      -41.222      -27.465      122.868       95.875       60.619    15096.526     9192.104     3674.688        6.599        1.398      321.348       51.464        0.026      339.189       12.349      858.173
05/07/2014  22:13:00     -194.550      -37.228      -24.572      114.882       78.158       44.948    13197.806     6108.737     2020.292        3.058        1.066      198.080       41.029        0.043      339.192       12.353      858.179
05/07/2014  22:14:00     -403.402      -16.671      -46.529      181.984      122.690       59.396    33118.260    15052.802     3527.874       10.843        2.585      403.746       64.310        0.025      339.192       12.353      858.169
05/07/2014  22:15:00     -306.466      -88.676      -17.676      176.903      150.588       75.423    31294.736    22676.615     5688.555        8.087        2.983      319.037       79.360        0.062      339.145       12.277      858.170
05/07/2014  22:16:00     -331.627     -100.680       -8.325      160.514      117.724       71.435    25764.803    13858.872     5102.920        8.245        2.236      346.573       78.808        0.052      339.132       12.253      858.180
05/07/2014  22:17:00     -390.660      -80.439      -24.327      130.638      146.706       77.367    17066.299    21522.642     5985.586       10.212        2.229      398.855       80.101        0.040      339.129       12.246      858.194
05/07/2014  22:18:00     -463.906     -108.336      -34.407      180.921      160.875       83.624    32732.358    25880.668     6992.973       14.685        3.280      476.388       85.460        0.032      339.104       12.205      858.180
05/07/2014  22:19:00     -475.907      -75.480      -34.328      146.790      102.289       58.387    21547.250    10463.131     3409.057       13.438        1.771      481.856       56.083        0.014      339.101       12.199      858.214
05/07/2014  22:20:00     -366.626     -120.513      -10.177      186.258      119.668       69.530    34692.193    14320.419     4834.359       10.143        2.692      385.925       78.784        0.042      339.120       12.232      858.195
05/07/2014  22:21:00     -256.919      -86.265      -10.609      160.925      128.345       64.393    25896.939    16472.398     4146.476        6.003        2.326      271.015       61.226        0.051      339.130       12.251      858.201
05/07/2014  22:22:00     -385.927      -64.737      -24.745      157.790      145.610       66.996    24897.751    21202.288     4488.498       10.216        2.529      391.319       67.717        0.030      339.146       12.277      858.187
05/07/2014  22:23:00     -384.478     -189.844       -3.483      184.169      143.471       83.297    33918.070    20584.053     6938.402       12.265        3.072      428.794       94.821        0.049      339.070       12.149      858.168
05/07/2014  22:24:00     -544.505       15.686      -44.480      155.031      133.701       75.163    24034.711    17875.840     5649.417       17.313        2.378      544.731       66.513        0.015      339.109       12.215      858.187
05/07/2014  22:25:00     -384.624      -32.832      -30.394      152.032      119.879       58.749    23113.798    14371.037     3451.404        9.543        2.047      386.022       71.564        0.034      339.092       12.185      858.214
05/07/2014  22:26:00     -429.421      -48.875      -30.508      182.159      133.596       85.735    33181.957    17847.799     7350.474       12.304        2.919      432.194       96.407        0.050      339.088       12.179      858.226
05/07/2014  22:27:00     -542.253     -139.083      -38.805      216.769      175.412       97.005    46988.912    30769.321     9410.057       20.101        4.358      559.806      110.168        0.039      339.091       12.183      858.197
05/07/2014  22:28:00     -431.304      -44.106      -40.611      220.408      131.452       79.747    48579.730    17279.620     6359.587       13.090        3.611      433.553       90.322        0.043      339.099       12.196      858.219
05/07/2014  22:29:00     -333.694      -39.049      -35.254      146.668      136.930       65.290    21511.373    18749.835     4262.753        7.931        2.226      335.971       68.493        0.042      339.140       12.266      858.212
05/07/2014  22:30:00     -267.590      -26.106      -21.655      154.981      121.347       75.276    24019.194    14725.045     5666.413        5.857        2.221      268.860       80.194        0.089      339.162       12.305      858.241
05/07/2014  22:31:00     -279.307      102.679      -22.593      147.654      111.181       75.742    21801.794    12361.149     5736.878        6.447        1.995      297.582       77.996        0.069      339.093       12.186      858.257
05/07/2014  22:32:00     -106.020       48.807        6.704       95.282       86.693       56.661     9078.731     7515.715     3210.480        1.673        0.990      116.714       13.881        0.014      339.150       12.284      858.255
05/07/2014  22:33:00     -202.224       24.236      -25.092      130.796      132.670       58.673    17107.559    17601.417     3442.547        4.012        1.908      203.671       70.734        0.121      339.124       12.240      858.279
05/07/2014  22:34:00     -376.136      -86.383      -34.048      149.923      134.455       77.759    22477.049    18078.257     6046.418        9.834        2.330      385.928       73.585        0.036      339.078       12.162      858.280
05/07/2014  22:35:00     -364.334      -12.112      -41.977      129.743      152.398       72.621    16833.310    23225.055     5273.855        8.998        2.267      364.535       63.095        0.030      339.053       12.120      858.300
05/07/2014  22:36:00     -421.680      -62.493      -24.094      181.061      156.631       86.449    32783.011    24533.241     7473.511       12.353        3.239      426.286       82.500        0.037      339.032       12.086      858.318
05/07/2014  22:37:00     -297.501        0.074       -0.500      195.205      149.979       90.923    38105.182    22493.760     8266.998        7.867        3.443      297.501      102.171        0.118      339.033       12.087      858.360
05/07/2014  22:38:00     -500.289      -53.487      -42.396      192.064      155.517       79.965    36888.571    24185.549     6394.360       16.119        3.373      503.140       75.898        0.023      339.038       12.095      858.358
05/07/2014  22:39:00     -583.232       52.505      -61.467      147.660      127.174       85.060    21803.439    16173.246     7235.203       19.594        2.261      585.591       69.318        0.014      339.067       12.143      858.371
05/07/2014  22:40:00     -323.607      -68.843      -12.307      210.103      213.098       88.763    44143.124    45410.714     7878.875       10.350        4.872      330.849       82.490        0.062      339.088       12.179      858.331
05/07/2014  22:41:00     -326.472        2.449      -23.649      161.044      151.666       95.499    25935.316    23002.679     9120.028        8.259        2.903      326.481       83.452        0.065      339.117       12.228      858.340
05/07/2014  22:42:00     -425.187      -50.615      -28.295      227.947      186.895       88.850    51959.837    34929.922     7894.262       13.945        4.739      428.189      102.763        0.058      339.104       12.205      858.358
05/07/2014  22:43:00     -251.567       70.970      -31.769      175.115      138.785       73.335    30665.287    19261.276     5377.961        6.231        2.765      261.386       60.915        0.054      339.103       12.204      858.398
05/07/2014  22:44:00     -209.182       81.540      -16.107      165.501       95.287       74.116    27390.710     9079.547     5493.193        4.631        2.098      224.513       81.983        0.133      339.093       12.189      858.401
05/07/2014  22:45:00     -213.562      115.922      -32.879      154.702      124.626       67.689    23932.791    15531.603     4581.833        5.208        2.202      242.995       69.713        0.082      339.124       12.239      858.398
05/07/2014  22:46:00     -146.034       -0.353        1.337      150.407       96.989       65.120    22622.258     9406.770     4240.624        2.879        1.813      146.035       60.440        0.171      339.143       12.273      858.405
05/07/2014  22:47:00     -299.678      -72.797      -10.481      126.776      102.855       64.934    16072.183    10579.208     4216.413        6.304        1.543      308.393       61.120        0.039      339.098       12.196      858.449
05/07/2014  22:48:00     -217.953      -13.692      -15.793       97.972      138.700       60.476     9598.584    19237.582     3657.340        4.021        1.625      218.383       53.286        0.060      339.074       12.156      858.472
05/07/2014  22:49:00     -137.448      -40.314       -4.835      102.484       67.778       50.593    10502.921     4593.826     2559.682        1.909        0.883      143.238       51.799        0.131      339.017       12.062      858.498
05/07/2014  22:50:00     -230.442      -97.760       -3.100       99.678       66.927       43.902     9935.731     4479.228     1927.406        3.950        0.817      250.321       36.645        0.021      339.005       12.039      858.507
05/07/2014  22:51:00     -354.322      -59.957      -29.084      127.274      119.212       48.803    16198.570    14211.522     2381.749        8.138        1.640      359.359       47.991        0.018      338.997       12.026      858.502
05/07/2014  22:52:00     -408.604      -67.696      -42.613      171.746       96.630       69.266    29496.793     9337.405     4797.750       10.849        2.182      414.174       82.017        0.039      338.960       11.965      858.468
05/07/2014  22:53:00     -431.538      -62.755      -19.924      176.161      109.164       78.853    31032.864    11916.821     6217.740       11.985        2.458      436.077       90.300        0.043      338.951       11.948      858.482
05/07/2014  22:54:00     -319.346      -78.388       -3.135      108.746       97.363       62.009    11825.739     9479.522     3845.173        6.664        1.258      328.826       53.754        0.027      338.934       11.922      858.488
05/07/2014  22:55:00     -272.802       14.705      -15.203       86.384      104.041       46.127     7462.155    10824.537     2127.684        4.764        1.021      273.198       40.242        0.022      339.013       12.053      858.479
05/07/2014  22:56:00     -310.571       -7.372      -32.881      107.702      103.483       53.883    11599.782    10708.672     2903.367        6.140        1.261      310.659       56.565        0.033      339.039       12.098      858.487
05/07/2014  22:57:00     -289.666      -67.004       -1.166      132.355      121.054       58.580    17517.870    14653.973     3431.581        6.199        1.780      297.314       49.196        0.027      339.018       12.061      858.472
05/07/2014  22:58:00     -261.577        0.350       -5.708      101.263      107.708       55.615    10254.164    11601.040     3093.069        4.670        1.247      261.577       50.333        0.037      338.980       11.998      858.499
05/07/2014  22:59:00     -220.485      -51.117       -8.205      126.067       81.823       49.065    15892.810     6695.035     2407.378        3.814        1.250      226.333       54.977        0.059      339.031       12.084      858.480
05/07/2014  23:00:00     -449.977       14.530      -45.109      218.427      108.710       61.700    47710.521    11817.802     3806.838       13.402        3.167      450.212       88.866        0.039      338.993       12.020      858.469
05/07/2014  23:01:00     -368.006      -60.388      -15.321      151.522      142.056       73.657    22959.001    20179.968     5425.379        9.393        2.428      372.928       83.751        0.050      339.022       12.069      858.455
05/07/2014  23:02:00     -396.270     -116.460      -17.041      188.890      124.563       69.700    35679.386    15515.962     4858.130       11.346        2.803      413.029       86.005        0.043      338.957       11.958      858.438
05/07/2014  23:03:00     -411.304        6.429      -29.341      180.977      103.365       68.910    32752.836    10684.221     4748.639       10.912        2.409      411.355       84.884        0.043      339.019       12.064      858.470
05/07/2014  23:04:00     -280.963      -55.017      -13.091      134.870      117.919       60.384    18189.804    13904.907     3646.287        5.893        1.787      286.299       62.020        0.047      338.982       12.002      858.455
05/07/2014  23:05:00     -205.605      -50.933        4.133      154.344       85.179       67.469    23822.053     7255.543     4552.102        4.025        1.781      211.820       45.752        0.047      338.944       11.935      858.461
05/07/2014  23:06:00     -293.850      -81.569      -24.067      142.335       95.277       50.131    20259.187     9077.756     2513.160        6.271        1.593      304.961       46.551        0.023      338.923       11.902      858.455
05/07/2014  23:07:00     -323.797      -86.979      -23.258      181.108      135.150       72.088    32800.201    18265.401     5196.629        8.460        2.813      335.276       77.775        0.054      338.936       11.924      858.450
05/07/2014  23:08:00     -355.612      -90.749       -7.225      171.057      131.645       70.240    29260.397    17330.336     4933.703        9.313        2.576      367.008       76.608        0.044      338.939       11.928      858.476
05/07/2014  23:09:00     -285.678      -63.723      -21.396      162.861      113.099       62.828    26523.758    12791.455     3947.306        6.469        2.163      292.699       73.400        0.063      338.949       11.946      858.456
05/07/2014  23:10:00     -298.214      -73.133        5.901      155.404      125.243       75.216    24150.295    15685.841     5657.447        6.990        2.275      307.051       83.390        0.074      338.952       11.951      858.455
05/07/2014  23:11:00     -282.367      -52.527       -0.624      153.247      132.706       70.929    23484.527    17610.812     5030.936        6.430        2.306      287.211       74.289        0.067      338.966       11.974      858.459
05/07/2014  23:12:00     -355.025      -63.708      -11.325      164.832      164.327       76.797    27169.667    27003.318     5897.811        9.514        3.004      360.696       76.372        0.045      338.966       11.974      858.453
05/07/2014  23:13:00     -409.966      -67.935      -22.142      228.371      135.390       76.012    52153.256    18330.441     5777.806       12.470        3.813      415.556       88.418        0.045      338.973       11.987      858.439
05/07/2014  23:14:00     -419.914      -98.346      -28.581      136.534      137.598       74.330    18641.494    18933.114     5524.925       11.495        2.155      431.277       63.532        0.022      338.951       11.948      858.454
05/07/2014  23:15:00     -245.579      -34.565       -5.585      112.999       95.758       59.950    12768.753     9169.609     3594.006        4.353        1.277      248.000       61.221        0.061      338.971       11.982      858.460
05/07/2014  23:16:00     -434.650      -55.333      -42.722      102.604       96.005       63.943    10527.640     9216.952     4088.725       10.882        1.192      438.158       49.738        0.013      338.905       11.869      858.439
05/07/2014  23:17:00     -234.361      -15.134       19.848      126.714       90.467       69.714    16056.419     8184.305     4859.990        4.232        1.455      234.850       73.154        0.097      338.911       11.882      858.449
05/07/2014  23:18:00     -370.752      -72.399      -16.078      175.365      138.415       82.695    30752.760    19158.723     6838.413        9.984        2.837      377.755       92.012        0.059      338.901       11.863      858.448
05/07/2014  23:19:00     -320.458      -36.014      -16.835      175.974       76.662       63.162    30966.693     5877.092     3989.392        7.255        2.042      322.475       74.918        0.054      338.880       11.831      858.467
05/07/2014  23:20:00     -359.957      -81.092      -13.514      144.251      101.701       57.830    20808.452    10343.118     3344.263        8.540        1.725      368.978       68.773        0.035      338.867       11.807      858.485
05/07/2014  23:21:00     -320.167      -45.073      -11.422      120.305      101.196       50.742    14473.189    10240.635     2574.787        6.597        1.364      323.324       54.512        0.028      338.866       11.805      858.485
05/07/2014  23:22:00     -337.103      -92.958      -16.212      109.563      108.721       67.958    12004.037    11820.312     4618.227        7.549        1.422      349.685       62.245        0.032      338.850       11.778      858.475
05/07/2014  23:23:00     -382.187      -57.915        2.564      165.056      131.409       74.124    27243.525    17268.245     5494.302        9.971        2.500      386.550       78.180        0.041      338.870       11.812      858.461
05/07/2014  23:24:00     -385.512      -84.148      -16.336      155.220      131.835       72.719    24093.334    17380.439     5288.062       10.136        2.338      394.589       80.146        0.041      338.852       11.781      858.509
05/07/2014  23:25:00     -237.823      -84.269        2.064      129.119      128.030       60.840    16671.640    16391.683     3701.565        5.021        1.838      252.312       59.093        0.055      338.899       11.861      858.537
05/07/2014  23:26:00     -362.002     -121.102      -22.666      116.318      117.369       61.067    13529.940    13775.509     3729.162        8.862        1.552      381.721       61.517        0.026      338.897       11.857      858.540
05/07/2014  23:27:00     -179.640      -57.462       -6.790      109.143       69.019       54.677    11912.254     4763.582     2989.626        2.764        0.983      188.607       56.283        0.089      338.873       11.818      858.542
05/07/2014  23:28:00     -183.603       23.643      -25.885      108.315       88.455       47.463    11732.160     7824.208     2252.694        2.837        1.090      185.119       48.231        0.068      338.882       11.832      858.517
05/07/2014  23:29:00     -312.495      -69.672      -33.109      106.446      134.526       49.429    11330.654    18097.118     2443.185        6.773        1.594      320.168       23.805        0.006      338.895       11.854      858.529
05/07/2014  23:30:00     -310.572       -8.570      -24.218      134.310      122.713       57.538    18039.190    15058.427     3310.583        6.675        1.820      310.690       55.721        0.032      338.869       11.809      858.532
05/07/2014  23:31:00     -463.471      -34.734      -34.560      200.639      141.917       81.040    40255.978    20140.385     6567.418       14.207        3.348      464.771       92.283        0.039      338.876       11.821      858.531
05/07/2014  23:32:00     -433.956       25.272      -32.380       95.818      141.832       58.903     9181.156    20116.232     3469.519       11.138        1.638      434.691       42.174        0.009      338.922       11.900      858.544
05/07/2014  23:33:00     -298.712      -29.305      -18.814      157.482      109.916       64.140    24800.677    12081.507     4113.961        6.571        2.050      300.146       77.213        0.066      338.906       11.873      858.552
05/07/2014  23:34:00     -341.760      -53.710      -24.524      141.942      133.378       63.306    20147.571    17789.579     4007.679        8.111        2.097      345.955       60.173        0.030      338.862       11.800      858.578
05/07/2014  23:35:00      -74.643       17.389       16.541      113.013       56.382       70.562    12771.827     3178.947     4979.028        1.353        1.046       76.642       72.797        0.902      338.904       11.872      858.545
05/07/2014  23:36:00     -179.663      123.711        3.130      124.854       92.136       69.280    15588.492     8489.065     4799.717        3.823        1.444      218.136       72.334        0.110      338.842       11.766      858.540
05/07/2014  23:37:00     -202.470      -89.160       -7.948       92.927       94.306       47.189     8635.492     8893.703     2226.799        3.438        0.988      221.232       42.948        0.038      338.802       11.699      858.540
05/07/2014  23:38:00     -127.198      -22.495        5.366      123.404       93.121       38.984    15228.486     8671.445     1519.749        2.106        1.271      129.172       46.533        0.130      338.839       11.762      858.547
05/07/2014  23:39:00     -135.776      -10.175      -13.920       78.517       78.564       63.988     6164.858     6172.343     4094.512        1.758        0.822      136.157       55.373        0.165      338.812       11.716      858.573
05/07/2014  23:40:00      -86.526      -49.830        0.799       90.669       58.662       32.540     8220.794     3441.280     1058.838        1.134        0.636       99.848       38.286        0.147      338.805       11.706      858.577
05/07/2014  23:41:00      -22.731       28.972       10.639       51.225       65.917       42.306     2624.036     4345.005     1789.795        0.511        0.438       36.824       29.509        0.642      338.805       11.706      858.572
05/07/2014  23:42:00     -146.116      -54.948      -18.279       74.352       53.086       39.529     5528.178     2818.071     1562.503        1.730        0.495      156.107       38.236        0.060      338.757       11.623      858.584
05/07/2014  23:43:00     -151.858       19.966      -22.033       58.430       56.737       36.332     3414.098     3219.046     1320.050        1.595        0.398      153.165       33.134        0.047      338.812       11.717      858.613
05/07/2014  23:44:00     -109.326      -41.535        4.705       90.019       70.043       35.847     8103.366     4906.050     1284.990        1.399        0.715      116.950       34.810        0.089      338.746       11.606      858.588
05/07/2014  23:45:00     -194.102      -23.778      -26.315       63.939       67.764       39.849     4088.165     4591.925     1587.936        2.460        0.513      195.553       19.521        0.010      338.787       11.676      858.584
05/07/2014  23:46:00     -153.739      -40.831       -5.445      109.272       98.073       51.028    11940.402     9618.279     2603.880        2.474        1.208      159.069       46.607        0.086      338.808       11.709      858.580
05/07/2014  23:47:00     -183.657      -94.215       10.815      162.223       96.891       58.158    26316.143     9387.927     3382.297        4.090        1.954      206.413       70.790        0.118      338.812       11.715      858.600
05/07/2014  23:48:00     -200.614        5.677       -8.191      113.635       74.670       53.536    12912.857     5575.620     2866.095        3.085        1.068      200.694       58.909        0.086      338.798       11.693      858.630
05/07/2014  23:49:00     -200.880      -69.151       -2.886      104.178       76.547       49.077    10853.141     5859.490     2408.514        3.213        0.956      212.449       53.620        0.064      338.794       11.684      858.617
05/07/2014  23:50:00     -231.315     -116.994      -23.920      102.842       77.749       47.143    10576.420     6044.931     2222.430        4.330        0.942      259.219       31.971        0.015      338.825       11.737      858.599
05/07/2014  23:51:00     -119.487      -75.933       10.260       88.220       70.939       49.641     7782.718     5032.372     2464.263        1.771        0.764      141.573       49.470        0.122      338.783       11.668      858.622
05/07/2014  23:52:00     -101.373        0.039       -3.904       61.676       60.068       32.812     3803.872     3608.196     1076.627        0.939        0.424      101.373       25.775        0.065      338.829       11.746      858.619
05/07/2014  23:53:00     -110.309      -30.630        3.170       75.629       56.118       34.874     5719.753     3149.251     1216.227        1.160        0.504      114.483       39.240        0.117      338.792       11.685      858.625
05/07/2014  23:54:00     -108.695      -23.868      -16.867       38.734       27.102       22.573     1500.297      734.531      509.526        0.771        0.137      111.285       14.401        0.017      338.825       11.741      858.632
05/07/2014  23:55:00     -125.770      -36.963      -13.013       44.762       37.201       28.183     2003.615     1383.891      794.258        1.077        0.209      131.089       24.622        0.035      338.798       11.696      858.643
05/07/2014  23:56:00      -84.730      -52.679       -2.618       49.451       33.377       24.904     2445.417     1114.044      620.201        0.707        0.209       99.771       20.761        0.043      338.794       11.688      858.649
05/07/2014  23:57:00      -26.959      -33.229        9.171       58.855       28.680       34.064     3463.874      822.546     1160.332        0.368        0.272       42.790       34.395        0.646      338.819       11.730      858.650
05/07/2014  23:58:00      -50.063       -0.428      -13.635       25.624       29.963       18.890      656.595      897.778      356.813        0.230        0.096       50.065       11.243        0.050      338.790       11.681      858.656
05/07/2014  23:59:00      -47.464      -27.716       -6.610       47.749       58.655       24.766     2279.936     3440.422      613.355        0.470        0.317       54.963       22.951        0.174      338.813       11.719      858.656
